     2.11           OBSERVATION DATA    G (GPS)             RINEX VERSION / TYPE
teqc 2010Oct21 OPUS Account 20111028 21:20:04UTC            PGM / RUN BY / DATE
G 1528                                                      MARKER NAME
3091                                                        MARKER NUMBER
CSMIDDLETON NGS                                             OBSERVER / AGENCY
0220379089 TRIMBLE R7 2.28                                  REC # / TYPE / VERS
60124975 TRM41249.00 NONE                                   ANT # / TYPE
  -695461.9975 -5591818.3177  2978006.7026                  APPROX POSITION XYZ
        2.0010        0.0000        0.0000                  ANTENNA: DELTA H/E/N
     1     1                                                WAVELENGTH FACT L1/2
     5    L1    L2    C1    P1    P2                        # / TYPES OF OBSERV
    15                                                      LEAP SECONDS
  2011     8    29     0     0   30.0000000     GPS         TIME OF FIRST OBS
                                                            END OF HEADER
 11  8 29  0  0 30.0000000  0  8G10G12G17G09G05G04G25G02
 -28048116.87558 -21843928.18456  21040287.5314                   21040285.6174
 -24043151.42658 -18720102.27756  21257041.6254                   21257039.2584
 -26736802.10257 -20820027.50854  23609234.4454                   23609234.6884
 -10271997.05156  -7990392.42254  24292523.6954                   24292527.3954
 -21456075.66858 -16705827.57856  21520324.8984                   21520323.6844
 -27454867.51657 -21378723.28555  22297557.9774                   22297556.4804
  -7015402.50457  -5453999.35555  23679522.3594                   23679524.1644
 -31350962.41058 -24415974.91457  20782121.6484                   20782117.4304
 11  8 29  0  1  0.0000000  0  8G10G12G17G09G05G04G25G02
 -28045173.16448 -21841634.38746  21040847.7034                   21040846.0864
 -24108938.35948 -18771364.80946  21244522.9064                   21244520.1954
 -26699606.79747 -20791044.22344  23616312.1644                   23616313.1334
 -10211304.18746  -7943099.42243  24304073.6564                   24304076.0594
 -21553813.93048 -16781987.19946  21501725.7274                   21501724.8244
 -27395469.17647 -21332438.91045  22308861.5474                   22308860.3164
  -7127942.55547  -5541692.85945  23658106.9304                   23658108.5554
 -31363097.27348 -24425430.64546  20779812.6254                   20779808.5864
 11  8 29  0  1 30.0000000  0  8G10G12G17G09G05G04G25G02
 -28041563.00848 -21838821.27046  21041534.6804                   21041532.9884
 -24174180.37548 -18822202.72346  21232107.6414                   21232105.4304
 -26662186.55147 -20761885.68044  23623433.6254                   23623433.8484
 -10150511.24647  -7895728.42243  24315641.4614                   24315645.1644
 -21651104.71148 -16857798.12546  21483211.6254                   21483210.7814
 -27335952.87948 -21286062.61345  22320186.8204                   22320186.3914
  -7240174.04347  -5629145.94545  23636749.9144                   23636751.5164
 -31374942.37948 -24434660.59047  20777558.8284                   20777554.6174
 11  8 29  0  2  0.0000000  0  8G10G12G17G09G05G04G25G02
 -28037296.52348 -21835496.72746  21042346.2504                   21042344.5514
 -24238885.29748 -18872622.12546  21219794.7504                   21219792.2504
 -26624550.63347 -20732559.05544  23630594.8054                   23630595.6054
 -10089631.14847  -7848289.50843  24327227.4384                   24327230.5314
 -21747955.03548 -16933265.84046  21464781.7504                   21464780.8014
 -27276329.96947 -21239603.25045  22331533.0704                   22331531.6214
  -7352103.61347  -5716363.75845  23615450.8754                   23615452.6914
 -31386508.22748 -24443672.92646  20775357.5554                   20775353.3444
 11  8 29  0  2 30.0000000  0  8G10G12G17G09G05G04G25G02
 -28032376.28548 -21831662.77046  21043282.7584                   21043280.9104
 -24303051.94948 -18922622.09446  21207583.9924                   21207581.7114
 -26586699.77047 -20703064.96944  23637798.2424                   23637798.8754
 -10028668.02047  -7800785.91043  24338828.8284                   24338831.1414
 -21844363.72748 -17008389.42646  21446435.8444                   21446434.7304
 -27216603.22347 -21193062.97745  22342898.2344                   22342897.3874
  -7463729.97347  -5803345.33645  23594209.1414                   23594210.0944
 -31397797.38748 -24452469.68046  20773209.6564                   20773205.6024
 11  8 29  0  3  0.0000000  0  8G10G12G17G09G05G04G25G02
 -28026800.12948 -21827317.70746  21044343.8134                   21044342.2114
 -24366675.99248 -18972199.25846  21195476.6724                   21195474.4384
 -26548630.71947 -20673400.84044  23645042.6954                   23645042.4024
  -9967622.33247  -7753217.94143  24350444.5004                   24350448.0044
 -21940325.34848 -17083164.65246  21428174.5944                   21428174.0354
 -27156771.41847 -21146440.83645  22354284.5704                   22354283.2544
  -7575047.48447  -5890086.25844  23573025.9384                   23573026.5124
 -31408808.27048 -24461049.59847  20771113.9694                   20771109.8364
 11  8 29  0  3 30.0000000  0  8G10G12G17G09G05G04G25G02
 -28020568.64848 -21822462.01246  21045529.7734                   21045527.7734
 -24429755.35248 -19021351.97746  21183473.2584                   21183470.9024
 -26510342.50447 -20643565.95344  23652328.6564                   23652328.7544
  -9906497.10546  -7705588.03543  24362077.0944                   24362080.3984
 -22035836.87948 -17157589.15646  21409999.3364                   21409998.4264
 -27096835.86347 -21099737.85245  22365689.7504                   22365688.5474
  -7686053.21547  -5976584.22744  23551901.7584                   23551903.1254
 -31419541.76648 -24469413.35546  20769071.4144                   20769067.3634
 11  8 29  0  4  0.0000000  0  8G10G12G17G09G05G04G25G02
 -28013682.30548 -21817096.03546  21046840.2424                   21046838.2624
 -24492287.58248 -19070078.37146  21171573.5704                   21171571.1564
 -26471834.13746 -20613559.51644  23659656.2974                   23659657.0314
  -9845295.09046  -7657898.28143  24373723.3984                   24373726.7464
 -22130895.57048 -17231660.79346  21391910.5634                   21391909.6454
 -27036797.56247 -21052954.81645  22377114.8444                   22377113.4924
  -7796744.01646  -6062836.76644  23530837.9224                   23530839.1254
 -31429998.63748 -24477561.55946  20767081.6724                   20767077.7234
 11  8 29  0  4 30.0000000  0  8G10G12G17G09G05G04G25G02
 -28006141.95748 -21811220.43046  21048274.8364                   21048272.9384
 -24554270.69948 -19118376.87946  21159778.6884                   21159776.1094
 -26433105.49646 -20583381.43444  23667026.4064                   23667026.2894
  -9784019.05546  -7610150.85543  24385383.2274                   24385387.0204
 -22225498.50048 -17305377.29746  21373908.3754                   21373907.1374
 -26976658.13347 -21006092.97345  22388558.7894                   22388557.5234
  -7907116.92647  -6148841.61344  23509835.2424                   23509836.1024
 -31440179.70348 -24485494.86346  20765143.9844                   20765139.8324
 11  8 29  0  5  0.0000000  0  8G10G12G17G09G05G04G25G02
 -27997948.73048 -21804836.10946  21049833.8524                   21049832.2704
 -24615703.05548 -19166246.22746  21148088.5784                   21148086.1134
 -26394156.20346 -20553031.41844  23674438.2274                   23674438.3014
  -9722672.26646  -7562348.27743  24397057.6484                   24397061.4064
 -22319643.34848 -17378736.85546  21355992.6954                   21355991.6214
 -26916419.02047 -20959153.44545  22400021.8984                   22400020.7074
  -8017169.45747  -6234596.78145  23488892.8364                   23488893.7504
 -31450086.46148 -24493214.41846  20763258.9694                   20763254.9184
 11  8 29  0  5 30.0000000  0  8G10G12G17G09G05G04G25G02
 -27989102.02747 -21797942.57046  21051517.4844                   21051515.5824
 -24676580.98848 -19213683.55946  21136503.5394                   21136501.5744
 -26354983.90246 -20522507.62544  23681892.0864                   23681892.7584
  -9661256.66446  -7514492.14543  24408744.2734                   24408747.6454
 -22413326.41848 -17451736.58646  21338165.5394                   21338164.5634
 -26856080.28947 -20912136.29345  22411503.6414                   22411503.4344
  -8126897.23847  -6320098.91844  23468012.6644                   23468013.4104
 -31459718.48848 -24500719.89146  20761426.1094                   20761421.9924
 11  8 29  0  6  0.0000000  0  8G10G12G17G09G05G04G25G02
 -27979603.10248 -21790540.80546  21053324.9454                   21053323.0984
 -24736903.48048 -19260688.09446  21125024.8754                   21125022.4804
 -26315588.54346 -20491810.03944  23689389.3134                   23689390.3324
  -9599775.69146  -7466585.02343  24420444.3134                   24420447.9454
 -22506545.44148 -17524374.71946  21320426.5554                   21320425.3714
 -26795643.78947 -20865042.96145  22423004.8914                   22423004.2814
  -8236298.09847  -6405346.28145  23447193.8204                   23447194.8714
 -31469077.10548 -24508012.31646  20759645.1724                   20759640.8984
 11  8 29  0  6 30.0000000  0  8G10G12G17G09G05G04G25G02
 -27969453.89848 -21782632.34046  21055256.1724                   21055254.5944
 -24796669.53948 -19307259.04346  21113651.7034                   21113649.0704
 -26275970.84446 -20460939.21544  23696928.3674                   23696928.7504
  -9538233.03146  -7418629.85543  24432155.9224                   24432159.5904
 -22599298.62948 -17596649.87146  21302776.2194                   21302774.9264
 -26735111.98047 -20817875.35545  22434523.8594                   22434523.3554
  -8345369.97747  -6490337.30544  23426438.3914                   23426439.1564
 -31478164.43448 -24515093.34446  20757916.2894                   20757912.1684
 11  8 29  0  7  0.0000000  0  8G10G12G17G09G05G04G25G02
 -27958654.77748 -21774217.44946  21057311.1174                   21057309.5744
 -24855876.60548 -19353394.40646  21102384.9384                   21102382.5664
 -26236129.59046 -20429894.18044  23704510.6414                   23704510.7854
  -9476631.44546  -7370628.78543  24443878.3914                   24443881.9774
 -22691582.73048 -17668559.49646  21285215.0394                   21285213.6214
 -26674485.73847 -20770634.18445  22446060.7504                   22446059.8634
  -8454109.61347  -6575069.41044  23405744.9844                   23405746.5084
 -31486981.11748 -24521963.47346  20756238.1884                   20756234.5354
 11  8 29  0  7 30.0000000  0  8G10G12G17G09G05G04G25G02
 -27947205.92647 -21765296.25846  21059489.6644                   21059488.0004
 -24914521.95748 -19399092.07846  21091225.2664                   21091222.3634
 -26196063.21147 -20398673.69144  23712134.2504                   23712135.6134
  -9414973.15646  -7322583.51244  24455611.3054                   24455615.3404
 -22783394.45748 -17740101.04346  21267743.6884                   21267742.6724
 -26613765.18747 -20723319.50445  22457615.1954                   22457614.3164
  -8562513.27047  -6659539.73045  23385117.1414                   23385118.3164
 -31495527.26648 -24528622.80547  20754611.8444                   20754608.0084
 11  8 29  0  8  0.0000000  0  8G10G12G17G09G05G04G25G02
 -27935109.25848 -21755870.29746  21061792.0084                   21061790.3954
 -24972604.47348 -19444351.18746  21080172.2344                   21080169.6954
 -26155772.11746 -20367278.10244  23719801.8134                   23719802.6334
  -9353261.99046  -7274497.04944  24467354.8204                   24467358.7544
 -22874732.07048 -17811273.15646  21250362.9224                   21250361.4884
 -26552952.77747 -20675933.24645  22469187.3674                   22469186.9494
  -8670578.89147  -6743746.64145  23364552.9614                   23364554.6414
 -31503804.50048 -24535072.59446  20753036.8524                   20753032.8524
 11  8 29  0  8 30.0000000  0  8G10G12G17G09G05G04G25G02
 -27922365.73048 -21745940.27346  21064217.0164                   21064215.5274
 -25030122.22348 -19489170.20346  21069227.2034                   21069224.4184
 -26115255.82047 -20335707.02044  23727512.3134                   23727512.0744
  -9291500.65646  -7226371.51244  24479107.4924                   24479111.4344
 -22965592.89548 -17882073.73846  21233072.3284                   21233071.1254
 -26492049.59847 -20628476.27345  22480777.0084                   22480776.2894
  -8778303.54747  -6827687.87545  23344053.9384                   23344055.0354
 -31511813.73448 -24541313.55546  20751512.7274                   20751508.5554
 11  8 29  0  9  0.0000000  0  8G10G12G17G09G05G04G25G02
 -27908976.14548 -21735506.82846  21066765.0314                   21066763.3594
 -25087073.33248 -19533547.69546  21058389.6484                   21058387.0004
 -26074513.35946 -20303959.68444  23735264.6724                   23735264.8014
  -9229691.74246  -7178208.88344  24490869.6414                   24490873.7384
 -23055974.25048 -17952500.70746  21215873.3674                   21215871.9734
 -26431056.98847 -20580949.60545  22492383.1484                   22492383.0314
  -8885684.26647  -6911361.09045  23323619.5084                   23323620.8054
 -31519556.21148 -24547346.64147  20750039.3524                   20750035.2974
 11  8 29  0  9 30.0000000  0  8G10G12G17G09G05G04G25G02
 -27894941.70748 -21724570.90246  21069435.8204                   21069434.1644
 -25143456.21148 -19577482.41046  21047660.4534                   21047657.9454
 -26033544.34446 -20272035.82044  23743061.3754                   23743060.8714
  -9167838.58646  -7130011.81244  24502639.9224                   24502644.5204
 -23145873.83248 -18022552.27346  21198765.8914                   21198764.8444
 -26369976.40647 -20533354.39145  22504006.7034                   22504006.1174
  -8992718.44147  -6994764.26645  23303251.4064                   23303253.1764
 -31527033.00048 -24553172.69946  20748616.6094                   20748612.0434
 11  8 29  0 10  0.0000000  0  8G10G12G17G09G05G04G25G02
 -27880262.85548 -21713132.83646  21072228.5634                   21072227.4344
 -25199268.04348 -19620972.16846  21037039.7194                   21037037.3324
 -25992347.40646 -20239934.34444  23750900.1484                   23750900.5234
  -9105943.30946  -7081781.88744  24514418.6644                   24514422.2584
 -23235288.14548 -18092225.70746  21181750.8594                   21181749.7934
 -26308807.90247 -20485690.66045  22515646.7974                   22515645.9304
  -9099402.27347  -7077894.43745  23282949.8754                   23282951.2234
 -31534243.94948 -24558791.59846  20747244.4304                   20747239.9104
 11  8 29  0 10 30.0000000  0  8G10G12G17G09G05G04G25G02
 -27864940.78948 -21701193.57046  21075144.7114                   21075143.3054
 -25254507.17248 -19664015.64846  21026527.8914                   21026525.8444
 -25950922.61346 -20207655.38344  23758782.5084                   23758784.2464
  -9044009.18046  -7033521.72744  24526204.2584                   24526208.4104
 -23324215.01648 -18161519.32046  21164828.4614                   21164827.4454
 -26247553.64847 -20437960.10945  22527303.4924                   22527301.8714
  -9205733.26647  -7160749.70745  23262716.1414                   23262717.2344
 -31541190.51648 -24564204.48446  20745922.6564                   20745918.4614
 11  8 29  0 11  0.0000000  0  8G10G12G17G09G05G04G25G02
 -27848977.18048 -21688754.39546  21078182.5084                   21078180.6884
 -25309172.75448 -19706612.21546  21016125.6024                   21016122.7974
 -25909269.78546 -20175198.73444  23766708.7344                   23766710.5274
  -8982039.78946  -6985234.08043  24537997.2344                   24538001.1764
 -23412652.35548 -18230431.46946  21147999.6884                   21147998.4064
 -26186215.00047 -20390163.80145  22538975.1024                   22538974.6994
  -9311709.12947  -7243328.27045  23242549.6414                   23242550.6334
 -31547874.39148 -24569412.68746  20744650.5864                   20744646.2894
 11  8 29  0 11 30.0000000  0  8G10G12G17G09G05G04G25G02
 -27832373.13748 -21675816.18746  21081342.0394                   21081340.1724
 -25363262.72348 -19748760.25446  21005832.6024                   21005830.0784
 -25867388.39846 -20142563.99244  23774678.9924                   23774680.0354
  -8920037.82846  -6936921.03543  24549795.6954                   24549800.2304
 -23500597.72348 -18298960.27346  21131264.0314                   21131263.3164
 -26124793.24247 -20342302.74245  22550663.3674                   22550662.9494
  -9417326.85247  -7325627.75845  23222450.6414                   23222452.4064
 -31554296.28148 -24574416.74646  20743428.6334                   20743424.2704
 11  8 29  0 12  0.0000000  0  8G10G12G17G09G05G04G25G02
 -27815129.96148 -21662379.94946  21084623.3054                   21084621.6334
 -25416775.69948 -19790458.69146  20995649.5394                   20995647.0664
 -25825278.00846 -20109750.80944  23782692.6094                   23782694.3594
  -8858006.19946  -6888584.93443  24561599.9534                   24561604.2624
 -23588048.98448 -18367104.05546  21114622.7344                   21114621.0164
 -26063289.97347 -20294378.14845  22562367.6024                   22562366.7074
  -9522583.94147  -7407646.22345  23202420.9304                   23202422.5004
 -31560457.67648 -24579217.82446  20742256.1414                   20742251.6484
 11  8 29  0 12 30.0000000  0  8G10G12G17G09G05G04G25G02
 -27797248.97748 -21648446.71546  21088025.9304                   21088024.1334
 -25469709.62948 -19831705.91046  20985576.2114                   20985574.0084
 -25782937.98046 -20076758.67245  23790750.2344                   23790751.1724
  -8795948.03146  -6840228.10943  24573409.3364                   24573413.1294
 -23675003.15648 -18434860.49646  21098075.8364                   21098074.4264
 -26001706.32047 -20246390.93745  22574086.8134                   22574085.4774
  -9627477.47747  -7489381.39145  23182460.3834                   23182461.6884
 -31566359.33648 -24583816.50446  20741133.2424                   20741128.8094
 11  8 29  0 13  0.0000000  0  8G10G12G17G09G05G04G25G02
 -27778732.68048 -21634018.43446  21091549.5394                   21091547.6804
 -25522064.59448 -19872501.99646  20975613.5784                   20975610.9534
 -25740369.34447 -20043588.38744  23798850.8524                   23798851.6484
  -8733867.22346  -6791853.64143  24585222.6254                   24585227.1604
 -23761459.85248 -18502229.29746  21081623.6174                   21081621.9574
 -25940044.49647 -20198342.79745  22585820.6254                   22585819.2774
  -9732005.85547  -7570832.02345  23162570.0944                   23162570.9384
 -31572003.32448 -24588214.39546  20740059.0164                   20740054.6254
 11  8 29  0 13 30.0000000  0  8G10G12G17G09G05G04G25G02
 -27759581.41448 -21619095.36746  21095193.7344                   21095191.8364
 -25573837.99248 -19912844.89846  20965761.1884                   20965759.1334
 -25697570.90247 -20010239.02744  23806994.8444                   23806995.8404
  -8671765.93046  -6743463.23443  24597040.2344                   24597045.4264
 -23847415.67248 -18569207.80546  21065266.5004                   21065265.2854
 -25878305.30147 -20150234.36345  22597569.2894                   22597568.0634
  -9836165.59847  -7651995.41445  23142749.1414                   23142749.6994
 -31577390.27048 -24592411.98847  20739033.6804                   20739029.8444
 11  8 29  0 14  0.0000000  0  8G10G12G17G09G05G04G25G02
 -27739797.60948 -21603679.41846  21098958.7114                   21098956.3594
 -25625029.15648 -19952734.12146  20956020.1804                   20956017.5664
 -25654542.90646 -19976710.80544  23815182.9844                   23815183.8094
  -8609648.35946  -6695060.14143  24608861.5554                   24608866.0354
 -23932868.86348 -18635794.64846  21049005.4774                   21049003.9344
 -25816490.97747 -20102067.39544  22609331.9454                   22609330.9414
  -9939954.87147  -7732870.15645  23122998.4304                   23122998.3954
 -31582521.99248 -24596410.72346  20738057.3984                   20738053.2664
 11  8 29  0 14 30.0000000  0  8G10G12G17G09G05G04G25G02
 -27719383.81648 -21587772.57846  21102843.4384                   21102841.4184
 -25675637.80948 -19992169.42646  20946389.6724                   20946387.2424
 -25611286.68746 -19943004.71543  23823414.7424                   23823414.2854
  -8547518.43746  -6646647.43043  24620684.7584                   24620689.2384
 -24017818.57848 -18701989.17246  21032839.9304                   21032838.9224
 -25754603.96547 -20053843.79345  22621108.4534                   22621108.1024
 -10043372.24648  -7813455.11745  23103318.5394                   23103319.1954
 -31587401.07048 -24600212.59046  20737129.0394                   20737124.9694
 11  8 29  0 15  0.0000000  0  8G10G12G17G09G05G04G25G02
 -27698341.27048 -21571375.78146  21106847.3444                   21106845.8164
 -25725662.09848 -20031149.37946  20936870.1484                   20936868.0084
 -25567801.23446 -19909120.00843  23831688.8284                   23831688.9804
  -8485379.00846  -6598227.31243  24632509.5634                   24632514.5004
 -24102262.16048 -18767789.30946  21016770.6094                   21016769.3834
 -25692645.28147 -20005564.33645  22632898.8594                   22632898.5784
 -10146414.57847  -7893747.80945  23083710.2974                   23083710.9654
 -31592028.22748 -24603818.16846  20736248.2894                   20736243.9884
 11  8 29  0 15 30.0000000  0  8G10G12G17G09G05G04G25G02
 -27676672.53948 -21554491.05946  21110971.0084                   21110969.1994
 -25775101.73448 -20069673.75846  20927462.3284                   20927459.7704
 -25524087.21146 -19875057.17643  23840007.2894                   23840009.1094
  -8423233.77346  -6549802.66443  24644334.9384                   24644339.9064
 -24186198.44148 -18833194.14846  21000798.0784                   21000797.0234
 -25630616.98047 -19957230.62545  22644702.2734                   22644702.2034
 -10249080.13747  -7973746.90645  23064173.6884                   23064174.2464
 -31596405.16848 -24607228.77046  20735415.8594                   20735411.1484
 11  8 29  0 16  0.0000000  0  8G10G12G17G09G05G04G25G02
 -27654379.87548 -21537120.15646  21115213.3054                   21115211.2034
 -25823955.38748 -20107741.52746  20918165.6174                   20918163.0824
 -25480144.52046 -19840816.19144  23848369.8914                   23848371.0784
  -8361086.30146  -6501376.27043  24656162.0084                   24656166.9574
 -24269626.10948 -18898202.66846  20984922.4694                   20984921.3594
 -25568520.93447 -19908844.12945  22656519.0164                   22656518.2934
 -10351366.78947  -8053450.73845  23044708.9064                   23044710.3444
 -31600533.78548 -24610445.86346  20734629.9454                   20734625.4734
 11  8 29  0 16 30.0000000  0  8G10G12G17G09G05G04G25G02
 -27631464.46948 -21519264.00046  21119573.6954                   21119571.9384
 -25872222.50448 -20145352.25846  20908980.5084                   20908978.1954
 -25435973.35547 -19806397.16444  23856776.1644                   23856776.7384
  -8298939.73046  -6452950.52043  24667988.2424                   24667993.0824
 -24352542.65248 -18962812.90646  20969143.7114                   20969142.3204
 -25506358.66447 -19860406.04345  22668347.7734                   22668347.5594
 -10453272.12548  -8132857.45345  23025317.3674                   23025318.1684
 -31604415.41848 -24613470.50846  20733891.0864                   20733886.8404
 11  8 29  0 17  0.0000000  0  8G10G12G17G09G05G04G25G02
 -27607927.48848 -21500923.49646  21124052.6644                   21124050.9454
 -25919900.66448 -20182504.05146  20899908.1884                   20899905.0314
 -25391572.91847 -19771799.48844  23865225.3674                   23865225.5984
  -8236796.45746  -6404527.41843  24679813.5164                   24679817.9494
 -24434945.25448 -19027022.67246  20953463.1254                   20953462.0984
 -25444130.96947 -19811916.97345  22680189.1484                   22680188.9344
 -10554792.87147  -8211964.48445  23005998.1094                   23005999.1294
 -31608050.64848 -24616303.15246  20733199.4844                   20733195.2854
 11  8 29  0 17 30.0000000  0  8G10G12G17G09G05G04G25G02
 -27583771.21148 -21482100.43046  21128649.4224                   21128647.6914
 -25966989.14548 -20219196.35946  20890946.7114                   20890944.4964
 -25346943.31647 -19737023.27745  23873718.1724                   23873719.1094
  -8174659.88746  -6356109.50043  24691638.4064                   24691643.5204
 -24516832.68048 -19090830.99646  20937880.5004                   20937879.2114
 -25381839.44147 -19763378.16845  22692043.0704                   22692042.7854
 -10655926.93747  -8290770.21945  22986752.6724                   22986754.2774
 -31611441.30148 -24618945.21946  20732554.1334                   20732549.8324
 11  8 29  0 18  0.0000000  0  8G10G12G17G09G05G04G25G02
 -27558996.06648 -21462795.12946  21133364.0864                   21133362.6054
 -26013485.45348 -20255427.24246  20882099.3204                   20882097.2154
 -25302083.41046 -19702067.58645  23882254.6804                   23882255.9534
  -8112531.96946  -6307698.33243  24703460.9384                   24703466.3164
 -24598201.82048 -19154235.47346  20922396.6644                   20922395.0984
 -25319484.41047 -19714789.89145  22703909.2344                   22703908.9534
 -10756670.73847  -8369271.84445  22967581.9064                   22967582.7894
 -31614587.04348 -24621396.44546  20731955.5164                   20731951.0984
 11  8 29  0 18 30.0000000  0  8G10G12G17G09G05G04G25G02
 -27533602.87948 -21443008.23846  21138196.1024                   21138194.1524
 -26059387.20748 -20291194.82846  20873364.5864                   20873362.0984
 -25256991.97346 -19666931.46544  23890835.2504                   23890835.9104
  -8050415.05946  -6259295.73843  24715281.5314                   24715286.0704
 -24679049.55148 -19217233.65246  20907011.7114                   20907010.4144
 -25257066.40247 -19666152.53145  22715787.0234                   22715786.7734
 -10857020.71947  -8447466.59845  22948485.7504                   22948487.5314
 -31617488.32448 -24623657.19146  20731403.4924                   20731399.0354
 11  8 29  0 19  0.0000000  0  8G10G12G17G09G05G04G25G02
 -27507594.96947 -21422742.34046  21143145.0704                   21143143.3984
 -26104695.71548 -20326500.15246  20864742.2814                   20864740.1844
 -25211670.28146 -19631615.97344  23899459.1334                   23899461.1954
  -7988313.53946  -6210905.15244  24727099.0314                   24727104.0234
 -24759375.48848 -19279825.24246  20891726.0704                   20891724.7304
 -25194588.06247 -19617468.15644  22727676.6644                   22727676.4844
 -10956975.93747  -8525353.75045  22929465.0314                   22929466.4574
 -31620148.02748 -24625729.68446  20730897.1414                   20730892.9654
 11  8 29  0 19 30.0000000  0  8G10G12G17G09G05G04G25G02
 -27480974.56248 -21401999.18046  21148211.2344                   21148209.4184
 -26149409.59848 -20361342.12946  20856233.7194                   20856231.0354
 -25166118.73446 -19596121.34844  23908127.6484                   23908129.0434
  -7926231.18446  -6162529.48443  24738913.2344                   24738918.7664
 -24839178.17248 -19342009.09446  20876539.9144                   20876538.6024
 -25132051.64147 -19568738.53544  22739576.5314                   22739576.1994
 -11056534.34847  -8602931.70745  22910519.9924                   22910520.9184
 -31622567.90248 -24627615.30146  20730436.5474                   20730432.5554
 11  8 29  0 20  0.0000000  0  8G10G12G17G09G05G04G25G02
 -27453742.38348 -21380779.29346  21153393.0864                   21153391.4344
 -26193526.88348 -20395719.23046  20847838.3674                   20847836.1174
 -25120336.18046 -19560446.69544  23916839.9454                   23916840.7624
  -7864169.76246  -6114170.12943  24750723.4534                   24750728.7424
 -24918454.35248 -19403782.68746  20861454.1644                   20861452.6644
 -25069456.94947 -19519963.49645  22751488.1094                   22751487.7154
 -11155692.37547  -8680197.66445  22891650.3364                   22891651.7544
 -31624747.90248 -24629314.00446  20730022.0864                   20730018.2154
 11  8 29  0 20 30.0000000  0  8G10G12G17G09G05G04G25G02
 -27425901.17648 -21359084.85946  21158690.6644                   21158689.2584
 -26237047.04748 -20429631.03946  20839557.0474                   20839554.1764
 -25074323.28146 -19524592.57843  23925595.4924                   23925596.7814
  -7802132.90646  -6065829.90643  24762528.4614                   24762532.8164
 -24997203.19948 -19465145.37946  20846468.7584                   20846467.6024
 -25006806.25447 -19471144.82045  22763409.8914                   22763409.7194
 -11254448.18448  -8757150.21145  22872858.2274                   22872858.9574
 -31626690.10548 -24630827.41846  20729652.5554                   20729648.3054
 11  8 29  0 21  0.0000000  0  8G10G12G17G09G05G04G25G02
 -27397452.19548 -21336916.82446  21164104.5704                   21164103.1644
 -26279968.19948 -20463076.09446  20831389.1024                   20831386.6724
 -25028079.02746 -19488558.18444  23934396.2194                   23934397.1804
  -7740122.96946  -6017510.68743  24774329.5314                   24774334.1604
 -25075421.81248 -19526094.89546  20831584.6174                   20831583.2464
 -24944100.09447 -19422282.94544  22775343.0784                   22775341.9304
 -11352798.64847  -8833786.89845  22854142.8674                   22854143.2504
 -31628394.86348 -24632155.80546  20729327.8444                   20729323.8284
 11  8 29  0 21 30.0000000  0  8G10G12G17G09G05G04G25G02
 -27368397.93748 -21314277.15646  21169633.6334                   21169631.9304
 -26322290.09848 -20496054.19546  20823335.1094                   20823333.1214
 -24981603.94146 -19452343.85544  23943239.8134                   23943241.3164
  -7678143.73446  -5969215.38343  24786122.9454                   24786127.9414
 -25153109.10948 -19586630.39846  20816800.8674                   20816799.3714
 -24881340.46947 -19373379.36345  22787285.5394                   22787285.2274
 -11450741.84847  -8910106.25045  22835504.4924                   22835505.1054
 -31629864.21548 -24633300.76246  20729048.2194                   20729044.1214
 11  8 29  0 22  0.0000000  0  8G10G12G17G09G05G04G25G02
 -27338738.67247 -21291166.03946  21175277.6644                   21175275.8754
 -26364010.66448 -20528563.72346  20815396.3364                   20815394.1254
 -24934896.87146 -19415948.76644  23952128.3444                   23952128.6484
  -7616196.75046  -5920945.23443  24797910.5944                   24797916.7304
 -25230261.87548 -19646749.38746  20802119.2274                   20802117.6684
 -24818527.47747 -19324434.21945  22799238.4844                   22799238.1054
 -11548274.21148  -8986105.50045  22816944.9844                   22816945.1994
 -31631098.21548 -24634262.31246  20728813.7344                   20728809.1764
 11  8 29  0 22 30.0000000  0  7G10G12G17G05G04G25G02
 -27308475.74248 -21267584.54746  21181036.6174                   21181034.4884
 -26405127.57448 -20560602.86346  20807572.1724                   20807569.9574
 -24887956.63346 -19379372.01644  23961060.1954                   23961061.5514
 -25306877.48448 -19706449.81246  20787539.5394                   20787538.2344
 -24755661.32447 -19275447.66445  22811201.6884                   22811200.9304
 -11645392.25848  -9061781.87545  22798463.9454                   22798464.0784
 -31632097.12148 -24635040.68046  20728623.5864                   20728619.3054
 11  8 29  0 23  0.0000000  0  7G10G12G17G05G04G25G02
 -27277611.30147 -21243534.33646  21186910.0554                   21186908.0904
 -26445640.47348 -20592171.35246  20799862.7274                   20799860.2274
 -24840783.19546 -19342613.56244  23970037.1954                   23970038.6604
 -25382953.94148 -19765730.11746  20773062.4774                   20773060.7114
 -24692743.43047 -19226420.76645  22823174.6414                   22823174.1414
 -11742093.64547  -9137133.58645  22780061.9844                   22780062.9144
 -31632862.25448 -24635636.88746  20728478.3204                   20728473.7584
 11  8 29  0 23 30.0000000  0  7G10G12G17G05G04G25G02
 -27246144.19548 -21219014.51646  21192897.7894                   21192896.0744
 -26485544.92248 -20623265.72346  20792269.3834                   20792266.6294
 -24793373.51646 -19305671.03144  23979058.8054                   23979060.3834
 -25458486.71948 -19824586.77747  20758689.3984                   20758687.8054
 -24629772.15647 -19177352.28544  22835157.4384                   22835156.5474
 -11838372.94947  -9212156.36745  22761740.5864                   22761741.4494
 -31633391.59448 -24636049.33646  20728377.0784                   20728372.7464
 11  8 29  0 24  0.0000000  0  7G10G12G17G05G04G25G02
 -27214072.93048 -21194023.92646  21199001.1804                   21198998.7234
 -26524836.61748 -20653882.62546  20784792.3364                   20784789.8404
 -24745724.12146 -19268541.73844  23988125.7734                   23988127.8874
 -25533470.62548 -19883015.74646  20744420.4774                   20744418.6994
 -24566745.34447 -19128240.53144  22847151.0234                   22847150.5274
 -11934224.21147  -9286845.63745  22743501.1414                   22743501.4344
 -31633683.01648 -24636276.41446  20728321.9924                   20728317.8324
 11  8 29  0 24 30.0000000  0  7G10G12G17G05G04G25G02
 -27181398.25448 -21168563.14546  21205218.5634                   21205217.1334
 -26563513.30548 -20684020.30146  20777432.2664                   20777429.9804
 -24697833.57046 -19231224.52744  23997239.7274                   23997241.5234
 -25607902.19948 -19941014.33246  20730256.2504                   20730254.6024
 -24503662.45747 -19079085.07044  22859155.0554                   22859154.8324
 -12029643.56648  -9361198.35245  22725343.0474                   22725343.9024
 -31633736.44148 -24636318.03546  20728311.6954                   20728307.0824
 11  8 29  0 25  0.0000000  0  7G10G12G17G05G04G25G02
 -27148122.84048 -21142634.25446  21211550.5554                   21211548.8364
 -26601575.22748 -20713678.93746  20770189.5474                   20770187.1524
 -24649702.78546 -19193720.10244  24006398.7584                   24006400.2344
 -25681780.71548 -19998581.96147  20716197.7664                   20716196.3834
 -24440525.90647 -19029887.80544  22871169.6174                   22871169.3244
 -12124629.55548  -9435213.39145  22707268.0234                   22707267.8634
 -31633553.91848 -24636175.80546  20728346.4694                   20728341.8874
 11  8 29  0 25 30.0000000  0  7G10G12G17G05G04G25G02
 -27114250.34848 -21116240.11746  21217996.2894                   21217994.6764
 -26639022.44948 -20742858.59046  20763063.5554                   20763061.2584
 -24601332.86346 -19156029.33644  24015603.9384                   24015604.5864
 -25755105.81648 -20055718.34846  20702244.2344                   20702243.0634
 -24377338.43047 -18980650.86744  22883194.2814                   22883193.5084
 -12219181.18747  -9508889.96545  22689275.1804                   22689275.5664
 -31633137.84448 -24635851.58646  20728425.2424                   20728421.3444
 11  8 29  0 26  0.0000000  0  7G10G12G17G05G04G25G02
 -27079783.27048 -21089382.64846  21224555.3204                   21224553.4804
 -26675854.92248 -20771559.21546  20756054.4924                   20756051.9884
 -24552724.52346 -19118152.79344  24024854.1334                   24024854.6604
 -25827876.72748 -20112422.90647  20688396.6564                   20688395.2774
 -24314101.58247 -18931375.44944  22895227.4384                   22895227.5354
 -12313296.44947  -9582226.50045  22671365.5004                   22671366.6134
 -31632490.32448 -24635347.02046  20728548.6254                   20728544.6604
 11  8 29  0 26 30.0000000  0  7G10G12G17G05G04G25G02
 -27044724.57848 -21062064.19145  21231226.5164                   21231225.2894
 -26712072.61748 -20799780.79346  20749162.3914                   20749159.9264
 -24503878.69146 -19080091.18444  24034148.8754                   24034149.8674
 -25900092.30148 -20168694.74247  20674654.2664                   20674652.8364
 -24250817.35247 -18882063.11744  22907270.4924                   22907270.0394
 -12406973.81248  -9655221.80145  22653539.2974                   22653540.0474
 -31631613.02048 -24634663.39146  20728715.5634                   20728711.0314
 11  8 29  0 27  0.0000000  0  7G10G12G17G05G04G25G02
 -27009077.55548 -21034287.30146  21238009.7974                   21238008.5434
 -26747675.69948 -20827523.45746  20742387.4774                   20742385.0664
 -24454796.16446 -19041845.12543  24043488.7034                   24043489.6174
 -25971751.90248 -20224533.35246  20661018.0234                   20661016.5784
 -24187488.23447 -18832715.82044  22919321.2504                   22919321.2584
 -12500211.91047  -9727874.83645  22635796.4844                   22635797.3834
 -31630508.34048 -24633802.59046  20728925.9144                   20728921.6644
 11  8 29  0 27 30.0000000  0  7G10G12G17G05G04G25G02
 -26972843.99648 -21006053.36746  21244905.0004                   21244903.5744
 -26782663.28948 -20854786.51646  20735729.4384                   20735727.1134
 -24405476.57846 -19003414.34043  24052873.7814                   24052874.6954
 -26042853.35948 -20279937.03547  20647487.9454                   20647486.5434
 -24124114.77747 -18783333.95744  22931380.6884                   22931380.5314
 -12593008.21947  -9800183.61745  22618138.1024                   22618138.7384
 -31629177.15648 -24632765.29746  20729179.0864                   20729174.6684
 11  8 29  0 28  0.0000000  0  7G10G12G17G05G04G25G02
 -26936025.70348 -20977363.79746  21251911.3834                   21251909.7854
 -26817034.15648 -20881569.01646  20729189.1804                   20729186.7544
 -24355919.33246 -18964798.37943  24062304.5394                   24062305.0904
 -26113395.07448 -20334904.56247  20634063.7814                   20634062.5474
 -24060697.91047 -18733918.27744  22943449.1804                   22943448.8794
 -12685359.91047  -9872145.97345  22600564.4694                   22600564.9344
 -31627620.31248 -24631552.17246  20729475.2664                   20729470.9774
 11  8 29  0 28 30.0000000  0  7G10G12G17G05G04G25G02
 -26898625.30948 -20948220.64146  21259028.4774                   21259026.7774
 -26850787.98048 -20907870.70747  20722765.9924                   20722763.4844
 -24306125.50446 -18925998.06643  24071779.7034                   24071781.8524
 -26183375.91848 -20389435.04747  20620746.9534                   20620745.2424
 -23997239.68447 -18684470.37144  22955524.5864                   22955524.2504
 -12777265.19547  -9943760.44545  22583075.5474                   22583076.0354
 -31625839.57448 -24630164.57846  20729813.9694                   20729810.4454
 11  8 29  0 29  0.0000000  0  7G10G12G17G05G04G25G02
 -26860643.56248 -20918624.48046  21266256.2344                   21266254.5234
 -26883923.39848 -20933690.51646  20716460.4304                   20716457.8284
 -24256093.71546 -18887012.38743  24081301.1804                   24081302.1564
 -26252792.93048 -20443526.18447  20607537.3204                   20607536.0004
 -23933739.45346 -18634989.73844  22967608.5084                   22967608.6564
 -12868720.35547 -10015024.18445  22565671.5394                   22565672.5084
 -31623834.81248 -24628602.42246  20730195.6094                   20730191.6684
 11  8 29  0 29 30.0000000  0  7G10G12G17G05G04G25G02
 -26822083.88348 -20888577.98046  21273593.8284                   21273592.2344
 -26916440.06648 -20959028.19146  20710272.5474                   20710270.3484
 -24205824.58246 -18847841.72343  24090866.2034                   24090867.8754
 -26321645.08248 -20497177.17247  20594435.1414                   20594433.3484
 -23870199.41447 -18585478.08644  22979699.8444                   22979699.1334
 -12959723.89147 -10085936.00845  22548354.4064                   22548354.9104
 -31621608.11348 -24626867.33246  20730619.4304                   20730615.4304
 11  8 29  0 30  0.0000000  0  7G10G12G17G05G04G25G02
 -26782947.71948 -20858082.28546  21281040.9064                   21281039.5744
 -26948336.29748 -20983882.40646  20704202.7114                   20704200.8874
 -24155317.12546 -18808485.31243  24100478.1174                   24100479.9694
 -26389930.10248 -20550386.23847  20581441.0314                   20581439.5514
 -23806619.69547 -18535935.50844  22991798.5084                   22991798.9574
 -13050272.62147 -10156493.45345  22531123.9144                   22531124.2854
 -31619159.78948 -24624959.54346  20731085.3444                   20731081.4694
 11  8 29  0 30 30.0000000  0  7G10G12G17G05G04G25G02
 -26743237.01248 -20827138.89146  21288597.9304                   21288596.2974
 -26979611.63748 -21008252.80946  20698251.6484                   20698249.0354
 -24104571.59446 -18768943.39544  24110134.7274                   24110135.6844
 -26457646.84448 -20603152.48847  20568554.9384                   20568553.2234
 -23743001.66447 -18486363.09044  23003905.0944                   23003904.6954
 -13140364.10247 -10226694.60245  22513979.8204                   22513980.6414
 -31616490.83648 -24622879.83646  20731593.1174                   20731588.8484
 11  8 29  0 31  0.0000000  0  7G10G12G17G05G04G25G02
 -26702954.34448 -20795749.81246  21296263.5314                   21296262.1764
 -27010265.41448 -21032138.88746  20692418.3054                   20692415.6254
 -24053588.11346 -18729216.03544  24119836.6414                   24119837.9694
 -26524794.03548 -20655474.93047  20555777.3204                   20555775.7234
 -23679346.35247 -18436761.62144  23016018.1254                   23016018.2544
 -13229996.43047 -10296537.96545  22496923.5634                   22496923.7344
 -31613602.33648 -24620629.05946  20732142.6564                   20732138.7194
 11  8 29  0 31 30.0000000  0  7G10G12G17G05G04G25G02
 -26662101.62947 -20763916.54346  21304037.8834                   21304035.7344
 -27040297.45348 -21055540.48046  20686703.4304                   20686700.9144
 -24002366.57847 -18689303.18444  24129583.7194                   24129584.8164
 -26591369.66448 -20707352.00047  20543108.4064                   20543106.4184
 -23615654.60247 -18387131.76244  23028138.7424                   23028138.3554
 -13319166.62947 -10366021.23445  22479954.5634                   22479955.2774
 -31610495.51648 -24618208.16846  20732733.9924                   20732730.2234
 11  8 29  0 32  0.0000000  0  7G10G12G17G05G04G25G02
 -26620679.31647 -20731639.43745  21311920.1254                   21311918.5274
 -27069704.85948 -21078455.35546  20681107.4614                   20681105.1724
 -23950905.18447 -18649203.42644  24139376.7664                   24139378.1884
 -26657370.29748 -20758781.02347  20530548.8054                   20530546.9734
 -23551925.58247 -18337472.84844  23040266.0004                   23040265.2774
 -13407870.70347 -10435141.28545  22463075.0004                   22463075.7074
 -31607169.46148 -24615616.43746  20733366.8364                   20733363.1644
 11  8 29  0 32 30.0000000  0  7G10G12G17G05G04G25G02
 -26578690.34447 -20698920.77045  21319910.0784                   21319908.8524
 -27098487.92248 -21100883.71546  20675629.9064                   20675627.7194
 -23899204.45346 -18608917.16843  24149214.4304                   24149216.0274
 -26722795.46148 -20809761.63747  20518098.6804                   20518096.8674
 -23488161.25047 -18287786.41444  23052399.0784                   23052399.5274
 -13496107.02347 -10503896.86345  22446284.5634                   22446284.6094
 -31603626.51648 -24612855.70746  20734041.3524                   20734037.2584
 11  8 29  0 33  0.0000000  0  7G10G12G17G05G04G25G02
 -26536137.42248 -20665762.67245  21328007.5704                   21328006.1254
 -27126646.46948 -21122825.45346  20670271.5004                   20670269.3954
 -23847264.84046 -18568444.76243  24159098.3204                   24159100.6684
 -26787643.67248 -20860292.66447  20505758.5704                   20505756.6174
 -23424362.71946 -18238073.34844  23064540.5004                   23064540.3524
 -13583873.69547 -10572286.46945  22429583.3054                   22429583.5664
 -31599867.54748 -24609926.65646  20734756.4144                   20734752.4924
 11  8 29  0 33 30.0000000  0  7G10G12G17G05G04G25G02
 -26493022.39848 -20632166.55945  21336212.1954                   21336210.6024
 -27154179.41848 -21144279.70346  20665032.1954                   20665030.1804
 -23795086.09446 -18527786.03543  24169027.5004                   24169029.0394
 -26851913.11748 -20910372.70747  20493528.2974                   20493526.9694
 -23360530.89146 -18188334.31644  23076686.4534                   23076686.3324
 -13671167.92647 -10640307.94145  22412971.2734                   22412971.7154
 -31595893.17648 -24606829.76246  20735512.5784                   20735508.7814
 11  8 29  0 34  0.0000000  0  7G10G12G17G05G04G25G02
 -26449347.97347 -20598134.55145  21344523.5944                   21344521.6644
 -27181086.66048 -21165246.39146  20659911.8284                   20659909.5314
 -23742668.68446 -18486941.33643  24179002.2894                   24179004.1994
 -26915603.13348 -20960001.24647  20481408.4924                   20481406.9064
 -23296667.09046 -18138570.39144  23088839.6024                   23088839.6764
 -13757987.83647 -10707959.80545  22396449.8204                   22396450.8714
 -31591705.20348 -24603566.41046  20736309.5004                   20736305.5514
 11  8 29  0 34 30.0000000  0  7G10G12G17G05G04G25G02
 -26405115.90647 -20563668.02746  21352940.3134                   21352938.9184
 -27207367.15248 -21185724.69546  20654911.1484                   20654908.8954
 -23690011.91846 -18445910.14543  24189022.0234                   24189024.3164
 -26978711.49248 -21009176.55147  20469399.2734                   20469397.5234
 -23232771.56246 -18088781.72744  23100998.7894                   23100998.8874
 -13844330.51647 -10775239.79345  22380018.9924                   22380019.8954
 -31587303.81648 -24600136.77346  20737147.0084                   20737143.3444
 11  8 29  0 35  0.0000000  0  7G10G12G17G05G04G25G02
 -26360328.03548 -20528768.40645  21361463.2894                   21361461.5594
 -27233020.23048 -21205714.12546  20650029.3284                   20650027.0004
 -23637115.79346 -18404692.43043  24199088.9144                   24199090.5824
 -27041236.82448 -21057897.54747  20457501.3674                   20457499.3484
 -23168845.07046 -18038968.91044  23113164.2274                   23113163.5514
 -13930193.42647 -10842145.94545  22363680.2584                   22363680.7304
 -31582690.13348 -24596541.70746  20738024.6414                   20738021.2774
 11  8 29  0 35 30.0000000  0  7G10G12G17G05G04G25G02
 -26314987.32048 -20493437.98846  21370091.1954                   21370089.6414
 -27258045.97348 -21225214.70746  20645267.3594                   20645265.0394
 -23583980.38346 -18363288.28144  24209200.1414                   24209201.9344
 -27103177.79348 -21106163.19547  20445714.2734                   20445712.6214
 -23104888.82846 -17989132.93044  23125334.1094                   23125334.1604
 -14015574.49647 -10908676.63345  22347432.5474                   22347432.9884
 -31577865.48848 -24592782.25446  20738943.2974                   20738939.4064
 11  8 29  0 36  0.0000000  0  7G10G12G17G05G04G25G02
 -26269096.03948 -20457678.55945  21378824.1174                   21378822.1294
 -27282443.29748 -21244225.61346  20640624.5634                   20640622.6374
 -23530605.80146 -18321697.75444  24219357.5394                   24219359.1954
 -27164533.13348 -21153972.50847  20434038.6024                   20434036.7234
 -23040903.85546 -17939274.55144  23137510.2114                   23137509.8554
 -14100471.49647 -10974830.11745  22331277.1334                   22331277.6644
 -31572830.77048 -24588859.10946  20739901.6094                   20739897.4844
 11  8 29  0 36 30.0000000  0  7G10G12G17G05G04G25G02
 -24647236.67648 -19193892.05945  21687453.9224                   21687452.0784
 -25730790.12948 -20035145.22346  20935894.4064                   20935892.1054
 -21901572.28946 -17052321.05944  24529351.8364                   24529353.3014
 -25649877.75448 -19973721.51647  20722267.9924                   20722265.9494
 -21401471.52747 -16661794.88744  23449483.9534                   23449483.6644
 -12609457.89847  -9813001.30145  22615007.8364                   22615008.5314
 -29992165.85948 -23357172.18046  21040692.1094                   21040687.6524
 11  8 29  0 37  0.0000000  0  8G10G12G17G29G05G04G25G02
 -24600248.45348 -19157277.86745  21696395.2344                   21696393.5904
 -25753927.63348 -20053174.45746  20931491.4224                   20931489.5044
 -21847716.77047 -17010355.73044  24539600.4534                   24539602.0984
   1431369.44956   1125267.78953  24784761.9844                   24784762.0554
 -25710054.72748 -20020612.61747  20710816.5864                   20710814.6884
 -21337428.52046 -16611891.27744  23461670.9534                   23461670.4144
 -12693376.98847  -9878392.75845  22599038.4844                   22599039.1764
 -29986711.27048 -23352921.86346  21041729.7974                   21041725.6024
 11  8 29  0 37 30.0000000  0  8G10G12G17G29G05G04G25G02
 -24552717.44947 -19120240.75045  21705440.0004                   21705438.0744
 -25776436.25048 -20070713.64146  20927208.2814                   20927205.7774
 -21793622.54347 -16968204.38344  24549893.9614                   24549895.3834
   1334153.07846   1049514.80543  24766262.3754                   24766261.6564
 -25769642.57848 -20067044.66847  20699477.4384                   20699475.4614
 -21273359.98846 -16561967.80544  23473862.7584                   23473862.1334
 -12776805.64847  -9943402.05945  22583162.2504                   22583163.0704
 -29981050.18748 -23348510.64146  21042806.9614                   21042802.9844
 11  8 29  0 38  0.0000000  0  8G10G12G17G29G05G04G25G02
 -24504649.78148 -19082785.43745  21714587.1024                   21714585.1174
 -25798319.77348 -20087765.73846  20923043.9144                   20923041.4454
 -21739293.72347 -16925870.24244  24560232.2974                   24560233.7274
   1236898.95746    973732.39143  24747755.6884                   24747755.5514
 -25828643.50048 -20113019.36347  20688250.1174                   20688248.2074
 -21209270.28946 -16512027.83644  23486058.7274                   23486058.9454
 -12859745.48047 -10008030.45345  22567379.3524                   22567380.1954
 -29975187.43748 -23343942.26246  21043922.6254                   21043918.8404
 11  8 29  0 38 30.0000000  0  8G10G12G17G29G05G04G25G02
 -24456048.53948 -19044914.35545  21723835.7034                   21723833.9144
 -25819578.52348 -20104331.00046  20918998.5004                   20918995.9414
 -21684731.09847 -16883353.91844  24570615.4924                   24570617.4144
   1139607.05946    897920.52343  24729241.8444                   24729241.6884
 -25887057.36348 -20158536.61347  20677134.1884                   20677132.2034
 -21145161.16446 -16462072.74244  23498258.4774                   23498258.0634
 -12942194.80547 -10072276.64145  22551689.8134                   22551690.3794
 -29969124.79748 -23339218.13746  21045076.6484                   21045072.2344
 11  8 29  0 39  0.0000000  0  8G10G12G17G29G05G04G25G02
 -24406914.21948 -19006627.88345  21733185.6174                   21733183.9694
 -25840210.30148 -20120407.71147  20915072.3054                   20915070.3284
 -21629932.73847 -16840653.89844  24581043.5004                   24581045.0944
   1042280.05946    822081.32443  24710720.8444                   24710720.8874
 -25944880.96948 -20203593.92247  20666130.4064                   20666128.9184
 -21081031.58647 -16412101.68444  23510462.0084                   23510461.8134
 -13024149.62947 -10136137.50845  22536094.3284                   22536094.7544
 -29962861.41048 -23334337.57446  21046268.5234                   21046264.6024
 11  8 29  0 39 30.0000000  0  8G10G12G17G29G05G04G25G02
 -24357246.99248 -18967926.16045  21742637.2504                   21742635.5904
 -25860212.45348 -20135993.80946  20911266.0234                   20911263.5434
 -21574896.66046 -16797768.66043  24591516.4144                   24591518.1724
    944920.86747    746217.02344  24692193.6414                   24692193.8324
 -26002110.83248 -20248188.57447  20655239.9304                   20655238.0314
 -21016880.34446 -16362113.75844  23522668.8674                   23522669.4304
 -13105605.47747 -10199609.55945  22520593.8984                   22520594.2194
 -29956395.60548 -23329299.27746  21047499.0314                   21047494.6214
 11  8 29  0 40  0.0000000  0  8G10G12G17G29G05G04G25G02
 -24307048.07048 -18928810.13345  21752189.4384                   21752188.0274
 -25879584.02348 -20151088.54346  20907579.9454                   20907577.4534
 -21519621.57446 -16754697.19143  24602035.0554                   24602036.4844
    847531.02347    670328.84044  24673661.7814                   24673661.5594
 -26058744.85548 -20292318.93747  20644462.8524                   20644460.8244
 -20952706.95746 -16312108.59844  23534881.0004                   23534881.0434
 -13186559.07047 -10262690.24245  22505189.0164                   22505189.7034
 -29949727.54748 -23324103.37546  21048767.9534                   21048763.6134
 11  8 29  0 40 30.0000000  0  8G10G12G17G29G05G04G25G02
 -24256319.59848 -18889281.46945  21761842.9614                   21761841.4694
 -25898323.83248 -20165690.99247  20904013.8204                   20904011.9184
 -21464107.40646 -16711439.39143  24612598.6564                   24612600.3794
    750111.81347    594417.80944  24655123.5394                   24655123.2074
 -26114781.19148 -20335983.56647  20633799.4774                   20633797.4224
 -20888511.67246 -16262086.34444  23547096.9844                   23547097.2664
 -13267007.62147 -10325377.37145  22489879.9304                   22489880.6844
 -29942857.50448 -23318750.09446  21050074.7274                   21050070.7114
 11  8 29  0 41  0.0000000  0  8G10G12G17G29G05G04G25G02
 -24205063.10247 -18849341.35245  21771597.0234                   21771595.6414
 -25916431.34448 -20179800.74246  20900568.2114                   20900565.6054
 -21408353.50046 -16667994.82443  24623208.2034                   24623210.6374
    652664.46946    518484.85244  24636579.6174                   24636579.3324
 -26170217.88348 -20379180.94947  20623250.2274                   20623248.0944
 -20824294.68047 -16212047.18744  23559317.8754                   23559317.3324
 -13346948.33647 -10387668.81245  22474667.8754                   22474668.5824
 -29935786.14548 -23313239.92646  21051420.5474                   21051416.3164
 11  8 29  0 41 30.0000000  0  7G10G12G29G05G04G25G02
 -24153280.46148 -18808991.26645  21781450.7194                   21781448.8054
 -25933905.19148 -20193416.73446  20897242.8444                   20897240.7424
    555191.11746    442531.64844  24618030.8284                   24618031.0354
 -26225052.64148 -20421909.28947  20612815.3054                   20612813.4774
 -20760055.62546 -16161990.83644  23571542.2734                   23571542.0204
 -13426377.78147 -10449561.85545  22459553.1254                   22459553.3444
 -29928512.90248 -23307572.45346  21052804.7894                   21052800.5474
 11  8 29  0 42  0.0000000  0  7G10G12G29G05G04G25G02
 -24100973.35247 -18768232.49645  21791404.4064                   21791402.4964
 -25950744.64548 -20206538.38746  20894038.6644                   20894036.4064
    457692.89846    366559.05544  24599477.8524                   24599477.7384
 -26279284.07048 -20464167.51247  20602495.3984                   20602493.4024
 -20695794.68047 -16111917.44944  23583770.2814                   23583770.2154
 -13505293.35547 -10511054.46545  22444535.5704                   22444536.3444
 -29921038.37948 -23301748.14846  21054227.3284                   21054222.4964
 11  8 29  0 42 30.0000000  0  7G10G12G29G05G04G25G02
 -24048141.46548 -18727064.79745  21801458.0234                   21801456.6994
 -25966947.07448 -20219163.66046  20890955.3834                   20890952.9414
    360172.83646    290569.48044  24580920.5944                   24580919.6294
 -26332908.35248 -20505952.62147  20592290.9694                   20592288.9654
 -20631510.08647 -16061825.61344  23596003.2664                   23596003.3484
 -13583690.23847 -10572142.90245  22429616.9844                   22429617.4844
 -29913361.06648 -23295765.81646  21055688.0314                   21055683.9844
 11  8 29  0 43  0.0000000  0  7G10G12G29G05G04G25G02
 -23994783.19948 -18685486.94545  21811611.3754                   21811610.0514
 -25982507.69548 -20231288.83646  20887994.2664                   20887991.8134
    262636.16046    214566.96544  24562359.2504                   24562359.3674
 -26385920.21148 -20547260.52047  20582203.3914                   20582201.0164
 -20567198.31647 -16011712.60544  23608240.5314                   23608241.6134
 -13661562.02747 -10632822.17645  22414798.7274                   22414798.7704
 -29905477.15248 -23289622.48446  21057188.2424                   21057184.0394
 11  8 29  0 43 30.0000000  0  7G10G12G29G05G04G25G02
 -23940900.07048 -18643500.10945  21821865.1564                   21821863.9654
 -25997425.62948 -20242913.20746  20885155.2894                   20885152.9024
    165084.77346    138553.01643  24543795.1804                   24543795.4884
 -26438317.39848 -20588089.44947  20572232.3754                   20572229.9694
 -20502858.93047 -15961578.09844  23620485.1954                   23620485.2114
 -13738905.56647 -10693089.82846  22400080.6644                   22400081.3204
 -29897386.75048 -23283318.25046  21058728.0004                   21058723.5514
 11  8 29  0 44  0.0000000  0  7G10G12G29G05G04G25G02
 -23886495.27748 -18601106.77045  21832218.4224                   21832216.6334
 -26011701.69548 -20254037.42646  20882438.7424                   20882436.3554
     67518.45746     62527.38343  24525230.2274                   24525228.9144
 -26490099.62548 -20628439.19547  20562378.4454                   20562376.0354
 -20438493.25847 -15911423.07444  23632733.1484                   23632733.0434
 -13815719.29747 -10752944.65246  22385463.4844                   22385464.0864
 -29889091.50848 -23276854.40646  21060306.5634                   21060302.5824
 11  8 29  0 44 30.0000000  0  7G10G12G29G05G04G25G02
 -23831573.08648 -18558310.26645  21842669.2114                   21842667.9614
 -26025337.64548 -20264662.85246  20879843.9304                   20879841.7584
    -30063.62946    -13510.52343  24506660.0234                   24506659.7854
 -26541267.81648 -20668310.46147  20552641.6174                   20552639.7114
 -20374104.24647 -15861249.88344  23644985.8204                   23644986.3714
 -13892003.10947 -10812386.55146  22370947.0944                   22370947.6054
 -29880594.10248 -23270233.03946  21061923.4384                   21061919.0514
 11  8 29  0 45  0.0000000  0  7G10G12G29G05G04G25G02
 -23776136.43748 -18515112.88745  21853218.5864                   21853217.7464
 -26038333.69148 -20274789.65646  20877371.1024                   20877368.6134
   -127661.17646    -89560.47743  24488087.7974                   24488087.3204
 -26591821.39848 -20707702.82047  20543021.2034                   20543019.4614
 -20309692.83647 -15811059.23044  23657243.2504                   23657243.5084
 -13967755.27047 -10871414.16846  22356531.4924                   22356533.0434
 -29871895.87948 -23263455.19146  21063578.4844                   21063574.3984
 11  8 29  0 45 30.0000000  0  7G10G12G29G05G04G25G02
 -23720188.74648 -18471517.28945  21863865.3284                   21863863.6764
 -26050690.62148 -20284418.44546  20875019.5164                   20875016.9774
   -225273.95746   -165622.27043  24469513.1024                   24469512.4224
 -26641759.99248 -20746615.96947  20533518.5314                   20533516.2974
 -20245259.96947 -15760851.89144  23669504.4534                   23669504.7034
 -14042974.25447 -10930026.34445  22342218.2974                   22342218.2814
 -29862998.34448 -23256522.04346  21065271.7274                   21065267.5204
 11  8 29  0 46  0.0000000  0  7G10G12G29G05G04G25G02
 -23663731.66047 -18427524.76245  21874608.6884                   21874607.4804
 -26062407.84448 -20293548.75446  20872789.6564                   20872787.3874
   -322900.82846   -241695.09043  24450935.0784                   24450934.2774
 -26691082.01648 -20785048.66847  20524132.7734                   20524130.5664
 -20180806.13346 -15710628.19944  23681769.2194                   23681769.7934
 -14117657.47747 -10988221.05145  22328006.4384                   22328006.6764
 -29853901.71548 -23249433.75446  21067003.0634                   21066998.8914
 11  8 29  0 46 30.0000000  0  7G10G12G29G05G04G25G02
 -23606768.46548 -18383137.85545  21885448.4224                   21885446.8484
 -26073485.97748 -20302181.09046  20870681.9304                   20870679.2424
   -420541.19946   -317778.38743  24432354.6094                   24432353.9264
 -26739786.98048 -20823000.54747  20514864.3524                   20514862.3284
 -20116332.21947 -15660388.85543  23694038.8674                   23694039.0354
 -14191803.36347 -11045997.06246  22313896.5784                   22313897.2464
 -29844607.37148 -23242191.39546  21068771.4224                   21068767.3094
 11  8 29  0 47  0.0000000  0  7G10G12G29G05G04G25G02
 -23549302.10947 -18338358.86745  21896383.7664                   21896381.8794
 -26083925.30548 -20310315.64546  20868694.8134                   20868692.7504
   -518194.78146   -393871.99243  24413771.2424                   24413770.4804
 -26787874.43048 -20860471.24247  20505713.5084                   20505711.8594
 -20051839.68747 -15610135.01644  23706311.2664                   23706311.2774
 -14265410.31647 -11103353.13346  22299890.0164                   22299890.4804
 -29835116.69948 -23234796.06646  21070577.1414                   21070573.5234
 11  8 29  0 47 30.0000000  0  7G10G12G29G05G04G25G02
 -23491335.26647 -18293189.91045  21907414.6094                   21907413.3054
 -26093726.35948 -20317952.84846  20866830.0164                   20866827.9144
   -615861.11346   -469975.50043  24395186.0944                   24395185.7504
 -26835344.17248 -20897460.60947  20496680.4774                   20496678.6724
 -19987329.05147 -15559867.05544  23718587.2974                   23718587.5824
 -14338476.52348 -11160287.83245  22285985.7114                   22285986.5514
 -29825430.71548 -23227248.54746  21072420.3204                   21072416.1254
 11  8 29  0 48  0.0000000  0  7G10G12G29G05G04G25G02
 -23432870.82448 -18247633.20745  21918540.2114                   21918538.6334
 -26102889.27048 -20325092.78946  20865086.3134                   20865083.6294
   -713539.15646   -546088.19943  24376599.0314                   24376598.3714
 -26882194.95348 -20933967.66847  20487765.0084                   20487762.8714
 -19922801.14847 -15509585.63344  23730866.3914                   23730866.8674
 -14410999.97748 -11216799.60945  22272184.9224                   22272185.7114
 -29815550.24248 -23219549.47346  21074300.8054                   21074296.7464
 11  8 29  0 48 30.0000000  0  7G10G12G29G05G04G25G02
 -23373911.94948 -18201691.23045  21929759.3444                   21929758.0664
 -26111414.94548 -20331736.19146  20863463.9454                   20863461.6564
   -811228.86746   -622209.98444  24358008.9304                   24358008.7344
 -26928426.83648 -20969992.46947  20478967.3444                   20478965.2584
 -19858257.02347 -15459291.57444  23743148.8284                   23743149.1994
 -14482979.38747 -11272887.46546  22258487.9694                   22258488.4844
 -29805476.77048 -23211700.01246  21076217.8134                   21076213.4384
 11  8 29  0 49  0.0000000  0  7G10G12G29G05G04G25G02
 -23314460.88348 -18155365.73845  21941072.5004                   21941071.1764
 -26119303.14148 -20337882.84846  20861963.2974                   20861960.5554
   -908928.73446   -698339.68444  24339417.4144                   24339416.7194
 -26974038.39848 -21005533.90647  20470287.5944                   20470285.6914
 -19793696.99247 -15408985.13344  23755434.8204                   23755434.5234
 -14554412.21548 -11328549.41845  22244894.7584                   22244894.7894
 -29795210.66048 -23203700.44546  21078171.1884                   21078167.0394
 11  8 29  0 49 30.0000000  0  7G10G12G29G05G04G25G02
 -23254520.74248 -18108659.14145  21952478.7734                   21952477.4224
 -26126554.61748 -20343533.37146  20860583.2504                   20860580.7624
  -1006638.48046   -774477.09044  24320823.6254                   24320822.9534
 -27019029.09448 -21040591.55547  20461726.2974                   20461724.1954
 -19729122.10247 -15358667.09444  23767722.6484                   23767722.7664
 -14625297.04748 -11383784.35946  22231405.9224                   22231406.4534
 -29784753.28948 -23195551.84446  21080161.1804                   21080157.1994
 11  8 29  0 50  0.0000000  0  7G10G12G29G05G04G25G02
 -23194094.78548 -18061573.98845  21963977.3524                   21963975.9964
 -26133170.26648 -20348688.43046  20859324.1024                   20859322.1724
  -1104357.95746   -850622.08644  24302228.3914                   24302227.1484
 -27063399.19548 -21075165.62547  20453282.9534                   20453280.4384
 -19664533.73447 -15308338.54744  23780013.4384                   23780013.9884
 -14695632.65648 -11438591.33646  22218021.6174                   22218021.8794
 -29774106.33248 -23187255.50846  21082187.2504                   21082183.0744
 11  8 29  0 50 30.0000000  0  7G10G12G29G05G04G25G02
 -23133186.06248 -18014112.65245  21975567.6954                   21975566.2034
 -26139150.58248 -20353348.42646  20858186.3834                   20858184.0314
  -1202086.72746   -926774.32844  24283631.0634                   24283629.9614
 -27107148.58648 -21109256.02047  20444957.5944                   20444955.5434
 -19599932.87547 -15258000.26644  23792306.5314                   23792306.9574
 -14765417.53548 -11492969.17646  22204741.9064                   22204742.1884
 -29763270.87148 -23178812.29346  21084249.0004                   21084244.7194
 11  8 29  0 51  0.0000000  0  7G10G12G29G05G04G25G02
 -23071797.46947 -17966277.39545  21987249.7034                   21987248.5984
 -26144496.51648 -20357514.09846  20857168.9224                   20857166.6334
  -1299824.11346  -1002933.31244  24265032.3834                   24265031.5594
 -27150276.88348 -21142862.45347  20436750.3834                   20436748.2194
 -19535320.33247 -15207652.89844  23804602.3054                   23804602.8444
 -14834650.12548 -11546916.65646  22191567.2114                   22191567.7154
 -29752247.97748 -23170223.02046  21086346.6564                   21086342.3874
 11  8 29  0 51 30.0000000  0  7G10G12G29G05G04G25G02
 -23009932.28147 -17918070.77745  21999022.6644                   21999021.2774
 -26149208.41048 -20361185.71146  20856272.2424                   20856270.1954
  -1397569.51246  -1079098.51244  24246431.5314                   24246431.1024
 -27192783.48048 -21175984.43447  20428661.4844                   20428659.4104
 -19470696.89547 -15157296.99243  23816899.6024                   23816899.8324
 -14903328.82048 -11600432.53546  22178498.1334                   22178498.7774
 -29741038.73848 -23161488.54346  21088479.7974                   21088475.5944
 11  8 29  0 52  0.0000000  0  7G10G12G29G05G04G25G02
 -22947592.96547 -17869494.69145  22010885.5084                   22010884.2894
 -26153286.96148 -20364363.81646  20855496.3054                   20855493.7734
  -1495322.45346  -1155269.58244  24227830.0944                   24227829.4304
 -27234668.05148 -21208621.73447  20420691.4064                   20420689.4184
 -19406063.42647 -15106933.31643  23829198.5314                   23829198.8364
 -14971451.97348 -11653515.52746  22165534.7274                   22165535.3714
 -29729644.18748 -23152609.68046  21090648.1954                   21090643.6994
 11  8 29  0 52 30.0000000  0  7G10G12G29G05G04G25G02
 -22884783.33647 -17820552.14845  22022837.8364                   22022836.1254
 -26156733.19548 -20367049.20346  20854839.9774                   20854838.1804
  -1593082.66046  -1231446.31644  24209227.0314                   24209225.9884
 -27275930.94148 -21240774.60247  20412839.1724                   20412837.5944
 -19341421.52347 -15056563.05144  23841500.1484                   23841500.2854
 -15039018.52348 -11706164.80146  22152677.4534                   22152677.5274
 -29718066.14548 -23143587.81246  21092851.3674                   21092846.7774
 11  8 29  0 53  0.0000000  0  7G10G12G29G05G04G25G02
 -22821506.02747 -17771245.16845  22034878.7274                   22034877.6094
 -26159547.77748 -20369242.38746  20854304.4694                   20854302.4264
  -1690849.18746  -1307627.95744  24190622.2894                   24190622.0314
 -27316571.37548 -21272442.43747  20405105.5394                   20405103.6214
 -19276771.34847 -15006186.34444  23853803.0234                   23853802.8054
 -15106026.65248 -11758378.94946  22139926.3444                   22139926.3554
 -29706305.22748 -23134423.45746  21095089.2974                   21095085.2234
 11  8 29  0 53 30.0000000  0  7G10G12G29G05G04G25G02
 -22757764.52048 -17721576.48845  22047008.6724                   22047007.4734
 -26161732.13748 -20370944.48846  20853889.0164                   20853886.6294
  -1788621.73446  -1383814.30944  24172016.6564                   24172016.7814
 -27356589.53548 -21303625.38347  20397490.5784                   20397488.2544
 -19212114.36747 -14955804.29743  23866106.7734                   23866107.0864
 -15172475.31248 -11810157.14846  22127281.2584                   22127281.7344
 -29694363.06648 -23125117.87546  21097361.8674                   21097357.9264
 11  8 29  0 54  0.0000000  0  7G10G12G29G05G04G25G02
 -22693561.37547 -17671548.08245  22059226.3284                   22059224.8834
 -26163285.91848 -20372155.22346  20853593.3754                   20853591.3794
  -1886399.22746  -1460004.47344  24153410.6564                   24153409.4494
 -27395984.75448 -21334322.92247  20389993.9144                   20389991.8244
 -19147450.98046 -14905417.25444  23878411.4774                   23878411.3714
 -15238362.51248 -11861497.82846  22114743.1884                   22114743.5984
 -29682240.37948 -23115671.63346  21099668.7894                   21099664.8594
 11  8 29  0 54 30.0000000  0  7G10G12G29G05G04G25G02
 -22628900.50847 -17621163.02045  22071530.4534                   22071529.2464
 -26164211.56648 -20372876.51646  20853417.0314                   20853414.7734
  -1984182.12946  -1536198.87544  24134803.5164                   24134802.4534
 -27434757.88348 -21364535.71947  20382615.5004                   20382613.4264
 -19082782.80546 -14855026.50444  23890717.2424                   23890717.5634
 -15303687.75048 -11912400.61346  22102312.3284                   22102313.0864
 -29669939.10548 -23106086.23046  21102009.6484                   21102005.4344
 11  8 29  0 55  0.0000000  0  7G10G12G29G05G04G25G02
 -22563785.20347 -17570423.84845  22083921.7114                   22083920.0164
 -26164509.93748 -20373109.01246  20853360.7664                   20853358.5664
  -2081969.86346  -1612397.06644  24116194.8444                   24116193.7814
 -27472908.82848 -21394263.68747  20375355.2814                   20375353.1484
 -19018110.87546 -14804632.80543  23903024.1564                   23903024.7114
 -15368449.68748 -11962864.47346  22089988.6334                   22089989.2624
 -29657460.05548 -23096362.28946  21104384.6334                   21104380.3324
 11  8 29  0 55 30.0000000  0  7G10G12G29G05G04G25G02
 -22498218.43047 -17519332.87145  22096399.0704                   22096397.6764
 -26164181.14548 -20372852.80546  20853423.3134                   20853420.7034
  -2179761.44146  -1688598.25844  24097585.5084                   24097584.1374
 -27510437.31648 -21423506.62947  20368213.8594                   20368212.0744
 -18953435.95747 -14754236.80944  23915331.4614                   23915331.8014
 -15432646.83248 -12012888.21546  22077772.3524                   22077772.9774
 -29644804.52348 -23086500.84446  21106792.5634                   21106788.3444
 11  8 29  0 56  0.0000000  0  7G10G12G29G05G04G25G02
 -22432202.44547 -17467891.86745  22108961.1414                   22108959.8874
 -26163225.74648 -20372108.34446  20853604.8134                   20853602.5124
  -2277555.41846  -1764801.31244  24078975.7734                   24078974.6294
 -27547342.62948 -21452263.98847  20361191.0554                   20361189.1334
 -18888758.03546 -14703838.43044  23927639.1644                   23927639.9024
 -15496277.10948 -12062470.25846  22065663.9774                   22065664.4024
 -29631972.99648 -23076502.25846  21109234.4614                   21109230.4104
 11  8 29  0 56 30.0000000  0  7G10G12G29G05G04G25G02
 -22365739.88347 -17416102.88345  22121608.3204                   22121607.2464
 -26161644.46948 -20370876.19146  20853905.7894                   20853903.5394
  -2375351.21146  -1841005.79343  24060365.9304                   24060364.0744
 -27583624.35948 -21480535.43047  20354286.6174                   20354284.7814
 -18824077.81246 -14653438.29743  23939947.2114                   23939947.4454
 -15559338.89848 -12111609.31246  22053663.8984                   22053664.3014
 -29618966.25848 -23066367.14846  21111709.4144                   21111705.4264
 11  8 29  0 57  0.0000000  0  7G10G12G29G05G04G25G02
 -22298833.69547 -17363968.21945  22134340.2424                   22134338.9064
 -26159438.18048 -20369157.00846  20854325.6254                   20854323.8284
  -2473147.58247  -1917210.73444  24041755.4924                   24041754.4534
 -27619282.18048 -21508320.71947  20347501.3524                   20347499.1174
 -18759395.82846 -14603036.79343  23952255.4694                   23952256.3164
 -15621830.65648 -12160304.17646  22041771.7734                   22041772.5204
 -29605785.10548 -23056096.11346  21114217.8444                   21114213.5594
 11  8 29  0 57 30.0000000  0  7G10G12G29G05G04G25G02
 -22231488.23047 -17311491.25445  22147155.4924                   22147154.4734
 -26156608.91848 -20366952.39846  20854864.0474                   20854862.0434
  -2570945.15647  -1993416.59444  24023145.4384                   24023144.5514
 -27654317.20348 -21535620.71147  20340834.7504                   20340832.5704
 -18694713.79746 -14552635.24243  23964564.4144                   23964565.2074
 -15683751.98848 -12208554.55946  22029988.5784                   22029988.7894
 -29592431.57048 -23045690.76646  21116758.7034                   21116754.8364
 11  8 29  0 58  0.0000000  0  7G10G12G29G05G04G25G02
 -22163706.61747 -17258674.43045  22160053.9774                   22160053.1414
 -26153157.40648 -20364262.92647  20855521.1484                   20855518.3524
  -2668742.85547  -2069622.54744  24004535.1024                   24004534.2854
 -27688729.71548 -21562435.61347  20334286.1254                   20334283.7624
 -18630032.73446 -14502234.43043  23976872.3984                   23976873.4264
 -15745101.73448 -12256359.54346  22018314.2734                   22018314.4694
 -29578906.89548 -23035152.05546  21119332.7034                   21119328.7584
 11  8 29  0 58 30.0000000  0  7G10G12G29G05G04G25G02
 -22095491.33647 -17205519.68745  22173034.8914                   22173033.9694
 -26149084.13348 -20361088.95746  20856295.6254                   20856293.5864
  -2766540.34047  -2145828.36744  23985925.1414                   23985924.1334
 -27722518.99648 -21588764.88747  20327855.9844                   20327854.1294
 -18565352.91446 -14451834.57044  23989181.0634                   23989181.6564
 -15805878.21948 -12303717.82046  22006748.9924                   22006749.4384
 -29565211.70748 -23024480.48046  21121938.6414                   21121934.7234
 11  8 29  0 59  0.0000000  0  7G10G12G29G05G04G25G02
 -22026846.81647 -17152030.46945  22186097.5864                   22186096.5234
 -26144391.89148 -20357432.67246  20857188.7034                   20857186.4964
  -2864337.49647  -2222033.93044  23967314.8364                   23967313.8874
 -27755686.20348 -21614609.42647  20321544.8054                   20321542.4224
 -18500676.33646 -14401437.26644  24001488.2194                   24001488.9264
 -15866081.30548 -12350629.30546  21995292.5164                   21995292.5234
 -29551348.33248 -23013677.85546  21124576.5634                   21124572.4224
 11  8 29  0 59 30.0000000  0  7G10G12G29G05G04G25G02
 -21957776.03147 -17098209.10245  22199241.4774                   22199239.9184
 -26139081.81648 -20353294.96146  20858199.1414                   20858196.9454
  -2962133.71147  -2298238.76644  23948704.7734                   23948703.8594
 -27788231.58248 -21639969.41847  20315351.3834                   20315349.5234
 -18436003.45346 -14351042.84443  24013795.3204                   24013795.9844
 -15925709.59448 -12397092.88346  21983945.4614                   21983946.2194
 -29537317.27348 -23002744.57446  21127246.6174                   21127242.3874
 11  8 29  1  0  0.0000000  0  7G10G12G29G05G04G25G02
 -21888282.11347 -17044058.00845  22212465.8054                   22212464.9104
 -26133154.41448 -20348676.23046  20859327.5634                   20859325.3204
  -3059928.21947  -2374442.24644  23930095.0474                   23930094.3954
 -27820155.14848 -21664844.89847  20309276.4534                   20309274.4924
 -18371335.34446 -14300652.13743  24026101.2664                   24026101.7114
 -15984762.00448 -12443107.71946  21972708.2274                   21972708.6764
 -29523120.04748 -22991681.79346  21129948.4844                   21129944.4064
 11  8 29  1  0 30.0000000  0  7G10G12G29G05G04G25G02
 -21818367.93047 -16989579.45745  22225770.2584                   22225768.7154
 -26126610.68748 -20343577.24246  20860572.6334                   20860570.8594
  -3157719.44147  -2450643.21144  23911485.9224                   23911484.9844
 -27851456.37548 -21689235.42647  20303320.1804                   20303317.8674
 -18306672.04746 -14250265.21943  24038405.9384                   24038407.2424
 -16043236.70348 -12488672.40246  21961581.0394                   21961581.5354
 -29508756.96148 -22980489.78146  21132681.7814                   21132677.4654
 11  8 29  1  1  0.0000000  0  7G10G12G29G05G04G25G02
 -21748036.62947 -16934775.85545  22239153.6484                   22239152.0864
 -26119452.16048 -20337999.18046  20861935.1334                   20861932.9654
  -3255507.34447  -2526841.55944  23892877.4924                   23892876.6214
 -27882135.83248 -21713141.46547  20297481.5704                   20297479.5704
 -18242014.52746 -14199882.77043  24050711.2424                   24050711.3634
 -16101132.91048 -12533786.30946  21950563.0864                   21950564.1414
 -29494229.49248 -22969169.66846  21135446.0944                   21135441.7544
 11  8 29  1  1 30.0000000  0  7G10G12G29G05G04G25G02
 -21677290.81647 -16879649.27045  22252616.0784                   22252614.5944
 -26111679.25048 -20331942.39546  20863414.1024                   20863411.8094
  -3353290.42647  -2603036.14844  23874270.3444                   23874269.4144
 -27912193.30148 -21736562.83647  20291762.1804                   20291759.9104
 -18177362.96546 -14149504.93443  24063013.6804                   24063013.7774
 -16158448.73048 -12578447.97346  21939656.8984                   21939657.2384
 -29479537.57048 -22957721.41846  21138241.8984                   21138237.7384
 11  8 29  1  2  0.0000000  0  7G10G12G29G05G04G25G02
 -21606136.32047 -16824204.22345  22266156.4694                   22266154.9734
 -26103295.77048 -20325409.81646  20865009.2664                   20865007.0164
  -3451070.41847  -2679228.35244  23855662.4844                   23855661.8404
 -27941631.35548 -21759501.54347  20286160.4064                   20286157.6884
 -18112720.78146 -14099134.43043  24075314.6334                   24075314.5164
 -16215185.77348 -12622658.63746  21928859.9454                   21928860.7894
 -29464685.35248 -22946148.27346  21141068.2344                   21141064.2894
 11  8 29  1  2 30.0000000  0  7G10G12G29G05G04G25G02
 -21534574.34047 -16768441.65645  22279774.5314                   22279773.3594
 -26094301.32848 -20318401.17246  20866720.5394                   20866718.7974
  -3548844.70747  -2755416.05144  23837056.7584                   23837056.2934
 -27970448.91448 -21781956.75047  20280676.4064                   20280674.1254
 -18048086.89546 -14048770.39143  24087613.7344                   24087613.8794
 -16271341.14148 -12666416.03946  21918173.8364                   21918174.7934
 -29449672.17248 -22934449.70746  21143925.2034                   21143920.7464
 11  8 29  1  3  0.0000000  0  7G10G12G29G05G04G25G02
 -21462608.04747 -16712364.04745  22293469.0084                   22293467.8364
 -26084696.80548 -20310917.13346  20868548.2974                   20868546.0554
  -3646612.65247  -2831598.84444  23818453.0164                   23818451.9694
 -27998645.86348 -21803928.36347  20275310.4534                   20275308.0004
 -17983461.83246 -13998413.21943  24099911.2424                   24099911.1914
 -16326913.65647 -12709719.27746  21907598.9064                   21907599.2504
 -29434498.57848 -22922626.11746  21146812.6334                   21146808.3404
 11  8 29  1  3 30.0000000  0  7G10G12G29G05G04G25G02
 -21390241.23447 -16655974.35245  22307240.0084                   22307238.9694
 -26074484.52048 -20302959.51246  20870491.7034                   20870489.8134
  -3744373.96947  -2907776.47344  23799848.7664                   23799848.2974
 -28026223.06648 -21825417.06247  20270062.6954                   20270060.5124
 -17918847.19946 -13948064.14843  24112207.1174                   24112207.9574
 -16381902.90248 -12752568.01646  21897134.9064                   21897135.3834
 -29419166.30548 -22910678.88746  21149729.7584                   21149725.6804
 11  8 29  1  4  0.0000000  0  7G10G12G29G05G04G25G02
 -21317476.34847 -16599274.45345  22321086.5634                   22321085.7074
 -26063664.82848 -20294528.59446  20872550.7894                   20872548.6054
  -3842126.65247  -2983947.35944  23781247.7664                   23781246.9224
 -28053179.74648 -21846422.24647  20264932.6254                   20264930.7854
 -17854242.47746 -13897722.85543  24124501.1174                   24124501.8244
 -16436306.89148 -12794960.71146  21886781.7664                   21886782.3054
 -29403675.41848 -22898608.05946  21152677.8674                   21152673.8364
 11  8 29  1  4 30.0000000  0  7G10G12G29G05G04G25G02
 -21244317.03147 -16542267.20745  22335008.2664                   22335007.1414
 -26052239.53548 -20285625.77746  20874724.9224                   20874722.7624
  -3939870.97747  -3060111.71144  23762647.0944                   23762646.5784
 -28079516.94148 -21866944.69947  20259921.3364                   20259918.7974
 -17789648.89846 -13847390.20743  24136791.8984                   24136793.7934
 -16490125.16048 -12836897.02046  21876540.7504                   21876541.2234
 -29388027.54748 -22886414.91446  21155655.7114                   21155651.6884
 11  8 29  1  5  0.0000000  0  8G10G12G26G29G05G04G25G02
 -21170766.62547 -16484955.23445  22349004.7584                   22349003.8054
 -26040210.07448 -20276252.17646  20877014.1724                   20877011.7814
   1418711.81356   1116204.66053  24815302.4064                   24815304.2974
  -4037605.51247  -3136268.45344  23744049.0234                   23744047.9734
 -28105235.42248 -21886985.05147  20255027.2344                   20255025.3634
 -17725067.39546 -13797066.99643  24149081.7584                   24149083.1644
 -16543356.78548 -12878376.19146  21866411.0944                   21866411.2114
 -29372223.71548 -22874100.22346  21158662.9064                   21158659.0164
 11  8 29  1  5 30.0000000  0  8G10G12G26G29G05G04G25G02
 -21096832.07447 -16427343.90645  22363073.4614                   22363073.2274
 -26027581.62148 -20266411.83646  20879417.1564                   20879415.1454
   1312923.60946   1033772.50843  24795171.2344                   24795174.0824
  -4135333.71947  -3212420.26644  23725451.4304                   23725450.9734
 -28130339.03148 -21906546.27747  20250250.1804                   20250248.0314
 -17660502.46546 -13746756.68043  24161368.8444                   24161369.0864
 -16596004.69148 -12919400.53146  21856392.3674                   21856393.2974
 -29356268.58648 -22861667.65246  21161699.1804                   21161694.9494
 11  8 29  1  6  0.0000000  0  8G10G12G26G29G05G04G25G02
 -21022518.37547 -16369437.16445  22377215.7344                   22377214.0664
 -26014357.57048 -20256107.39846  20881933.6724                   20881931.0984
   1207031.66846    951259.46543  24775019.6334                   24775022.4614
  -4233056.73847  -3288568.05944  23706856.2114                   23706854.7544
 -28154830.34048 -21925630.39547  20245589.7274                   20245587.3634
 -17595956.61346 -13696461.20743  24173651.5164                   24173652.4614
 -16648069.77348 -12959970.71946  21846484.6884                   21846485.5084
 -29340165.19548 -22849119.53146  21164763.8914                   21164759.4304
 11  8 29  1  6 30.0000000  0  8G10G12G26G29G05G04G25G02
 -20947830.12147 -16311238.55145  22391427.6724                   22391427.0004
 -26000540.96148 -20245341.22346  20884562.7734                   20884560.5234
   1101036.64546    868666.12943  24754849.9844                   24754852.3634
  -4330775.07047  -3364712.15644  23688260.6254                   23688258.9774
 -28178711.26648 -21944238.87147  20241045.1954                   20241043.1844
 -17531431.89846 -13646182.23843  24185929.5314                   24185930.6884
 -16699552.54348 -13000087.16846  21836687.7424                   21836688.1054
 -29323915.79347 -22836457.65646  21167855.4454                   21167851.5474
 11  8 29  1  7  0.0000000  0  8G10G12G26G29G05G04G25G02
 -20872770.05147 -16252750.19945  22405711.0474                   22405710.2814
 -25986132.55948 -20234113.89846  20887304.7584                   20887302.4454
    994941.89146    785995.08243  24734660.6724                   24734663.1804
  -4428486.80947  -3440851.13344  23669666.4774                   23669665.7774
 -28201981.46948 -21962371.47747  20236616.9694                   20236615.1174
 -17466928.32446 -13595919.67643  24198204.4304                   24198204.6954
 -16750451.33248 -13039748.55946  21827002.2034                   21827002.5044
 -29307520.86748 -22823682.38346  21170975.1484                   21170971.3594
 11  8 29  1  7 30.0000000  0  8G10G12G26G29G05G04G25G02
 -20797339.96147 -16193973.52345  22420065.7584                   22420064.6334
 -25971132.39848 -20222425.46946  20890159.2584                   20890156.9344
    888751.23046    703249.32843  24714453.0784                   24714454.6094
  -4526190.16047  -3516983.56244  23651074.1414                   23651073.6254
 -28224640.43048 -21980027.77747  20232305.0554                   20232302.6564
 -17402445.32846 -13545673.18743  24210474.7814                   24210475.5474
 -16800764.14548 -13078953.33246  21817428.3054                   21817428.7774
 -29290979.96948 -22810793.36746  21174122.7424                   21174118.8554
 11  8 29  1  8  0.0000000  0  8G10G12G26G29G05G04G25G02
 -20721542.89147 -16134910.90244  22434489.2274                   22434488.0634
 -25955542.28948 -20210277.32846  20893125.7194                   20893123.5824
    782467.03946    620430.61343  24694228.3754                   24694229.4024
  -4623884.12547  -3593108.63344  23632483.1644                   23632482.8594
 -28246688.24648 -21997207.87147  20228109.3594                   20228107.0784
 -17337983.37146 -13495443.08243  24222742.3834                   24222742.7194
 -16850489.97748 -13117700.72346  21807965.6094                   21807966.2344
 -29274294.07447 -22797791.36746  21177298.4454                   21177294.3794
 11  8 29  1  8 30.0000000  0  8G10G12G26G29G05G04G25G02
 -20645380.54747 -16075563.64545  22448982.0004                   22448981.0274
 -25939362.32048 -20197669.56646  20896205.0394                   20896202.7934
    676093.45346    537542.29342  24673985.7504                   24673987.5944
  -4721566.17247  -3669224.41044  23613894.4774                   23613894.1914
 -28268124.21548 -22013911.19147  20224030.4774                   20224028.2704
 -17273541.63346 -13445228.75843  24235005.3444                   24235005.5904
 -16899626.60548 -13155989.00046  21798615.4224                   21798615.4494
 -29257462.67247 -22784675.98046  21180501.2734                   21180496.8714
 11  8 29  1  9  0.0000000  0  8G10G12G26G29G05G04G25G02
 -20568855.62147 -16015933.85544  22463544.6254                   22463543.3484
 -25922593.24648 -20184602.76246  20899395.7344                   20899393.5084
    569633.52046    454586.69143  24653726.5864                   24653727.5204
  -4819235.09847  -3745329.96544  23595309.7584                   23595308.0904
 -28288948.52748 -22030137.89547  20220067.4924                   20220065.6524
 -17209120.35146 -13395030.36443  24247262.9224                   24247264.8284
 -16948172.70748 -13193817.12946  21789377.1414                   21789377.3634
 -29240485.89848 -22771447.33246  21183732.2814                   21183727.8594
 11  8 29  1  9 30.0000000  0  8G10G12G26G29G05G04G25G02
 -20491971.57847 -15956024.22345  22478175.1644                   22478174.1054
 -25905237.15648 -20171078.55546  20902698.5554                   20902696.4574
    463089.60546    371565.65242  24633451.4614                   24633453.6134
  -4916890.20747  -3821424.78544  23576726.2274                   23576724.2424
 -28309161.87948 -22045888.52747  20216220.8834                   20216218.9104
 -17144720.22747 -13344848.46543  24259518.7894                   24259519.8054
 -16996127.62148 -13231184.58246  21780251.5554                   21780251.7584
 -29223364.93047 -22758106.31646  21186989.6884                   21186985.5314
 11  8 29  1 10  0.0000000  0  8G10G12G26G29G05G04G25G02
 -20414731.06247 -15895836.82445  22492873.7504                   22492872.8484
 -25887295.17648 -20157097.81246  20906112.9454                   20906110.7074
    356464.84046    288481.62542  24613161.1174                   24613162.9804
  -5014529.94147  -3897507.63344  23558146.2424                   23558145.0164
 -28328764.34048 -22061163.14547  20212490.6484                   20212488.8594
 -17080341.26246 -13294683.05943  24271770.0314                   24271770.5474
 -17043490.11348 -13268090.41846  21771238.9614                   21771239.2464
 -29206100.36347 -22744653.41046  21190275.3594                   21190271.0664
 11  8 29  1 10 30.0000000  0  8G10G12G26G29G05G04G25G02
 -20337137.78947 -15835374.56245  22507639.5084                   22507637.3524
 -25868769.09448 -20142661.92646  20909638.3914                   20909636.1564
    249761.47745    205336.31643  24592856.1564                   24592858.1254
  -5112153.79747  -3973578.12544  23539568.6564                   23539567.6564
 -28347756.97348 -22075962.56647  20208876.5474                   20208874.1844
 -17015984.57846 -13244535.01243  24284016.9694                   24284016.9064
 -17090259.67648 -13304534.23046  21762338.9844                   21762339.4384
 -29188693.31248 -22731089.47346  21193587.3134                   21193583.7274
 11  8 29  1 11  0.0000000  0  8G10G12G26G29G05G04G25G02
 -20259195.02347 -15774639.95745  22522471.2734                   22522469.6884
 -25849660.87148 -20127772.43046  20913274.2664                   20913272.5274
    142981.97746    122131.71143  24572536.7034                   24572538.4344
  -5209760.92247  -4049635.57844  23520994.9614                   23520993.6134
 -28366140.64148 -22090287.47347  20205378.2974                   20205376.3874
 -16951650.84846 -13194404.84043  24296258.3524                   24296259.4304
 -17136435.84848 -13340515.65646  21753551.9614                   21753552.1054
 -29171145.08248 -22717415.53146  21196927.1804                   21196922.9104
 11  8 29  1 11 30.0000000  0  8G10G12G26G29G05G04G25G02
 -20180905.31647 -15713635.01244  22537369.5704                   22537367.7854
 -25829971.46548 -20112430.05946  20917021.4844                   20917019.3094
     36129.33646     38870.10943  24552204.0394                   24552205.8834
  -5307349.72747  -4125678.72344  23502423.8444                   23502423.3524
 -28383915.39148 -22104137.89847  20201995.7274                   20201993.4184
 -16887339.90246 -13144292.46543  24308496.3674                   24308497.3954
 -17182017.28548 -13376033.63746  21744878.0704                   21744878.2074
 -29153455.71547 -22703631.60546  21200292.9064                   21200288.8794
 11  8 29  1 12  0.0000000  0  8G10G12G26G29G05G04G25G02
 -20102272.27747 -15652362.52345  22552333.0004                   22552331.4414
 -25809702.93448 -20096636.41046  20920878.2114                   20920875.8524
    -70794.09846    -44446.65243  24531856.8284                   24531858.3674
  -5404919.38347  -4201706.96545  23483857.3364                   23483856.1024
 -28401082.28548 -22117514.66847  20198729.1024                   20198726.8284
 -16823052.77046 -13094198.62143  24320730.3054                   24320730.7274
 -17227003.69948 -13411087.98046  21736317.2734                   21736317.6374
 -29135626.27047 -22689738.52746  21203685.8134                   21203681.7234
 11  8 29  1 12 30.0000000  0  8G10G12G26G29G05G04G25G02
 -20023298.58647 -15590824.60545  22567360.9064                   22567359.9844
 -25788856.45748 -20080392.41446  20924845.1334                   20924842.9184
   -177784.89846   -127815.92643  24511497.6094                   24511498.9414
  -5502468.53147  -4277719.24645  23465294.6024                   23465293.5904
 -28417641.53548 -22130417.94547  20195578.1094                   20195575.7934
 -16758789.47347 -13044123.31643  24332958.8364                   24332959.0274
 -17271393.89148 -13445677.72746  21727870.2344                   21727870.8164
 -29117657.51247 -22675736.90646  21207105.4144                   21207101.2234
 11  8 29  1 13  0.0000000  0  8G10G12G26G29G05G04G25G02
 -19943988.06647 -15529024.22345  22582452.7504                   22582452.0124
 -25767434.70748 -20063700.16846  20928921.8914                   20928919.3524
   -284841.16846   -211236.18043  24491124.6804                   24491126.2974
  -5599996.77747  -4353715.24645  23446734.8914                   23446734.0824
 -28433594.58248 -22142848.86347  20192542.3444                   20192539.8714
 -16694551.00447 -12994067.36743  24345183.7424                   24345183.9804
 -17315187.71948 -13479802.77046  21719536.0704                   21719536.8484
 -29099550.54747 -22661627.58246  21210550.9144                   21210546.6524
 11  8 29  1 13 30.0000000  0  8G10G12G26G29G05G04G25G02
 -19864343.70347 -15466963.70744  22597609.2424                   22597607.8134
 -25745439.21948 -20046560.86346  20933107.3594                   20933105.1054
   -391960.08646   -294705.25043  24470740.4774                   24470742.3284
  -5697503.05547  -4429694.13344  23428180.5554                   23428179.3914
 -28448941.91448 -22154807.80147  20189621.6644                   20189619.0514
 -16630337.91847 -12944031.21544  24357402.6804                   24357403.1644
 -17358384.49648 -13513462.57446  21711316.4224                   21711316.8164
 -29081305.98447 -22647411.04746  21214023.0474                   21214018.6484
 11  8 29  1 14  0.0000000  0  8G10G12G26G29G05G04G25G02
 -19784369.10247 -15404645.87145  22612828.0234                   22612826.6294
 -25722872.14148 -20028976.16446  20937401.7974                   20937399.7544
   -499139.48046   -378221.45743  24450344.0394                   24450346.4064
  -5794986.89146  -4505655.57044  23409629.7114                   23409628.1174
 -28463685.13348 -22166295.99647  20186816.2664                   20186813.8364
 -16566151.18747 -12894015.60544  24369617.1954                   24369617.9304
 -17400984.05148 -13546657.02046  21703209.7894                   21703210.1524
 -29062925.30147 -22633088.44546  21217520.3284                   21217515.8954
 11  8 29  1 14 30.0000000  0  8G10G12G26G29G05G04G25G02
 -19704067.00047 -15342072.83644  22628108.4224                   22628107.4184
 -25699734.53948 -20010946.86746  20941804.6954                   20941802.4224
   -606376.26647   -461782.38743  24429938.0634                   24429940.0084
  -5892446.47747  -4581598.09444  23391083.5944                   23391082.4224
 -28477824.09048 -22177313.34447  20184125.6884                   20184122.9924
 -16501990.86747 -12844020.58643  24381826.4614                   24381826.8634
 -17442985.53148 -13579385.44546  21695217.1334                   21695217.9654
 -29044409.19548 -22618660.31246  21221044.2114                   21221039.9964
 11  8 29  1 15  0.0000000  0  8G10G12G26G29G05G04G25G02
 -19623440.54347 -15279247.05144  22643451.5084                   22643450.4804
 -25676028.64848 -19992474.73846  20946315.9844                   20946313.7034
   -713667.73046   -545385.92243  24409521.1094                   24409522.6024
  -5989880.71946  -4657520.86744  23372542.3524                   23372541.4184
 -28491359.90248 -22187860.70347  20181549.8524                   20181547.4694
 -16437857.22746 -12794046.34443  24394030.4694                   24394031.9184
 -17484388.17248 -13611647.22746  21687338.6954                   21687339.1094
 -29025757.92647 -22604126.85946  21224592.9454                   21224589.1214
 11  8 29  1 15 30.0000000  0  8G10G12G26G29G05G04G25G02
 -19542493.07047 -15216171.13745  22658855.3914                   22658854.5474
 -25651756.25448 -19973561.19946  20950934.6414                   20950932.2974
   -821010.79346   -629029.67243  24389094.7814                   24389095.9494
  -6087288.59847  -4733423.08644  23354006.2274                   23354005.7814
 -28504293.59448 -22197938.88347  20179088.5394                   20179086.3794
 -16373751.14847 -12744093.59843  24406229.8594                   24406230.4614
 -17525191.45748 -13643441.99246  21679574.0944                   21679574.9774
 -29006972.59447 -22589488.94146  21228168.1884                   21228163.6214
 11  8 29  1 16  0.0000000  0  8G10G12G26G29G05G04G25G02
 -19461227.47747 -15152847.32845  22674319.6414                   22674318.5354
 -25626918.95748 -19954207.47346  20955660.7894                   20955659.0204
   -928402.96546   -712711.69143  24368657.3834                   24368658.7384
  -6184668.97347  -4809303.85544  23335475.8134                   23335475.0354
 -28516625.85948 -22207548.41447  20176741.8754                   20176739.4694
 -16309672.42646 -12694162.13743  24418423.4844                   24418424.2854
 -17565394.70748 -13674769.18746  21671923.6484                   21671924.1764
 -28988053.46147 -22574746.76646  21231768.4144                   21231764.1454
 11  8 29  1 16 30.0000000  0  8G10G12G26G29G05G04G25G02
 -19379646.40247 -15089277.70345  22689843.5704                   22689842.7234
 -25601518.42648 -19934414.86746  20960494.5164                   20960492.1564
  -1035840.67246   -796429.17243  24348212.7274                   24348214.1684
  -6282020.43447  -4885162.14144  23316950.4614                   23316948.2344
 -28528357.23448 -22216689.72347  20174509.1804                   20174506.9024
 -16245621.66046 -12644252.53543  24430611.1024                   24430612.8914
 -17604997.12148 -13705628.19946  21664387.4144                   21664388.1914
 -28969001.25847 -22559900.89546  21235393.7584                   21235389.6684
 11  8 29  1 17  0.0000000  0  8G10G12G26G29G05G04G25G02
 -19297754.25847 -15025465.65644  22705427.7894                   22705426.3364
 -25575556.98048 -19914185.17646  20965434.7034                   20965432.4494
  -1143322.19546   -880180.81243  24327759.2664                   24327760.3134
  -6379342.55147  -4960997.53144  23298429.9844                   23298429.8134
 -28539489.22748 -22225363.97347  20172390.9844                   20172388.3914
 -16181599.66046 -12594365.36743  24442794.8364                   24442796.1454
 -17643998.88748 -13736019.17246  21656965.9144                   21656966.5904
 -28949817.31648 -22544952.37546  21239044.1564                   21239040.6254
 11  8 29  1 17 30.0000000  0  8G10G12G26G29G05G04G25G02
 -19215552.28947 -14961412.19545  22721069.6884                   22721068.3054
 -25549035.45748 -19893519.06646  20970481.7734                   20970479.6884
  -1250843.26246   -963963.26642  24307299.1644                   24307299.6524
  -6476632.30547  -5036807.72344  23279916.0554                   23279915.4024
 -28550021.09448 -22233570.59847  20170387.0394                   20170384.5704
 -16117605.27746 -12544499.68443  24454971.9844                   24454973.3524
 -17682397.95348 -13765940.51246  21649658.4614                   21649659.2504
 -28930500.98848 -22529900.69546  21242719.9144                   21242716.0124
 11  8 29  1 18  0.0000000  0  8G10G12G26G29G05G04G25G02
 -19133044.37147 -14897120.32844  22736770.5004                   22736769.4924
 -25521956.41448 -19872418.53946  20975635.0004                   20975632.6334
  -1358401.65646  -1047774.84043  24286830.7894                   24286830.7814
  -6573889.69547  -5112592.66844  23261409.8284                   23261408.3204
 -28559954.84048 -22241311.15247  20168496.4384                   20168494.3204
 -16053640.02046 -12494656.69143  24467144.2894                   24467145.6884
 -17720194.80148 -13795392.58246  21642465.9144                   21642466.7584
 -28911053.80948 -22514747.04746  21246421.0234                   21246416.7854
 11  8 29  1 18 30.0000000  0  8G10G12G26G29G05G04G25G02
 -19050234.70747 -14832593.34444  22752528.7194                   22752527.7934
 -25494322.86348 -19850885.92246  20980893.4144                   20980891.4184
  -1465995.55546  -1131614.02743  24266356.4694                   24266356.3984
  -6671114.23047  -5188352.02345  23242908.6024                   23242906.7274
 -28569292.21948 -22248587.01247  20166719.6094                   20166717.3284
 -15989705.04747 -12444837.27343  24479311.1094                   24479312.1094
 -17757389.88748 -13824375.74246  21635387.9844                   21635388.6994
 -28891477.22347 -22499492.56646  21250146.2504                   21250141.7234
 11  8 29  1 19  0.0000000  0  8G10G12G26G29G05G04G25G02
 -18967126.62547 -14767833.82444  22768343.4694                   22768342.8054
 -25466136.75848 -19828922.74246  20986256.9844                   20986255.0004
  -1573622.67647  -1215479.15643  24245876.3524                   24245877.0314
  -6768305.05547  -5264085.10545  23224413.8444                   23224412.3484
 -28578034.67248 -22255399.28947  20165056.0944                   20165053.4654
 -15925801.21547 -12395042.01642  24491472.0864                   24491471.3794
 -17793983.17248 -13852889.96146  21628424.4694                   21628425.1024
 -28871772.43448 -22484138.18446  21253895.5234                   21253891.7034
 11  8 29  1 19 30.0000000  0  8G10G12G26G29G05G04G25G02
 -18883723.38346 -14702844.32844  22784214.8594                   22784213.6024
 -25437400.14148 -19806530.60246  20991725.4614                   20991723.2584
  -1681279.90247  -1299367.71943  24225389.0314                   24225390.1414
  -6865461.01647  -5339791.02045  23205925.3204                   23205923.3954
 -28586183.28948 -22261748.83247  20163505.7194                   20163503.0784
 -15861928.76647 -12345271.19142  24503625.8674                   24503626.1484
 -17829974.30148 -13880934.96146  21621575.8524                   21621576.5594
 -28851940.06647 -22468684.39146  21257669.3754                   21257665.5744
 11  8 29  1 20  0.0000000  0  8G10G12G26G29G05G04G25G02
 -18800027.48846 -14637626.78944  22800141.8754                   22800140.6414
 -25408114.84448 -19783710.91046  20997298.1334                   20997296.2114
  -1788964.03147  -1383277.24243  24204897.6724                   24204898.6134
  -6962580.77747  -5415468.70745  23187443.9774                   23187443.2704
 -28593738.57048 -22267636.04747  20162067.9144                   20162065.4574
 -15798087.50846 -12295524.83243  24515774.8204                   24515775.0784
 -17865362.46948 -13908510.13346  21614841.2894                   21614841.9924
 -28831980.51248 -22453131.49646  21261467.9064                   21261464.0704
 11  8 29  1 20 30.0000000  0  8G10G12G26G29G05G04G25G02
 -18716042.38746 -14572183.89144  22816123.6804                   22816122.5514
 -25378282.78148 -19760465.16846  21002974.8914                   21002973.0784
  -1896672.34447  -1467205.60944  24184400.6414                   24184402.8444
  -7059663.19546  -5491117.24645  23168969.0944                   23168968.5784
 -28600701.87148 -22273061.98047  20160742.4534                   20160740.1764
 -15734278.22346 -12245803.38342  24527917.0314                   24527918.5234
 -17900147.50448 -13935615.32446  21608222.2034                   21608222.5474
 -28811894.46548 -22437480.03146  21265290.2814                   21265285.8244
 11  8 29  1 21  0.0000000  0  8G10G12G26G29G05G04G25G02
 -18631772.37546 -14506518.99244  22832159.6334                   22832158.7504
 -25347907.16048 -19736795.86346  21008755.1724                   21008753.2154
  -2004402.84447  -1551151.27044  24163900.1484                   24163901.2234
  -7156707.88747  -5566736.43044  23150501.7974                   23150501.3444
 -28607075.11748 -22278028.12947  20159529.6564                   20159527.1884
 -15670501.91845 -12196107.66442  24540053.2814                   24540054.9144
 -17934329.86348 -13962250.89146  21601717.4384                   21601718.1684
 -28791683.49248 -22421731.23046  21269135.8674                   21269131.9064
 11  8 29  1 21 30.0000000  0  8G10G12G26G29G05G04G25G02
 -18547220.37146 -14440634.35244  22848249.0554                   22848248.6174
 -25316989.96948 -19712704.53946  21014638.8364                   21014636.4224
  -2112152.89847  -1635112.17243  24143396.4534                   24143397.1214
  -7253713.69147  -5642325.33245  23132042.2274                   23132041.5824
 -28612859.80548 -22282535.66047  20158428.8754                   20158426.8204
 -15606759.40646 -12146438.27743  24552183.2274                   24552184.6214
 -17967909.77748 -13988417.03146  21595327.1804                   21595327.6764
 -28771348.47748 -22405885.75846  21273005.5784                   21273001.4304
 11  8 29  1 22  0.0000000  0  8G10G12G26G29G05G04G25G02
 -18462388.67646 -14374531.79344  22864391.7274                   22864391.2544
 -25285532.90248 -19688192.53946  21020624.9224                   21020622.8204
  -2219918.63747  -1719085.30544  24122888.5474                   24122889.7934
  -7350678.64147  -5717882.39845  23113591.0084                   23113589.8444
 -28618056.02048 -22286584.64147  20157440.0944                   20157437.5204
 -15543050.16446 -12096794.75443  24564307.3444                   24564308.2464
 -18000886.04748 -14014112.79746  21589051.9304                   21589052.7154
 -28750889.27348 -22389943.52746  21276899.0314                   21276894.6884
 11  8 29  1 22 30.0000000  0  7G10G12G26G29G05G25G02
 -18377280.26246 -14308213.59044  22880588.4224                   22880587.1254
 -25253537.52048 -19663261.07846  21026713.5394                   21026711.2734
  -2327697.27047  -1803068.49243  24102379.5944                   24102380.0824
  -7447601.24647  -5793406.46144  23095147.2894                   23095145.9924
 -28622664.52348 -22290175.66047  20156563.0164                   20156560.9884
 -18033258.39148 -14039337.98446  21582891.6094                   21582892.3014
 -28730306.69948 -22373905.16046  21280815.5944                   21280811.5904
 11  8 29  1 23  0.0000000  0  7G10G12G26G29G05G25G02
 -18291898.20747 -14241682.18444  22896835.5704                   22896834.9924
 -25221006.51248 -19637912.23046  21032903.9844                   21032901.3754
  -2435485.65246  -1887059.25443  24081867.3984                   24081868.9414
  -7544480.19547  -5868896.48044  23076711.4454                   23076710.7544
 -28626687.18048 -22293310.17647  20155797.6094                   20155795.2664
 -18065026.40248 -14064092.26246  21576846.4454                   21576847.0004
 -28709600.96548 -22357770.82446  21284755.7344                   21284751.9064
 11  8 29  1 23 30.0000000  0  7G10G12G26G29G05G25G02
 -18206243.17246 -14174938.05144  22913135.8754                   22913135.0274
 -25187939.10248 -19612145.42646  21039196.3524                   21039194.3324
  -2543278.53146  -1971053.53543  24061354.8834                   24061356.0164
  -7641311.97747  -5944349.75044  23058285.1724                   23058284.1454
 -28630122.35948 -22295986.92647  20155143.8674                   20155141.3484
 -18096187.55548 -14088373.66846  21570916.7114                   21570917.5864
 -28688770.32448 -22341539.16446  21288720.0164                   21288715.8444
 11  8 29  1 24  0.0000000  0  7G10G12G26G29G05G25G02
 -18120316.32847 -14107982.12144  22929486.8444                   22929485.9184
 -25154335.42648 -19585960.74246  21045590.7664                   21045588.7344
  -2651070.68746  -2055047.23043  24040842.4064                   24040843.5664
  -7738093.10947  -6019763.55544  23039868.5784                   23039866.9064
 -28632969.12948 -22298205.16847  20154602.1954                   20154599.5984
 -18126739.64148 -14112180.48446  21565102.8444                   21565103.6684
 -28667813.37148 -22325209.07846  21292707.8444                   21292704.0784
 11  8 29  1 24 30.0000000  0  7G10G12G26G29G05G25G02
 -18034119.38347 -14040815.71944  22945889.0704                   22945888.3094
 -25120196.26248 -19559358.80546  21052087.5944                   21052085.3164
  -2758857.81246  -2139037.02043  24020331.2894                   24020332.3364
  -7834820.68047  -6095135.64145  23021461.6804                   23021459.7624
 -28635227.36748 -22299964.81247  20154172.4454                   20154169.9574
 -18156681.04348 -14135511.44146  21559405.1724                   21559405.6914
 -28646729.28148 -22308779.92246  21296720.0084                   21296715.9184
 11  8 29  1 25  0.0000000  0  7G10G12G26G29G05G25G02
 -17947656.32047 -13973441.95344  22962343.0944                   22962342.3554
 -25085525.21148 -19532342.42246  21058684.7974                   21058682.8324
  -2866638.06646  -2223021.49643  23999820.9304                   23999822.0594
  -7931494.82447  -6170466.12145  23003065.5164                   23003063.8674
 -28636899.54748 -22301267.79347  20153854.0784                   20153852.0514
 -18186012.86348 -14158367.41846  21553823.3914                   21553823.8444
 -28625519.78548 -22292253.04346  21300756.1414                   21300751.7304
 11  8 29  1 25 30.0000000  0  7G10G12G26G29G05G25G02
 -17860930.92247 -13905863.77744  22978846.4534                   22978845.5474
 -25050324.74248 -19504913.48846  21065383.5784                   21065381.3754
  -2974409.11347  -2306998.78543  23979313.3834                   23979313.1254
  -8028114.54347  -6245754.18444  22984679.1094                   22984677.1764
 -28637987.62948 -22302115.62147  20153647.3054                   20153644.6334
 -18214735.66448 -14180748.81646  21548358.0314                   21548358.1604
 -28604186.07048 -22275629.37546  21304815.6644                   21304811.8484
 11  8 29  1 26  0.0000000  0  7G10G12G26G29G05G25G02
 -17773947.13347 -13838084.24244  22995399.2504                   22995397.9924
 -25014598.27048 -19477074.69546  21072181.9614                   21072179.9884
  -3082168.88347  -2390967.31643  23958806.8594                   23958807.7344
  -8124679.23047  -6320999.37145  22966303.4304                   22966302.0594
 -28638493.49648 -22302509.78547  20153551.1414                   20153548.5634
 -18242850.10248 -14202656.16446  21543007.6254                   21543008.3754
 -28582729.77748 -22258910.19546  21308898.6334                   21308894.2624
 11  8 29  1 26 30.0000000  0  7G10G12G26G29G05G25G02
 -17686709.67247 -13770107.04344  23011999.3594                   23011998.7304
 -24978349.28148 -19448828.75046  21079079.7424                   21079077.6484
  -3189915.58647  -2474925.65243  23938303.6484                   23938303.4454
  -8221189.35547  -6396202.01645  22947937.9534                   22947937.0514
 -28638420.32048 -22302452.74247  20153564.4534                   20153562.4804
 -18270357.68048 -14224090.64546  21537773.3364                   21537773.6024
 -28561152.90648 -22242097.05146  21313004.4694                   21313000.1994
 11  8 29  1 27  0.0000000  0  7G10G12G26G29G05G25G02
 -17599220.76647 -13701933.91444  23028648.1484                   23028647.2304
 -24941579.38748 -19420176.90646  21086077.2344                   21086074.8714
  -3297645.90247  -2558871.23843  23917803.4774                   23917802.9494
  -8317642.84047  -6471360.53145  22929583.9144                   22929582.1334
 -28637768.59448 -22301944.87947  20153688.6094                   20153686.5904
 -18297257.87548 -14245051.84046  21532654.2894                   21532655.0744
 -28539455.24648 -22225189.78946  21317133.4064                   21317129.4304
 11  8 29  1 27 30.0000000  0  7G10G12G26G29G05G25G02
 -17511484.22347 -13633567.81644  23045343.9224                   23045343.0514
 -24904291.94548 -19391121.77346  21093172.4924                   21093170.8244
  -3405357.20347  -2642802.02043  23897306.2584                   23897306.5824
  -8414038.95747  -6546474.35945  22911240.2894                   22911238.6604
 -28636540.27348 -22300987.72747  20153922.6094                   20153919.7814
 -18323551.28548 -14265540.22746  21527650.7664                   21527651.0944
 -28517638.08648 -22208189.41846  21321285.4384                   21321280.9734
 11  8 29  1 28  0.0000000  0  7G10G12G26G29G05G25G02
 -17423502.33247 -13565010.54744  23062086.6174                   23062085.2854
 -24866488.21948 -19361664.34446  21100366.5704                   21100364.8134
  -3513045.79347  -2726715.09443  23876813.7504                   23876813.8524
  -8510375.32047  -6621541.61345  22892907.8834                   22892906.7934
 -28634736.09848 -22299581.85247  20154265.9614                   20154263.4574
 -18349237.11748 -14285555.18446  21522763.0004                   21522763.7814
 -28495701.06248 -22191095.64146  21325459.7194                   21325455.3754
 11  8 29  1 28 30.0000000  0  7G10G12G26G29G05G25G02
 -17335279.77047 -13496265.72744  23078874.1884                   23078873.8324
 -24828171.75448 -19331807.37546  21107657.9224                   21107655.7854
  -3620709.99247  -2810609.14544  23856325.7344                   23856326.5044
  -8606652.25847  -6696562.55945  22874586.7034                   22874585.7704
 -28632359.01248 -22297729.55947  20154718.0784                   20154715.5474
 -18374316.99648 -14305097.96146  21517990.6414                   21517991.0554
 -28473646.36348 -22173910.16846  21329656.9064                   21329652.6054
 11  8 29  1 29  0.0000000  0  7G10G12G26G29G05G25G02
 -17246818.64547 -13427335.02344  23095708.4224                   23095707.6294
 -24789344.51648 -19301552.41046  21115046.5314                   21115044.3444
  -3728346.14547  -2894481.36744  23835843.3284                   23835843.4614
  -8702867.76247  -6771535.62145  22856277.6884                   22856276.4264
 -28629409.65248 -22295431.34047  20155279.3674                   20155276.8284
 -18398790.43048 -14324168.18046  21513333.2034                   21513333.6804
 -28451473.69948 -22156632.77746  21333875.7424                   21333871.5944
 11  8 29  1 29 30.0000000  0  7G10G12G26G29G05G25G02
 -17158123.31647 -13358221.82044  23112587.1484                   23112585.1134
 -24750010.35548 -19270902.44546  21122531.4924                   21122529.7424
  -3835952.54746  -2978330.37144  23815366.2734                   23815367.0394
  -8799021.57447  -6846460.62545  22837980.1414                   22837979.0084
 -28625890.82848 -22292689.39147  20155949.1024                   20155946.5394
 -18422658.72348 -14342766.87946  21508791.7034                   21508792.0234
 -28429185.33248 -22139265.22746  21338117.5164                   21338113.2854
 11  8 29  1 30  0.0000000  0  7G10G12G26G29G05G25G02
 -17069196.18047 -13288927.94544  23129509.0394                   23129508.0594
 -24710171.10948 -19239858.91446  21130112.6804                   21130110.7234
  -3943525.47746  -3062153.26244  23794895.6954                   23794896.3984
  -8895111.62147  -6921335.93045  22819694.8444                   22819693.9104
 -28621803.37148 -22289504.33647  20156726.5784                   20156724.3094
 -18445921.46548 -14360893.69946  21504364.8054                   21504365.3054
 -28406780.87548 -22121807.21146  21342380.6094                   21342376.4844
 11  8 29  1 30 30.0000000  0  7G10G12G26G29G05G25G02
 -16980040.38747 -13219455.92244  23146474.3754                   23146473.5204
 -24669828.92248 -19208423.47346  21137789.4774                   21137787.3054
  -4051061.77346  -3145947.63744  23774431.6564                   23774433.2544
  -8991136.48847  -6996160.43745  22801421.0864                   22801419.8164
 -28617148.81248 -22285877.39147  20157612.3754                   20157610.0514
 -18468578.81248 -14378548.78546  21500053.1024                   21500054.0554
 -28384260.55948 -22104258.91846  21346666.2424                   21346662.1024
 11  8 29  1 31  0.0000000  0  7G10G12G26G29G05G25G02
 -16890659.79347 -13149808.73444  23163483.6724                   23163482.3094
 -24628987.03548 -19176598.66046  21145561.2894                   21145559.3914
  -4158559.29746  -3229711.78544  23753975.5004                   23753976.4144
  -9087095.56647  -7070933.68445  22783161.1414                   22783160.1134
 -28611929.36748 -22281810.26647  20158605.8524                   20158603.9024
 -18490631.76248 -14395732.91846  21495856.7034                   21495857.1914
 -28361625.92648 -22086621.53946  21350973.4924                   21350969.1094
 11  8 29  1 31 30.0000000  0  7G10G12G26G29G05G25G02
 -15225640.41047 -11852391.04344  23480325.5864                   23480325.0594
 -23012229.33648 -17916787.50446  21453220.3594                   21453218.1054
  -2690591.52346  -2085840.62143  24033320.2274                   24033321.1644
  -7607564.23847  -5918052.08245  23064706.7584                   23064705.0314
 -27030727.02348 -21049704.52347  20459498.4614                   20459496.0084
 -16936659.91848 -13184845.78146  21791567.8674                   21791568.4774
 -26763458.30148 -20841296.11746  21655095.0704                   21655090.4104
 11  8 29  1 32  0.0000000  0  7G10G12G26G29G05G25G02
 -15135819.48047 -11782400.73044  23497418.5084                   23497417.0354
 -22970395.53548 -17884189.77046  21461181.1724                   21461179.1684
  -2798001.99646  -2169536.96544  24012881.1954                   24012881.8094
  -7703387.53947  -5992719.54745  23046472.3984                   23046470.5084
 -27024382.68448 -21044760.87547  20460705.8914                   20460703.2384
 -16957504.91848 -13201088.64846  21787601.3204                   21787601.7774
 -26740596.71548 -20823481.90246  21659445.1804                   21659441.1094
 11  8 29  1 32 30.0000000  0  7G10G12G26G29G05G25G02
 -15045782.57047 -11712242.11744  23514551.6884                   23514550.4304
 -22928069.07848 -17851208.14846  21469235.9144                   21469233.4454
  -2905364.11746  -2253195.62144  23992450.1484                   23992451.6884
  -7799140.45347  -6067332.17645  23028251.3674                   23028249.3754
 -27017478.16848 -21039380.71147  20462019.6094                   20462017.2464
 -16977746.12148 -13216861.02046  21783749.2424                   21783750.1024
 -26717622.17248 -20805579.65646  21663817.0634                   21663813.1454
 11  8 29  1 33  0.0000000  0  7G10G12G26G29G05G25G02
 -14955533.41047 -11641918.09444  23531725.5084                   23531724.4774
 -22885253.60248 -17817845.47346  21477382.8674                   21477381.5274
  -3012675.47346  -2336814.73844  23972029.8834                   23972030.4264
  -7894822.28947  -6141889.39845  23010043.2034                   23010041.4494
 -27010015.55548 -21033565.67647  20463439.3204                   20463437.1094
 -16997384.54348 -13232163.68446  21780012.1024                   21780012.9534
 -26694535.97348 -20787590.41046  21668210.2114                   21668206.2234
 11  8 29  1 33 30.0000000  0  7G10G12G26G29G05G25G02
 -14865075.55947 -11571431.48044  23548939.2424                   23548938.3554
 -22841951.64548 -17784103.71946  21485623.1804                   21485621.5084
  -3119933.38346  -2420392.21144  23951618.8444                   23951619.9534
  -7990432.09447  -6216390.49645  22991849.3674                   22991848.1764
 -27001997.30548 -21027317.66847  20464965.5944                   20464962.8444
 -17016421.17248 -13246997.42246  21776389.6564                   21776390.0004
 -26671338.87948 -20769514.75446  21672624.2664                   21672620.3634
 11  8 29  1 34  0.0000000  0  7G10G12G26G29G05G25G02
 -14774411.48447 -11500784.14844  23566191.4614                   23566190.9844
 -22798165.60547 -17749984.75846  21493955.3754                   21493953.7034
  -3227134.30947  -2503925.28144  23931219.3914                   23931219.7384
  -8085967.65647  -6290833.74245  22973669.4144                   22973667.8284
 -26993424.25848 -21020637.35547  20466597.0554                   20466594.0634
 -17034855.70348 -13261361.99246  21772881.3284                   21772882.6174
 -26648030.81648 -20751352.61346  21677059.8984                   21677055.6884
 11  8 29  1 34 30.0000000  0  7G10G12G26G29G05G25G02
 -14683543.54347 -11429977.98443  23583482.6954                   23583482.6054
 -22753896.82848 -17715489.63746  21502379.3674                   21502377.7734
  -3334274.08647  -2587410.72744  23910831.8674                   23910831.4184
  -8181426.53947  -6365217.25845  22955504.3524                   22955502.1604
 -26984297.47348 -21013525.55947  20468333.7344                   20468331.4264
 -17052687.83248 -13275257.15646  21769488.4064                   21769488.8284
 -26624611.56248 -20733103.84446  21681516.2734                   21681512.2464
 11  8 29  1 35  0.0000000  0  7G10G12G26G29G05G25G02
 -14592475.22747 -11359015.68443  23600813.0634                   23600812.7234
 -22709149.19948 -17680621.37946  21510894.7034                   21510892.9494
  -3441350.21146  -2670846.56243  23890455.4924                   23890455.0554
  -8276808.06647  -6439540.48845  22937353.6564                   22937351.7154
 -26974619.07448 -21005983.93747  20470175.2894                   20470172.8594
 -17069918.43048 -13288683.59046  21766209.6334                   21766210.0044
 -26601082.11748 -20714769.21146  21685993.4534                   21685989.7194
 11  8 29  1 35 30.0000000  0  7G10G12G26G29G05G25G02
 -14501209.85547 -11287899.82444  23618180.4304                   23618179.7424
 -22663925.20348 -17645381.93046  21519500.5944                   21519498.6994
  -3548360.00446  -2754230.71943  23870092.3914                   23870092.0434
  -8372111.26647  -6513802.68045  22919218.0634                   22919216.5744
 -26964391.23448 -20998014.17247  20472121.4064                   20472119.4654
 -17086548.52748 -13301642.09846  21763044.9454                   21763045.6134
 -26577443.44548 -20696349.46946  21690492.0394                   21690487.9654
 11  8 29  1 36  0.0000000  0  7G10G12G26G29G05G25G02
 -14409750.37547 -11216632.71143  23635584.4614                   23635584.0744
 -22618227.31247 -17609773.20746  21528196.6954                   21528195.1484
  -3655300.26646  -2837560.67643  23849741.9384                   23849741.2234
  -8467334.51647  -6588002.55945  22901097.2814                   22901096.0744
 -26953615.48448 -20989617.47347  20474172.0864                   20474169.7384
 -17102578.37948 -13314132.89146  21759994.7114                   21759995.0904
 -26553695.88748 -20677844.86746  21695011.2424                   21695006.8594
 11  8 29  1 36 30.0000000  0  7G10G12G26G29G05G25G02
 -14318099.44147 -11145216.40243  23653025.1484                   23653023.9574
 -22572058.02747 -17573797.17246  21536982.2114                   21536980.1564
  -3762167.53546  -2920833.75043  23829405.0394                   23829405.2344
  -8562475.63747  -6662138.44145  22882992.5784                   22882991.5044
 -26942293.34048 -20980795.00447  20476326.7194                   20476324.5474
 -17118008.32048 -13326156.21546  21757058.3204                   21757059.1094
 -26529839.37548 -20659255.37946  21699550.5784                   21699546.8204
 11  8 29  1 37  0.0000000  0  8G10G12G26G29G05G15G25G02
 -14226259.30947 -11073652.66843  23670502.2274                   23670500.8834
 -22525419.56648 -17537455.53146  21545857.1334                   21545855.5354
  -3868958.01646  -3004047.00843  23809083.8284                   23809084.4804
  -8657532.78547  -6736208.89845  22864903.9844                   22864902.3054
 -26930426.21548 -20971547.87947  20478584.6414                   20478582.5744
   2994917.62556   2344411.17654  24728829.0084                   24728831.0354
 -17132838.35548 -13337712.08246  21754236.4694                   21754236.7974
 -26505874.05148 -20640581.10546  21704111.4454                   21704107.5514
 11  8 29  1 37 30.0000000  0  8G10G12G26G29G05G15G25G02
 -14134235.82447 -11001946.10544  23688013.2034                   23688011.8134
 -22478317.10947 -17500752.34046  21554820.8834                   21554818.7814
  -3975671.25046  -3087200.04344  23788777.4844                   23788777.2234
  -8752507.20347  -6810214.89145  22846830.6174                   22846829.8014
 -26918018.19148 -20961879.27347  20480946.2734                   20480943.6954
   2889615.44946   2262357.80144  24708790.5474                   24708792.6214
 -17147071.65248 -13348802.95346  21751527.7274                   21751528.3364
 -26481802.87148 -20621824.34846  21708692.0394                   21708687.4574
 11  8 29  1 38  0.0000000  0  8G10G12G26G29G05G15G25G02
 -14042035.37147 -10930101.62143  23705559.1024                   23705557.4184
 -22430756.22747 -17463691.93446  21563871.1254                   21563869.5204
  -4082307.10246  -3170292.81244  23768484.6644                   23768485.1294
  -8847400.21947  -6884157.45745  22828773.4064                   22828771.8554
 -26905074.35548 -20951793.15247  20483409.4064                   20483406.7854
   2784200.75446   2180216.75844  24688729.7894                   24688732.6414
 -17160711.97748 -13359431.78146  21748931.8834                   21748932.8834
 -26457629.48048 -20602987.94546  21713291.8134                   21713287.4384
 11  8 29  1 38 30.0000000  0  8G10G12G26G29G05G15G25G02
 -13949661.04747 -10858121.64844  23723136.5234                   23723135.7774
 -22382740.49247 -17426277.09046  21573008.3204                   21573006.6954
  -4188862.90246  -3253323.16844  23748207.5704                   23748208.0124
  -8942211.00447  -6958035.95345  22810731.5084                   22810729.9264
 -26891597.15248 -20941291.42247  20485973.4774                   20485971.3014
   2678674.93446   2097989.13343  24668649.4454                   24668651.2194
 -17173760.52048 -13369599.47346  21746449.0704                   21746449.6174
 -26433354.90648 -20584072.70346  21717911.3364                   21717907.1174
 11  8 29  1 39  0.0000000  0  8G10G12G26G29G05G15G25G02
 -13857115.62547 -10786008.35244  23740747.8444                   23740746.9144
 -22334272.22347 -17388509.62546  21582231.5314                   21582230.0514
  -4295335.04746  -3336288.35944  23727946.5864                   23727946.6524
  -9036937.40247  -7031848.68045  22792705.9614                   22792703.9924
 -26877588.22748 -20930375.35947  20488639.6174                   20488637.0594
   2573040.87946   2015677.14543  24648547.8204                   24648548.4964
 -17186217.44148 -13379306.16846  21744078.3834                   21744079.3324
 -26408978.88348 -20565078.40246  21722549.9844                   21722545.7664
 11  8 29  1 39 30.0000000  0  8G10G12G26G29G05G15G25G02
 -13764399.84047 -10713762.31644  23758391.0474                   23758389.7384
 -22285352.07047 -17350390.04746  21591540.6334                   21591539.4264
  -4401718.15646  -3419184.16444  23707702.9924                   23707702.8204
  -9131575.78947  -7105592.84045  22774696.6644                   22774695.0164
 -26863047.18748 -20919044.65647  20491406.6564                   20491404.0824
   2467303.02046   1933284.26643  24628426.5554                   24628427.1524
 -17198081.43048 -13388550.83246  21741820.5784                   21741821.4884
 -26384500.05148 -20546003.99246  21727207.8524                   21727204.1604
 11  8 29  1 40  0.0000000  0  8G10G12G26G29G05G15G25G02
 -13671516.93447 -10641386.07044  23776065.6484                   23776065.2464
 -22235982.82047 -17311920.50846  21600935.5474                   21600933.8164
  -4508009.55946  -3502008.52344  23687476.1804                   23687476.1024
  -9226124.81247  -7179267.35545  22756704.3204                   22756702.9064
 -26847976.05548 -20907300.89847  20494274.1954                   20494271.9574
   2361462.95746   1850811.77743  24608285.8594                   24608286.6684
 -17209353.52748 -13397334.29346  21739675.8284                   21739676.1684
 -26359918.92648 -20526849.87946  21731885.6724                   21731881.2974
 11  8 29  1 40 30.0000000  0  8G10G12G26G29G05G15G25G02
 -13578468.56647 -10568880.87544  23793772.5704                   23793771.3954
 -22186165.76247 -17273102.03546  21610415.3754                   21610413.2384
  -4614204.33647  -3584757.58244  23667267.4224                   23667267.7384
  -9320581.58247  -7252869.98445  22738729.6174                   22738727.8524
 -26832375.43048 -20895144.55547  20497243.2424                   20497240.8364
   2255524.47347   1768262.55543  24588126.1254                   24588126.6524
 -17220032.94148 -13405655.92646  21737643.5314                   21737644.3324
 -26335234.15248 -20507615.00046  21736583.0634                   21736579.0274
 11  8 29  1 41  0.0000000  0  8G10G12G26G29G05G15G25G02
 -13485257.29747 -10496248.77743  23811509.9534                   23811509.8014
 -22135903.53547 -17233936.67646  21619979.6254                   21619977.8484
  -4720298.98447  -3667428.63344  23647078.7974                   23647078.3714
  -9414943.98047  -7326399.08645  22720772.9384                   22720771.5864
 -26816246.87948 -20882576.84047  20500312.1644                   20500309.9024
   2149490.31646   1685638.80143  24567948.0634                   24567949.1804
 -17230120.03948 -13413516.01646  21735723.9614                   21735724.8444
 -26310446.34447 -20488299.83246  21741300.2424                   21741295.6724
 11  8 29  1 41 30.0000000  0  8G10G12G26G29G05G15G25G02
 -13391885.70747 -10423491.74243  23829277.6024                   23829277.2344
 -22085198.59047 -17194426.33646  21629628.5164                   21629626.9924
  -4826290.04347  -3750018.93444  23626908.8594                   23626908.3244
  -9509210.20747  -7399853.24645  22702834.8834                   22702833.7424
 -26799592.18448 -20869599.14147  20503481.3674                   20503479.1024
   2043363.27346   1602942.67643  24547752.2194                   24547752.9964
 -17239615.36748 -13420914.98446  21733917.4844                   21733917.8244
 -26285555.37148 -20468904.27746  21746037.1254                   21746032.6294
 11  8 29  1 42  0.0000000  0  8G10G12G26G29G05G15G25G02
 -13298357.16847 -10350612.42243  23847076.2664                   23847076.0164
 -22034053.95348 -17154573.38746  21639361.4144                   21639358.9964
  -4932174.54347  -3832526.23444  23606759.8284                   23606759.5044
  -9603379.00847  -7473231.48845  22684915.0554                   22684913.1684
 -26782413.38748 -20856213.06247  20506750.4454                   20506748.2424
   1937144.68446   1520175.21543  24527539.1564                   24527539.6294
 -17248520.14848 -13427853.78946  21732222.7274                   21732223.6024
 -26260561.94947 -20449428.89846  21750792.6484                   21750788.5864
 11  8 29  1 42 30.0000000  0  8G10G12G26G29G05G15G25G02
 -13204673.84046 -10277612.47343  23864903.2734                   23864903.0784
 -21982472.03948 -17114379.68746  21649177.2114                   21649175.1804
  -5037948.62547  -3914947.46944  23586631.6094                   23586631.2154
  -9697448.08647  -7546532.01245  22667014.0784                   22667012.7114
 -26764711.84448 -20842419.63747  20510119.1804                   20510116.4884
   1830837.78146   1437339.03543  24507309.1254                   24507309.5984
 -17256834.48448 -13434332.49246  21730640.3134                   21730641.1454
 -26235465.63348 -20429873.34446  21755568.3284                   21755564.0354
 11  8 29  1 43  0.0000000  0  8G10G12G26G29G05G15G25G02
 -13110838.43447 -10204494.05543  23882759.5394                   23882759.2274
 -21930455.56248 -17073847.36746  21659075.6954                   21659073.7734
  -5143609.14147  -3997280.22344  23566524.8594                   23566524.4224
  -9791415.69947  -7619753.48045  22649132.9844                   22649130.7774
 -26746489.55548 -20828220.43447  20513586.7344                   20513584.6254
   1724444.80546   1354435.72343  24487063.2584                   24487063.8754
 -17264559.29348 -13440351.84046  21729170.5164                   21729171.1524
 -26210267.03947 -20410238.08246  21760363.6094                   21760359.8324
 11  8 29  1 43 30.0000000  0  8G10G12G26G29G05G15G25G02
 -13016854.14846 -10131259.57843  23900643.7664                   23900643.8554
 -21878007.86748 -17032979.03946  21669055.7584                   21669054.2344
  -5249152.84047  -4079521.94544  23546440.8364                   23546440.6724
  -9885280.56247  -7692894.89545  22631270.8594                   22631269.1024
 -26727749.13748 -20813617.50447  20517153.0704                   20517150.2894
   1617967.81346   1271466.87943  24466801.1564                   24466802.1214
 -17271695.88748 -13445912.84446  21727812.6174                   21727812.9144
 -26184966.78148 -20390523.60546  21765178.1024                   21765174.4184
 11  8 29  1 44  0.0000000  0  8G10G12G26G29G05G15G25G02
 -12922723.43747 -10057911.02743  23918556.8984                   23918555.7384
 -21825130.53947 -16991775.94146  21679117.8054                   21679116.5434
  -5354575.82447  -4161669.62944  23526378.6804                   23526378.6024
  -9979040.31647  -7765954.40245  22613428.9064                   22613427.1134
 -26708491.48848 -20798611.53547  20520817.5944                   20520815.1414
   1511410.03946   1188435.08643  24446523.3204                   24446524.6564
 -17278244.13748 -13451015.38346  21726566.2894                   21726566.9454
 -26159563.89847 -20370729.16446  21770011.8984                   21770008.1094
 11  8 29  1 44 30.0000000  0  8G10G12G26G29G05G15G25G02
 -12828449.52047  -9984450.88343  23936497.0474                   23936495.4964
 -21771827.14547 -16950240.84046  21689261.5234                   21689259.8244
  -5459875.25047  -4243721.02044  23506341.0864                   23506341.1214
 -10072693.47347  -7838930.82445  22595607.6174                   22595605.2814
 -26688719.18748 -20783204.53947  20524579.9924                   20524577.4574
   1404773.31647   1105341.78943  24426231.2504                   24426232.2194
 -17284205.55948 -13455660.65246  21725431.9774                   21725432.5274
 -26134059.89847 -20350855.92646  21774865.2504                   21774861.4224
 11  8 29  1 45  0.0000000  0  8G10G12G26G29G05G15G25G02
 -12734034.91847  -9910881.09443  23954463.0944                   23954462.2034
 -21718100.43047 -16908375.87546  21699485.0084                   21699483.4614
  -5565048.01647  -4325673.73044  23486327.7424                   23486327.2464
 -10166238.28147  -7911822.84445  22577805.9614                   22577804.1454
 -26668434.30548 -20767398.13347  20528439.9384                   20528437.8014
   1298059.97347   1022188.78544  24405924.3984                   24405925.0554
 -17289580.98448 -13459849.30546  21724409.2194                   21724409.6684
 -26108454.60547 -20330903.75846  21779737.6804                   21779733.7274
 11  8 29  1 45 30.0000000  0  8G10G12G26G29G05G15G25G02
 -12639482.14847  -9837203.68043  23972456.1644                   23972455.4924
 -21663952.53547 -16866182.72346  21709789.1954                   21709787.2704
  -5670089.61747  -4407524.21544  23466338.5704                   23466337.7664
 -10259672.49647  -7984628.69145  22560025.9304                   22560024.2344
 -26647638.10948 -20751193.30147  20532397.4144                   20532395.1524
   1191273.15646    938978.52744  24385603.7034                   24385603.9804
 -17294370.70348 -13463581.55546  21723497.9774                   21723498.3834
 -26082747.40647 -20310872.17646  21784629.5864                   21784625.6994
 11  8 29  1 46  0.0000000  0  8G10G12G26G29G05G15G25G02
 -12544794.12147  -9763420.82843  23990475.2274                   23990474.1524
 -21609386.68747 -16823663.89146  21720172.9064                   21720171.2974
  -5774997.25847  -4489270.34044  23446374.9224                   23446374.5124
 -10352994.63747  -8057347.20745  22542267.7194                   22542266.0354
 -26626332.79348 -20734591.74647  20536451.9384                   20536449.1844
   1084415.10247    855712.75444  24365268.4064                   24365269.9964
 -17298575.96148 -13466858.38746  21722697.5234                   21722698.2624
 -26056939.34847 -20290761.99646  21789540.7194                   21789536.7464
 11  8 29  1 46 30.0000000  0  8G10G12G26G29G05G15G25G02
 -12449974.05947  -9689535.14143  24008517.8444                   24008517.6604
 -21554405.78147 -16780821.64546  21730635.3914                   21730633.5744
  -5879767.75047  -4570909.58244  23426437.8834                   23426437.9384
 -10446203.09047  -8129977.12145  22524530.6334                   22524528.9264
 -26604520.69948 -20717595.30947  20540602.6334                   20540599.7504
    977487.91047    772393.09844  24344920.6174                   24344921.9344
 -17302197.97348 -13469680.73446  21722008.2664                   21722008.2584
 -26031030.78547 -20270573.50846  21794471.4614                   21794467.1024
 11  8 29  1 47  0.0000000  0  8G10G12G26G29G05G15G25G02
 -12355024.12147  -9615548.21943  24026586.0864                   24026586.2894
 -21499012.75847 -16737658.27346  21741176.4614                   21741175.0434
  -5984397.24247  -4652438.96144  23406527.2344                   23406526.9774
 -10539295.78947  -8202516.84445  22506815.8444                   22506813.9344
 -26582203.80548 -20700205.50847  20544849.2894                   20544846.5084
    870493.91047    689021.37144  24324560.7974                   24324561.1684
 -17305237.56648 -13472049.25046  21721429.8364                   21721430.5944
 -26005021.35947 -20250306.42646  21799420.3834                   21799416.4184
 11  8 29  1 47 30.0000000  0  8G10G12G26G29G05G15G25G02
 -12259946.69946  -9541461.98843  24044679.3834                   24044678.1994
 -21443209.73047 -16694175.41446  21751795.1884                   21751793.5474
  -6088882.25047  -4733855.75444  23386644.2034                   23386644.5944
 -10632270.64547  -8274964.74645  22489122.8524                   22489121.1884
 -26559383.67648 -20682423.58647  20549192.1804                   20549189.4574
    763436.44547    605600.19944  24304188.3674                   24304188.7734
 -17307695.22348 -13473964.31246  21720961.9844                   21720962.1764
 -25978911.03547 -20229960.71945  21804389.1094                   21804385.2114
 11  8 29  1 48  0.0000000  0  8G10G12G26G29G05G15G25G02
 -12164744.71946  -9467278.68743  24062796.1804                   24062794.8954
 -21387000.13748 -16650375.75046  21762491.4924                   21762490.0634
  -6193219.41447  -4815157.31644  23366789.9774                   23366789.5434
 -10725125.96147  -8347319.50445  22471453.2974                   22471451.1174
 -26536062.30148 -20664251.07847  20553629.7424                   20553627.2934
    656317.80947    522131.34044  24283804.0944                   24283804.5594
 -17309572.24248 -13475426.92246  21720605.3284                   21720605.3364
 -25952700.32447 -20209536.78546  21809377.1644                   21809373.1524
 11  8 29  1 48 30.0000000  0  8G10G12G26G29G05G15G25G02
 -12069420.94946  -9393000.49643  24080935.2274                   24080934.3244
 -21330386.19147 -16606261.01246  21773264.8204                   21773263.3284
  -6297404.93047  -4896340.75444  23346964.2894                   23346963.4024
 -10817859.32047  -8419579.22345  22453806.8834                   22453805.1054
 -26512241.51648 -20645689.42647  20558162.7974                   20558160.0984
    549140.94546    438617.14144  24263408.0474                   24263408.9184
 -17310869.30948 -13476437.62146  21720358.1644                   21720358.4804
 -25926389.10547 -20189034.52746  21814383.8284                   21814379.6844
 11  8 29  1 49  0.0000000  0  8G10G12G26G29G05G15G25G02
 -11973978.45746  -9318629.77343  24099097.6804                   24099096.5984
 -21273371.21148 -16561833.78146  21784114.4614                   21784112.8984
  -6401436.10547  -4977403.90244  23327167.2894                   23327166.9144
 -10910469.93047  -8491743.29745  22436183.2894                   22436182.1214
 -26487924.01648 -20626740.71947  20562789.9454                   20562787.4694
    441907.22347    355058.57043  24243003.0634                   24243001.8134
 -17311588.23048 -13476997.82846  21720221.3674                   21720221.8524
 -25899977.82047 -20168454.29346  21819409.6564                   21819405.7384
 11  8 29  1 49 30.0000000  0  8G10G12G26G29G05G15G25G02
 -11878419.15646  -9244168.08643  24117282.2734                   24117280.6844
 -21215957.43448 -16517095.80146  21795039.6564                   21795038.4614
  -6505308.57447  -5058343.42244  23307401.2194                   23307400.8054
 -11002954.80547  -8563809.40245  22418584.1484                   22418582.3014
 -26463111.34048 -20607406.16447  20567511.7194                   20567509.1374
    334620.32046    271458.60543  24222585.6644                   24222586.0824
 -17311729.23448 -13477107.71146  21720194.4844                   21720194.9454
 -25873466.06647 -20147795.78546  21824454.5864                   21824450.6414
 11  8 29  1 50  0.0000000  0  8G10G12G26G29G05G15G25G02
 -11782745.85546  -9169617.51243  24135487.7504                   24135486.9774
 -21158148.46547 -16472049.87146  21806040.6804                   21806038.6844
  -6609019.06647  -5139156.67644  23287665.8134                   23287665.3244
 -11095312.46147  -8635776.37145  22401009.2424                   22401007.6684
 -26437805.32848 -20587687.19547  20572327.5234                   20572324.5904
    227282.80146    187819.15643  24202160.5944                   24202160.4804
 -17311293.57048 -13476768.23446  21720277.1564                   21720277.7664
 -25846854.21547 -20127059.27746  21829518.8914                   21829514.6564
 11  8 29  1 50 30.0000000  0  8G10G12G26G29G05G15G25G02
 -11686961.80946  -9094980.67243  24153715.5234                   24153714.3634
 -21099947.23847 -16426698.28946  21817116.2194                   21817114.4384
  -6712564.87547  -5219841.62144  23267961.8524                   23267960.7274
 -11187541.51247  -8707643.12545  22383458.3674                   22383456.6764
 -26412009.02348 -20567586.17247  20577236.1024                   20577233.5904
    119896.14147    104141.43043  24181725.2814                   24181725.0164
 -17310283.07048 -13475980.84046  21720469.8754                   21720470.2854
 -25820143.01247 -20106245.34046  21834601.5004                   21834597.5164
 11  8 29  1 51  0.0000000  0  8G10G12G26G29G05G15G25G02
 -11591068.84046  -9020258.94143  24171962.6724                   24171962.6994
 -21041355.93448 -16381042.75446  21828265.7584                   21828264.1644
  -6815941.50047  -5300394.75044  23248289.2034                   23248288.2934
 -11279639.12547  -8779407.47345  22365932.6334                   22365931.1604
 -26385723.42248 -20547103.87947  20582238.2814                   20582235.4694
     12463.95746     20428.18843  24161281.2274                   24161280.9804
 -17308697.94948 -13474745.68746  21720771.4304                   21720771.8874
 -25793331.68747 -20085353.39846  21839703.4454                   21839699.6524
 11  8 29  1 51 30.0000000  0  8G10G12G26G29G05G15G25G02
 -11495068.97346  -8945453.97743  24190231.9454                   24190231.1374
 -20982377.12948 -16335085.26646  21839489.1564                   21839487.1414
  -6919145.13746  -5380813.07444  23228650.1564                   23228649.7464
 -11371602.95747  -8851067.57845  22348432.5784                   22348430.4614
 -26358950.46548 -20526241.83247  20587333.0864                   20587330.7384
    -95010.70747    -63318.09443  24140829.5314                   24140829.9024
 -17306538.92248 -13473063.33246  21721182.0944                   21721182.8954
 -25766419.94947 -20064383.19946  21844824.4384                   21844820.4574
 11  8 29  1 52  0.0000000  0  8G10G12G26G29G05G15G25G02
 -11398965.78547  -8870568.41843  24208519.1254                   24208518.8404
 -20923014.18447 -16288828.44546  21850785.7424                   21850783.6094
  -7022173.01647  -5461094.43444  23209044.5084                   23209044.3674
 -11463432.05147  -8922622.68446  22330957.8914                   22330956.6294
 -26331692.94148 -20505002.19947  20592519.8594                   20592517.5204
   -202526.01247   -147096.10544  24120369.5474                   24120370.2034
 -17303808.15648 -13470935.47746  21721702.0314                   21721702.1414
 -25739408.61347 -20043335.41046  21849964.8914                   21849960.9574
 11  8 29  1 52 30.0000000  0  8G10G12G26G29G05G15G25G02
 -11302762.59047  -8795604.95744  24226826.8754                   24226826.1374
 -20863270.41047 -16242274.88346  21862154.2814                   21862152.4654
  -7125022.35547  -5541236.68444  23189473.0634                   23189472.5554
 -11555124.95347  -8994071.66845  22313509.5394                   22313507.4614
 -26303953.67648 -20483387.18047  20597798.7114                   20597795.9654
   -310080.00847   -230904.23444  24099902.9534                   24099903.4964
 -17300507.32848 -13468363.41446  21722329.8284                   21722330.3984
 -25712298.36348 -20022210.53946  21855123.5084                   21855120.1644
 11  8 29  1 53  0.0000000  0  8G10G12G26G29G05G15G25G02
 -11206461.50846  -8720565.21143  24245151.9454                   24245150.8364
 -20803149.14847 -16195427.16846  21873595.2274                   21873593.4734
  -7227688.76647  -5621236.38344  23169936.1484                   23169935.4774
 -11646679.07047  -9065412.51245  22296087.4384                   22296085.8094
 -26275734.22748 -20461397.99647  20603168.4454                   20603165.7704
   -417669.36747   -314739.94144  24079429.5554                   24079429.4494
 -17296637.06248 -13465347.64146  21723066.5394                   21723067.0944
 -25685088.80547 -20001008.29346  21860301.5474                   21860297.4964
 11  8 29  1 53 30.0000000  0  8G10G12G26G29G05G15G25G02
 -11110065.53546  -8645451.48843  24263495.0474                   24263494.5044
 -20742653.18448 -16148287.46546  21885107.0704                   21885105.2034
  -7330169.45747  -5701091.39144  23150434.3444                   23150434.2774
 -11738092.96547  -9136644.08245  22278691.4924                   22278689.9304
 -26247037.23048 -20439036.69147  20608629.3204                   20608626.6134
   -525292.07447   -398601.59844  24058949.5394                   24058949.1844
 -17292199.13348 -13461889.52346  21723910.9694                   21723911.5744
 -25657780.21147 -19979728.86346  21865498.5004                   21865493.9844
 11  8 29  1 54  0.0000000  0  8G10G12G26G29G05G15G25G02
 -11013575.90246  -8570264.82043  24281857.2664                   24281855.8134
 -20681784.13748 -16100857.05146  21896689.8914                   21896688.1134
  -7432460.03147  -5780798.19944  23130969.6334                   23130968.4884
 -11829363.52047  -9207763.95345  22261323.7974                   22261322.2464
 -26217863.64148 -20416304.02047  20614180.6724                   20614178.2194
   -632944.52347   -482486.46144  24038463.5084                   24038463.8554
 -17287193.86348 -13457989.32446  21724863.7194                   21724864.0634
 -25630371.79347 -19958371.66046  21870714.0314                   21870710.1914
 11  8 29  1 54 30.0000000  0  8G10G12G26G29G05G15G25G02
 -10916995.78946  -8495007.61743  24300235.3674                   24300234.6764
 -20620545.45348 -16053138.61746  21908343.5944                   21908341.6294
  -7534557.15647  -5860354.31644  23111540.5864                   23111540.2734
 -11920489.35547  -9278771.06245  22243982.8444                   22243980.7974
 -26188216.19948 -20393202.11347  20619822.7194                   20619820.2384
   -740624.42247   -566392.69544  24017972.0164                   24017972.1134
 -17281622.98048 -13453648.38746  21725923.8054                   21725924.5234
 -25602863.92247 -19936936.95746  21875948.5314                   21875944.1334
 11  8 29  1 55  0.0000000  0  8G10G12G26G29G05G15G25G02
 -10820327.86746  -8419682.01243  24318630.6094                   24318629.5274
 -20558940.89847 -16005135.08646  21920066.4924                   21920064.6254
  -7636457.68447  -5939757.20744  23092149.7344                   23092149.6134
 -12011468.71147  -9349664.02345  22226670.0084                   22226668.7304
 -26158097.44548 -20369732.95347  20625554.0234                   20625551.2424
   -848329.62547   -650318.66044  23997477.0164                   23997477.1024
 -17275488.09048 -13448867.98046  21727090.9694                   21727091.4614
 -25575257.38348 -19915425.37946  21881201.9924                   21881197.2934
 11  8 29  1 55 30.0000000  0  8G10G12G26G29G05G15G25G02
 -10723574.73446  -8344289.99242  24337042.1564                   24337041.2274
 -20496973.30148 -15956848.64146  21931858.3134                   21931856.4964
  -7738157.94947  -6019004.09044  23072796.5474                   23072796.0354
 -12102299.26647  -9420441.04345  22209384.9844                   22209383.3134
 -26127509.25848 -20345898.00047  20631374.6884                   20631372.4774
   -956056.83246   -734261.77744  23976976.2504                   23976976.8164
 -17268790.33248 -13443648.96546  21728365.9064                   21728366.4344
 -25547551.46147 -19893836.35546  21886474.3754                   21886470.4384
 11  8 29  1 56  0.0000000  0  8G10G12G26G29G05G15G25G02
 -10626739.64145  -8268834.14542  24355469.3754                   24355468.8364
 -20434645.64148 -15908281.64546  21943718.7894                   21943717.2544
  -7839654.43447  -6098092.16844  23053482.6954                   23053481.6994
 -12192979.32047  -9491100.78545  22192129.6564                   22192128.0314
 -26096454.40248 -20321699.40647  20637284.1884                   20637281.2424
  -1063804.15646   -818220.52744  23956472.6254                   23956473.1334
 -17261531.58648 -13437992.82046  21729746.8284                   21729747.4844
 -25519746.87547 -19872170.45746  21891765.2734                   21891761.0944
 11  8 29  1 56 30.0000000  0  8G10G12G26G29G05G15G25G02
 -10529824.70346  -8193316.06242  24373911.7344                   24373910.9104
 -20371960.80547 -15859436.34046  21955647.7894                   21955645.8834
  -7940944.14847  -6177019.13744  23034207.7664                   23034206.4654
 -12283507.38347  -9561642.09445  22174902.9924                   22174900.1524
 -26064935.04348 -20297138.87147  20643282.4844                   20643279.6484
  -1171568.54746   -902192.62144  23935965.3204                   23935965.5824
 -17253713.12548 -13431900.52346  21731234.7974                   21731235.4494
 -25491843.63348 -19850427.68446  21897074.8284                   21897070.6094
 11  8 29  1 57  0.0000000  0  8G10G12G26G29G05G15G25G02
 -10432832.16446  -8117737.50843  24392368.5164                   24392368.2274
 -20308921.48048 -15810314.80146  21967643.3204                   21967641.6604
  -8042022.63347  -6255781.51644  23014973.3204                   23014971.8094
 -12373880.72347  -9632062.84446  22157704.9064                   22157703.2544
 -26032952.82848 -20272217.66047  20649368.0164                   20649365.8914
  -1279347.30946   -986175.87944  23915456.0234                   23915456.2154
 -17245336.05948 -13425372.96546  21732829.0634                   21732829.6054
 -25463841.28948 -19828607.67646  21902403.5084                   21902399.3244
 11  8 29  1 57 30.0000000  0  8G10G12G26G29G05G15G25G02
 -10335764.68746  -8042100.54343  24410840.3054                   24410839.7034
 -20245530.50048 -15760919.25046  21979706.3524                   21979704.5124
  -8142886.92647  -6334376.98844  22995779.0394                   22995778.5354
 -12464097.47747  -9702361.55946  22140537.4144                   22140535.3874
 -26000510.41448 -20246937.85547  20655542.0474                   20655538.9224
  -1387137.62146  -1070168.15244  23894944.4774                   23894944.5084
 -17236401.81248 -13418411.23846  21734529.1414                   21734529.5204
 -25435740.03948 -19806710.59445  21907750.8134                   21907746.6994
 11  8 29  1 58  0.0000000  0  8G10G12G26G29G05G15G25G02
 -10238624.24646  -7966406.75043  24429325.5474                   24429324.8164
 -20181790.86748 -15711252.02346  21991835.7344                   21991834.3284
  -8243532.60247  -6412802.11345  22976627.3524                   22976626.7774
 -12554154.86747  -9772536.11746  22123400.4144                   22123398.0984
 -25967609.27048 -20221300.59846  20661802.6954                   20661799.9264
  -1494936.20346  -1154166.89544  23874430.0634                   23874430.2544
 -17226911.48448 -13411016.19946  21736334.7734                   21736335.7624
 -25407539.17247 -19784735.90646  21913117.6094                   21913113.5594
 11  8 29  1 58 30.0000000  0  8G10G12G26G29G05G15G25G02
 -10141413.00447  -7890657.79343  24447824.0314                   24447824.1484
 -20117704.52048 -15661314.62146  22004030.8834                   22004028.9024
  -8343956.09047  -6491054.10245  22957517.1884                   22957515.7854
 -12644050.71147  -9842584.78546  22106293.4534                   22106291.5434
 -25934251.37548 -20195307.43747  20668150.5634                   20668148.2304
  -1602740.31246  -1238169.94944  23853915.7974                   23853915.9884
 -17216866.21148 -13403188.73046  21738246.4454                   21738247.3134
 -25379238.56648 -19762683.50445  21918503.2504                   21918499.0984
 11  8 29  1 59  0.0000000  0  8G10G12G26G29G05G15G25G02
 -10044133.29347  -7814855.43443  24466335.9924                   24466335.3324
 -20053275.55548 -15611110.24246  22016291.2194                   22016289.2034
  -8444153.43747  -6569129.87145  22938450.5784                   22938449.1214
 -12733782.95347  -9912505.96946  22089217.7424                   22089215.7424
 -25900439.08248 -20168960.19546  20674584.6254                   20674582.3164
  -1710546.85946  -1322174.93044  23833401.2034                   23833401.2544
 -17206267.38748 -13394929.92246  21740263.6174                   21740264.3284
 -25350837.93748 -19740553.16045  21923907.2664                   21923903.2774
 11  8 29  1 59 30.0000000  0  8G10G12G26G29G05G15G25G02
  -9946787.69547  -7739001.76243  24484860.3674                   24484859.8204
 -19988506.38348 -15560640.77346  22028616.6724                   22028614.7584
  -8544121.36747  -6647026.87544  22919426.5864                   22919426.1334
 -12823349.57448  -9982298.09446  22072174.0634                   22072172.2194
 -25866174.89148 -20142260.82447  20681105.1644                   20681102.7034
  -1818353.40647  -1406179.90244  23812886.3524                   23812885.0704
 -17195116.75848 -13386241.13346  21742385.5864                   21742385.8794
 -25322337.78948 -19718345.26245  21929330.8834                   21929326.5704
 11  8 29  2  0  0.0000000  0  8G10G12G26G29G05G15G25G02
  -9849378.62946  -7663098.61343  24503396.5704                   24503396.1604
 -19923400.19148 -15509908.69146  22041005.6644                   22041003.8954
  -8643856.28147  -6724742.34444  22900448.0554                   22900447.0164
 -12912748.29347 -10051959.39546  22055162.0004                   22055160.1174
 -25831460.75448 -20115210.84047  20687710.6024                   20687707.6684
  -1926157.28547  -1490182.78144  23792372.3524                   23792371.5944
 -17183415.84448 -13377123.55146  21744612.2974                   21744612.6054
 -25293737.39148 -19696059.24645  21934773.2974                   21934769.2814
 11  8 29  2  0 30.0000000  0  8G10G12G26G29G05G15G25G02
  -9751908.46946  -7587147.88343  24521944.1254                   24521943.9614
 -19857959.56648 -15458915.99246  22053458.6564                   22053456.9144
  -8743354.40647  -6802273.26644  22881513.4454                   22881512.4654
 -13001977.15248 -10121488.31646  22038182.0394                   22038180.2814
 -25796298.96948 -20087812.04747  20694402.2504                   20694399.5234
  -2033955.32047  -1574181.13344  23771858.7974                   23771857.7194
 -17171165.96148 -13367578.19546  21746943.0944                   21746943.8794
 -25265037.07448 -19673695.37545  21940234.7114                   21940231.2274
 11  8 29  2  1  0.0000000  0  8G10G12G26G29G05G15G25G02
  -9654379.97746  -7511151.68043  24540503.4144                   24540503.1604
 -19792187.93448 -15407665.39146  22065974.6414                   22065972.8714
  -8842612.53147  -6879617.19145  22862625.4844                   22862624.7544
 -13091034.28148 -10190883.43046  22021235.0634                   22021233.3594
 -25760692.31648 -20060066.60547  20701177.7114                   20701175.3524
  -2141745.25446  -1658173.15644  23751346.6724                   23751346.2974
 -17158369.18748 -13357606.68746  21749378.4224                   21749379.0084
 -25236236.66047 -19651253.50845  21945715.5784                   21945711.6414
 11  8 29  2  1 30.0000000  0  8G10G12G26G29G05G15G25G02
  -9556795.69146  -7435112.01243  24559072.8834                   24559073.0824
 -19726088.50848 -15356159.35546  22078553.1724                   22078551.4024
  -8941627.39147  -6956771.55545  22843783.8204                   22843782.2624
 -13179917.73848 -10260143.22746  22004321.3914                   22004318.9024
 -25724643.08248 -20031976.28546  20708037.6484                   20708035.2274
  -2249524.46147  -1742156.80944  23730836.5164                   23730836.3984
 -17145027.33248 -13347210.44146  21751917.0314                   21751917.6174
 -25207336.90648 -19628734.21545  21951214.5944                   21951210.9774
 11  8 29  2  2  0.0000000  0  8G10G12G26G29G05G15G25G02
  -9459158.45346  -7359031.07842  24577652.5084                   24577653.0274
 -19659665.00848 -15304400.79346  22091193.2274                   22091191.3874
  -9040395.44147  -7033733.59845  22824988.4304                   22824988.0314
 -13268625.68748 -10329266.25446  21987440.0164                   21987438.7114
 -25688153.75448 -20003543.04746  20714981.4614                   20714979.0274
  -2357290.41446  -1826130.13344  23710330.0554                   23710329.5904
 -17131142.28148 -13336390.92246  21754559.3754                   21754560.2114
 -25178337.73048 -19606137.47345  21956733.3444                   21956729.4144
 11  8 29  2  2 30.0000000  0  8G10G12G26G29G05G15G25G02
  -9361470.03145  -7282910.23442  24596241.7664                   24596242.0634
 -19592919.63747 -15252391.43046  22103894.1884                   22103892.3874
  -9138912.80547  -7110500.29745  22806241.1724                   22806240.6134
 -13357155.66848 -10398250.59846  21970593.3834                   21970591.9614
 -25651226.38348 -19974768.47347  20722008.2274                   20722005.7304
  -2465039.82847  -1910090.55544  23689824.9774                   23689825.0434
 -17116715.11348 -13325148.97346  21757304.8834                   21757305.4384
 -25149238.60548 -19583462.84045  21962270.6094                   21962266.9414
 11  8 29  2  3  0.0000000  0  7G12G26G29G05G15G25G02
 -19525855.90248 -15200133.98846  22116656.0634                   22116654.4494
  -9237176.09047  -7187069.02044  22787542.2974                   22787541.7464
 -13445505.39848 -10467094.49646  21953781.2344                   21953779.4304
 -25613863.69948 -19945654.69946  20729118.3754                   20729115.9654
  -2572770.41047  -1994036.32844  23669324.8914                   23669324.5474
 -17101747.94548 -13313486.24646  21760152.7814                   21760153.3794
 -25120039.73448 -19560710.47745  21967826.9614                   21967822.7624
 11  8 29  2  3 30.0000000  0  7G12G26G29G05G15G25G02
 -19458477.41848 -15147631.29746  22129477.9384                   22129476.0594
  -9335182.47347  -7263437.55545  22768892.3204                   22768891.2704
 -13533673.88748 -10535797.17246  21937003.3134                   21937001.5594
 -25576068.57848 -19916203.94946  20736310.6094                   20736307.9384
  -2680479.39147  -2077965.21144  23648828.0394                   23648828.7034
 -17086243.14848 -13301404.58646  21763103.3754                   21763104.0474
 -25090741.55148 -19537880.73045  21973402.0314                   21973398.2424
 11  8 29  2  4  0.0000000  0  7G12G26G29G05G15G25G02
 -19390784.27747 -15094883.40646  22142359.3834                   22142357.0354
  -9432925.07047  -7339600.56245  22750291.6884                   22750291.7504
 -13621655.76648 -10604354.43446  21920261.1724                   21920259.5044
 -25537840.27048 -19886415.65646  20743585.0864                   20743581.8874
  -2788161.62147  -2161873.32444  23628337.0234                   23628336.7854
 -17070199.29348 -13288902.86746  21766156.7034                   21766156.8014
 -25061341.03148 -19514971.24245  21978997.1414                   21978993.0984
 11  8 29  2  4 30.0000000  0  7G12G26G29G05G15G25G02
 -19322776.58247 -15041890.41446  22155300.3754                   22155299.2114
  -9530397.62547  -7415553.11745  22731743.6884                   22731742.7544
 -13709446.14148 -10672762.48046  21903555.3204                   21903552.8444
 -25499178.25848 -19856289.41046  20750941.9144                   20750939.5124
  -2895811.38347  -2245756.07844  23607852.1024                   23607851.1054
 -17053615.36748 -13275980.32446  21769312.2194                   21769313.1374
 -25031835.34048 -19491979.80546  21984611.8674                   21984607.8134
 11  8 29  2  5  0.0000000  0  8G21G12G26G29G05G15G25G02
   3052131.37916                  25176766.906
 -19254457.05147 -14988654.44146  22168301.5004                   22168299.9384
  -9627596.11747  -7491292.12545  22713247.4534                   22713246.6644
 -13797042.43448 -10741019.29346  21886885.9924                   21886884.0474
 -25460084.85248 -19825827.01247  20758381.2814                   20758379.1454
  -3003425.17647  -2329610.86744  23587373.8284                   23587373.3014
 -17036492.84048 -13262638.09046  21772570.7274                   21772571.0204
 -25002223.96548 -19468906.01645  21990246.4694                   21990242.6254
 11  8 29  2  5 30.0000000  0  8G21G12G26G29G05G15G25G02
   2985320.207 5                  25164052.016
 -19185831.35547 -14935179.89146  22181360.6484                   22181359.0204
  -9724519.69547  -7566816.94145  22694803.3914                   22694802.5634
 -13884445.08248 -10809125.20746  21870253.6094                   21870252.0434
 -25420564.56248 -19795031.98446  20765901.8594                   20765899.1294
  -3111002.83647  -2413437.49244  23566902.4384                   23566901.8444
 -17018835.98448 -13248879.49646  21775930.4694                   21775931.4774
 -24972509.18748 -19445751.63745  21995901.1024                   21995897.0864
 11  8 29  2  6  0.0000000  0  8G21G12G26G29G05G15G25G02
   2918521.941 6                  25151340.742
 -19116907.40247 -14881472.93745  22194475.9454                   22194474.7624
  -9821169.40247  -7642128.32445  22676411.9224                   22676410.3094
 -13971656.53948 -10877082.14846  21853658.1484                   21853655.8364
 -25380624.71948 -19763910.03546  20773502.1484                   20773499.8364
  -3218546.06247  -2497237.27344  23546438.2974                   23546436.0904
 -17000651.44948 -13234709.72746  21779391.1334                   21779391.5944
 -24942695.73848 -19422520.37945  22001574.3444                   22001570.4924
 11  8 29  2  6 30.0000000  0  8G21G12G26G29G05G15G25G02
   2851735.16446   2229580.18453  25138631.4454                   25138630.3054
 -19047688.48447 -14827536.15246  22207647.7034                   22207647.0204
  -9917541.94147  -7717223.73845  22658072.6484                   22658071.6484
 -14058675.08648 -10944888.77046  21837098.9694                   21837096.8674
 -25340268.18448 -19732463.38746  20781181.5944                   20781179.0944
  -3326052.69147  -2581008.56644  23525979.4224                   23525978.0354
 -16981941.29348 -13220130.38346  21782951.6024                   21782952.0744
 -24912783.82048 -19399212.39145  22007266.5944                   22007262.6134
 11  8 29  2  7  0.0000000  0  8G21G12G26G29G05G15G25G02
   2784958.75446   2177546.69542  25125924.2034                   25125923.9574
 -18978178.40648 -14773372.48445  22220875.7894                   22220874.3714
 -10013634.19947  -7792100.75445  22639786.7034                   22639785.3284
 -14145499.00048 -11012543.73446  21820576.8594                   21820575.1884
 -25299497.71948 -19700694.19546  20788940.0164                   20788937.6764
  -3433520.50847  -2664749.64144  23505529.0164                   23505527.2274
 -16962707.94948 -13205143.36746  21786611.2814                   21786611.8484
 -24882773.86748 -19375828.01645  22012977.1724                   22012973.3094
 11  8 29  2  7 30.0000000  0  8G21G12G26G29G05G15G25G02
   2718194.30946   2125522.48043  25113220.3524                   25113218.9384
 -18908377.69147 -14718982.35945  22234158.4144                   22234156.7774
 -10109440.50447  -7866754.96945  22621555.4774                   22621553.9694
 -14232123.92648 -11080043.64546  21804092.4694                   21804090.5204
 -25258313.65248 -19668602.71546  20796777.0704                   20796774.4844
  -3540944.03947  -2748456.16844  23485086.7664                   23485085.4454
 -16942951.16848 -13189748.48446  21790370.8754                   21790371.7074
 -24852663.48848 -19352365.39145  22018706.7814                   22018702.9304
 11  8 29  2  8  0.0000000  0  8G21G12G26G29G05G15G25G02
   2651440.00046   2073506.19543  25100517.1254                   25100516.5084
 -18838291.16447 -14664369.51246  22247495.6024                   22247494.0354
 -10204958.61347  -7941184.59845  22603378.7344                   22603377.6684
 -14318548.85948 -11147387.72746  21787646.6884                   21787644.4144
 -25216719.30148 -19636191.53146  20804692.1804                   20804689.5084
  -3648321.87547  -2832127.14844  23464653.2734                   23464652.1564
 -16922674.03148 -13173948.12546  21794229.3984                   21794230.1724
 -24822453.93448 -19328825.47745  22024456.0634                   22024451.4774
 11  8 29  2  8 30.0000000  0  8G21G12G26G29G05G15G25G02
   2584695.65246   2021497.66843  25087815.1804                   25087815.0554
 -18767920.99647 -14609535.64846  22260886.5864                   22260884.8324
 -10300183.97347  -8015386.12145  22585257.7194                   22585257.1524
 -14404771.15248 -11214573.89146  21771238.8594                   21771237.1094
 -25174716.84847 -19603462.35246  20812684.9924                   20812682.4224
  -3755650.44146  -2915759.66444  23444229.1024                   23444228.7624
 -16901877.84048 -13157743.31646  21798187.0704                   21798187.5314
 -24792144.29748 -19305207.57445  22030223.3134                   22030219.1914
 11  8 29  2  9  0.0000000  0  8G21G12G26G29G05G15G25G02
   2517960.84446   1969496.55943  25075117.0784                   25075116.2934
 -18697270.05947 -14554482.99645  22274330.9694                   22274329.4264
 -10395113.02347  -8089356.74645  22567193.7274                   22567192.5744
 -14490788.21548 -11281600.14146  21754870.7814                   21754868.2584
 -25132308.41847 -19570416.82446  20820754.9614                   20820752.7384
  -3862926.55946  -2999351.33244  23423814.7194                   23423814.3164
 -16880564.18048 -13141135.28546  21802242.7194                   21802243.1884
 -24761733.90248 -19281511.17245  22036010.6414                   22036006.7464
 11  8 29  2  9 30.0000000  0  8G21G12G26G29G05G15G25G02
   2451234.73846   1917502.25043  25062419.5234                   25062418.3524
 -18626341.90247 -14499214.32046  22287828.2034                   22287826.5234
 -10489742.19547  -8163093.70745  22549185.8594                   22549185.1454
 -14576598.01648 -11348464.88746  21738541.3054                   21738539.3954
 -25089496.52348 -19537056.91446  20828902.0474                   20828899.5514
  -3970147.44546  -3082899.95344  23403410.9144                   23403410.3484
 -16858735.32448 -13124125.80146  21806396.2894                   21806396.9224
 -24731223.16848 -19257736.57445  22041816.3674                   22041812.5314
 11  8 29  2 10  0.0000000  0  8G21G12G26G29G05G15G25G02
   2384517.01246   1865514.45743  25049723.7424                   25049723.0704
 -18555138.34847 -14443731.05145  22301377.8594                   22301376.2894
 -10584067.60547  -8236593.96945  22531237.1094                   22531236.0824
 -14662198.03948 -11415166.18046  21722251.9924                   21722249.6254
 -25046283.09848 -19503384.11746  20837124.8134                   20837122.6604
  -4077310.45747  -3166403.48844  23383018.5314                   23383018.4454
 -16836392.85248 -13106716.10246  21810648.2344                   21810649.0124
 -24700611.43748 -19233883.28145  22047641.4384                   22047637.4534
 11  8 29  2 10 30.0000000  0  8G21G12G26G29G05G15G25G02
   2317806.58646   1813532.37143  25037028.3444                   25037027.6214
 -18483663.93447 -14388036.73046  22314978.8134                   22314977.0704
 -10678085.93447  -8309854.96145  22513345.6094                   22513344.1644
 -14747586.26248 -11481702.43746  21706003.3834                   21706000.9734
 -25002671.07448 -19469400.72346  20845424.1954                   20845422.0664
  -4184412.58647  -3249859.59844  23362638.2974                   23362637.5274
 -16813539.07448 -13088907.97746  21814997.1414                   21814997.6954
 -24669899.04348 -19209951.54745  22053485.8054                   22053481.8484
 11  8 29  2 11  0.0000000  0  8G21G12G26G29G05G15G25G02
   2251103.58646   1761556.04743  25024335.6724                   25024333.5944
 -18411920.74247 -14332132.97745  22328631.1954                   22328629.8444
 -10771792.93447  -8382873.34045  22495513.9224                   22495512.6174
 -14832759.36748 -11548071.06646  21689795.1094                   21689793.2464
 -24958661.85948 -19435107.83646  20853798.7114                   20853796.3874
  -4291449.79747  -3333265.11745  23342270.1484                   23342269.4924
 -16790175.27348 -13070702.43446  21819443.1644                   21819444.0864
 -24639084.44148 -19185940.17645  22059350.0554                   22059346.0704
 11  8 29  2 11 30.0000000  0  8G21G12G26G29G05G15G25G02
   2184407.30946   1709584.97343  25011643.6334                   25011642.7734
 -18339911.69147 -14276022.04345  22342333.9694                   22342332.1724
 -10865184.90247  -8455646.25045  22477741.5394                   22477739.9024
 -14917715.92648 -11614270.96946  21673628.6484                   21673626.8674
 -24914258.32048 -19400507.68046  20862248.6334                   20862246.1644
  -4398419.73447  -3416618.21145  23321914.2344                   23321913.2544
 -16766303.53548 -13052101.09446  21823985.9774                   21823986.6414
 -24608167.92648 -19161849.39545  22065232.8524                   22065229.1804
 11  8 29  2 12  0.0000000  0  8G21G12G26G29G05G15G25G02
   2117717.53146   1657619.03943  24998952.2194                   24998951.9494
 -18267639.70747 -14219706.24245  22356087.1484                   22356085.3404
 -10958258.13747  -8528170.78545  22460030.2344                   22460029.3324
 -15002453.06648 -11680299.88746  21657503.7974                   21657501.3794
 -24869462.43748 -19365601.79746  20870773.1094                   20870770.4344
  -4505318.94947  -3499916.21545  23301572.1334                   23301571.4224
 -16741925.67648 -13033105.37946  21828624.5314                   21828625.1524
 -24577149.03148 -19137678.82845  22071135.7814                   22071131.9344
 11  8 29  2 12 30.0000000  0  8G21G12G26G29G05G15G25G02
   2051033.28546   1605657.37943  24986262.5314                   24986262.0664
 -18195108.15647 -14163188.17645  22369889.1094                   22369888.1174
 -11051009.23447  -8600444.30945  22442380.7504                   22442379.2234
 -15086968.95748 -11746156.39546  21641420.8754                   21641418.6804
 -24824276.76248 -19330392.18746  20879371.6414                   20879369.0824
  -4612144.78147  -3583157.03945  23281243.0314                   23281242.3484
 -16717043.96148 -13013717.05146  21833359.7894                   21833360.4064
 -24546027.94148 -19113428.63745  22077058.1884                   22077054.0044
 11  8 29  2 13  0.0000000  0  8G21G12G26G29G05G15G25G02
   1984355.37146   1553700.65243  24973574.5704                   24973573.5434
 -18122318.29747 -14106468.81645  22383740.7424                   22383739.2344
 -11143432.86347  -8672462.66845  22424792.3594                   22424791.5744
 -15171259.46148 -11811837.28146  21625380.7894                   21625379.0274
 -24778702.30948 -19294879.62546  20888044.3134                   20888041.2344
  -4718892.77347  -3666337.22744  23260928.9454                   23260928.7814
 -16691658.84048 -12993936.45746  21838190.2814                   21838190.7814
 -24514802.69548 -19089097.27345  22082999.7194                   22082995.9224
 11  8 29  2 13 30.0000000  0  8G21G12G26G29G05G15G25G02
   1917682.34446   1501747.74643  24960887.1174                   24960886.0984
 -18049274.94547 -14049551.93045  22397640.5634                   22397639.0044
 -11235526.69947  -8744224.04345  22407267.4304                   22407266.5274
 -15255323.45748 -11877341.68046  21609384.1094                   21609382.2304
 -24732742.63748 -19259066.90646  20896789.9844                   20896787.6024
  -4825560.86347  -3749455.13744  23240631.3674                   23240629.7234
 -16665773.43448 -12973766.02746  21843115.8834                   21843116.9844
 -24483473.93048 -19064685.25045  22088961.3134                   22088957.3524
 11  8 29  2 14  0.0000000  0  8G21G12G26G29G05G15G25G02
   1851013.00046   1449797.73043  24948199.7114                   24948198.9614
 -17975981.23447 -13992439.97345  22411587.7734                   22411585.8834
 -11327287.65647  -8815726.02745  22389806.3444                   22389805.1684
 -15339159.12148 -11942668.14146  21593430.5474                   21593428.9494
 -24686400.94548 -19222956.50446  20905608.7114                   20905605.9024
  -4932146.88747  -3832509.10944  23220348.7504                   23220346.6484
 -16639390.51248 -12953207.93746  21848136.5084                   21848137.7584
 -24452042.12547 -19040192.94545  22094943.0394                   22094938.7504
 11  8 29  2 14 30.0000000  0  8G21G12G26G29G05G15G25G02
   1784347.07446   1397850.32843  24935514.4614                   24935513.5864
 -17902440.08647 -13935135.19145  22425582.5864                   22425580.6024
 -11418711.58247  -8886965.39845  22372408.4774                   22372407.2934
 -15422763.87548 -12007814.68046  21577521.2344                   21577519.5634
 -24639678.80548 -19186549.64546  20914499.4534                   20914497.0004
  -5038647.25847  -3915496.34844  23200082.5314                   23200080.5904
 -16612511.76648 -12932263.47346  21853251.5634                   21853252.2934
 -24420506.39848 -19015619.66445  22100944.0234                   22100939.8634
 11  8 29  2 15  0.0000000  0  8G21G12G26G29G05G15G25G02
   1717684.55546   1345905.60244  24922828.4304                   24922828.1214
 -17828653.85947 -13877639.44545  22439623.2974                   22439622.1724
 -11509794.48447  -8957939.03145  22355076.1174                   22355074.6524
 -15506134.82448 -12072779.03546  21561656.0944                   21561653.9844
 -24592578.43048 -19149848.05546  20923462.2974                   20923460.0984
  -5145058.65647  -3998414.24244  23179832.2194                   23179831.3204
 -16585138.75448 -12910933.87146  21858460.5314                   21858461.5004
 -24388866.01247 -18990964.83645  22106964.6884                   22106960.8794
 11  8 29  2 15 30.0000000  0  8G21G12G26G29G05G15G25G02
   1651024.25847   1293962.63743  24910143.7504                   24910141.8834
 -17754626.23447 -13819955.60245  22453710.1644                   22453708.7074
 -11600533.07447  -9028644.38345  22337809.1094                   22337807.6334
 -15589270.08248 -12137559.72346  21545835.9304                   21545833.6484
 -24545102.55148 -19112853.86346  20932497.0004                   20932494.1024
  -5251378.43447  -4081260.75444  23159600.5084                   23159599.1454
 -16557274.05148 -12889221.12946  21863762.8284                   21863763.7344
 -24357121.34847 -18966228.74245  22113005.5864                   22113001.3984
 11  8 29  2 16  0.0000000  0  8G21G12G26G29G05G15G25G02
   1584365.88746   1242021.12943  24897458.9534                   24897457.9964
 -17680359.92247 -13762085.77345  22467842.6724                   22467841.0434
 -11690923.48847  -9099078.40645  22320608.2034                   22320607.5234
 -15672166.92248 -12202154.63746  21530061.2274                   21530059.4064
 -24497253.37148 -19075568.78946  20941602.4064                   20941599.6254
  -5357603.16447  -4164033.19944  23139386.8594                   23139385.0124
 -16528919.53148 -12867126.71546  21869158.2814                   21869159.5124
 -24325271.81647 -18941410.93045  22119066.3204                   22119063.0204
 11  8 29  2 16 30.0000000  0  8G21G12G26G29G05G15G25G02
   1517708.12546   1190080.12543  24884773.6884                   24884772.6954
 -17605859.24647 -13704033.31645  22482019.6024                   22482018.2194
 -11780963.32847  -9169239.27045  22303474.0474                   22303472.8134
 -15754824.30548 -12266562.96146  21514332.3204                   21514330.3404
 -24449034.46948 -19037995.62546  20950778.0164                   20950775.2544
  -5463731.05547  -4246730.18044  23119191.2814                   23119190.2504
 -16500078.60948 -12844653.29346  21874646.9774                   21874647.7234
 -24293318.39547 -18916512.17245  22125146.7114                   22125143.0004
 11  8 29  2 17  0.0000000  0  8G21G12G26G29G05G15G25G02
   1451051.18446   1138139.76643  24872089.6414                   24872087.9694
 -17531125.97747 -13645799.62145  22496241.1174                   22496239.8634
 -11870647.67247  -9239123.12945  22286408.1094                   22286406.8674
 -15837238.57448 -12330781.83646  21498648.8834                   21498646.9574
 -24400446.96548 -19000135.24246  20960023.9454                   20960021.4654
  -5569757.76247  -4329348.32444  23099015.1564                   23099013.6604
 -16470752.03548 -12821801.44546  21880227.3754                   21880228.0984
 -24261259.00847 -18891530.84045  22131248.1174                   22131243.7854
 11  8 29  2 17 30.0000000  0  8G21G12G26G29G05G15G25G02
   1384393.30946   1086198.65243  24859404.4064                   24859403.5664
 -17456164.24647 -13587387.90645  22510505.6644                   22510503.8634
 -11959973.94947  -9308727.95745  22269409.6334                   22269408.3324
 -15919408.57048 -12394810.37546  21483012.3284                   21483010.5514
 -24351494.48048 -18961990.44546  20969339.2894                   20969336.7344
  -5675681.44147  -4411886.17645  23078858.5784                   23078857.2304
 -16440943.37947 -12798573.93746  21885899.9454                   21885900.5474
 -24229094.77047 -18866467.80545  22137368.5004                   22137364.5394
 11  8 29  2 18  0.0000000  0  8G21G12G26G29G05G15G25G02
   1317734.12546   1034256.53143  24846720.0004                   24846718.7544
 -17380977.36747 -13528800.75045  22524813.8984                   22524811.7424
 -12048938.65647  -9378051.05145  22252480.2974                   22252478.7234
 -16001332.07848 -12458646.84846  21467423.2664                   21467421.3554
 -24302179.33248 -18923563.06246  20978723.5784                   20978721.4264
  -5781498.95347  -4494341.32445  23058721.7344                   23058720.7504
 -16410654.64848 -12774972.34846  21891663.9454                   21891664.5594
 -24196825.43747 -18841322.88745  22143509.3134                   22143504.8754
 11  8 29  2 18 30.0000000  0  8G21G12G26G29G05G15G25G02
   1251073.29346    982313.19142  24834034.2734                   24834033.5664
 -17305568.00847 -13470040.23845  22539163.2664                   22539161.8484
 -12137538.11347  -9447089.53945  22235620.3754                   22235618.7664
 -16083006.47748 -12522289.19546  21451880.5784                   21451878.7664
 -24252504.14848 -18884855.13346  20988176.5004                   20988174.0164
  -5887207.18447  -4576711.28545  23038606.4844                   23038605.5634
 -16379888.02748 -12750998.37546  21897518.3914                   21897519.3674
 -24164450.39847 -18816095.59045  22149669.6804                   22149666.1724
 11  8 29  2 19  0.0000000  0  8G21G12G26G29G05G15G25G02
   1184410.74646    930368.46542  24821348.8054                   24821347.2734
 -17229939.06647 -13411108.62945  22553554.9844                   22553553.6564
 -12225767.91447  -9515839.98445  22218830.4774                   22218829.6024
 -16164428.62548 -12585734.99646  21436386.6334                   21436384.6764
 -24202470.44548 -18845867.84046  20997697.6094                   20997694.9384
  -5992802.30147  -4658993.12545  23018512.0164                   23018510.5204
 -16348645.09848 -12726653.25046  21903463.8674                   21903464.6884
 -24131968.67647 -18790785.16445  22155850.7664                   22155846.8674
 11  8 29  2 19 30.0000000  0  8G21G12G26G29G05G15G25G02
   1117746.25446    878422.25842  24808663.2734                   24808661.2154
 -17154092.66447 -13352007.55945  22567988.1334                   22567986.3284
 -12313624.52347  -9584299.63345  22202112.3914                   22202110.7114
 -16245596.00448 -12648982.27046  21420941.0944                   21420939.1994
 -24152080.81248 -18806603.18446  21007286.1804                   21007283.6214
  -6098281.28947  -4741184.46545  22998440.0234                   22998438.6884
 -16316928.04748 -12701938.68446  21909499.5084                   21909500.0664
 -24099379.99247 -18765391.39145  22162052.0784                   22162048.2854
 11  8 29  2 20  0.0000000  0  8G21G12G26G29G05G15G25G02
   1051078.28946    826473.34042  24795976.0554                   24795975.3444
 -17078033.45747 -13292740.66845  22582461.8834                   22582460.1214
 -12401105.15647  -9652466.30545  22185464.9144                   22185463.4654
 -16326507.34448 -12712030.02346  21405543.9534                   21405542.0044
 -24101338.38748 -18767063.63746  21016942.4774                   21016939.5944
  -6203641.91047  -4823283.58245  22978390.4694                   22978389.4264
 -16284739.98048 -12676857.07846  21915624.9384                   21915625.6414
 -24066684.83247 -18739914.64845  22168273.7504                   22168270.1094
 11  8 29  2 20 30.0000000  0  8G21G12G26G29G05G15G25G02
    984406.52346    774521.43043  24783289.3914                   24783287.6994
 -17001763.88347 -13233309.84845  22596975.4534                   22596973.9264
 -12488205.80147  -9720336.88745  22168890.1484                   22168888.6174
 -16407159.82448 -12774876.07446  21390196.4844                   21390194.1414
 -24050245.12548 -18727250.71546  21026665.0314                   21026662.1134
  -6308880.87947  -4905287.90245  22958364.3674                   22958363.1334
 -16252082.91448 -12651410.02346  21921839.1094                   21921839.7894
 -24033882.27047 -18714354.21945  22174516.0634                   22174512.3954
 11  8 29  2 21  0.0000000  0  8G21G12G26G29G05G15G25G02
    917730.35546    722566.13343  24770600.8914                   24770599.5554
 -16925287.35247 -13173717.76645  22611528.4454                   22611526.9774
 -12574922.98847  -9787908.66845  22152388.2274                   22152386.9184
 -16487550.94148 -12837518.46946  21374898.5864                   21374896.3634
 -23998803.59048 -18687166.40246  21036454.2974                   21036451.2774
  -6413995.15647  -4987195.06645  22938361.2894                   22938360.3014
 -16218959.14548 -12625599.30546  21928142.4144                   21928143.2734
 -24000972.24647 -18688710.05545  22180778.5234                   22180774.7464
 11  8 29  2 21 30.0000000  0  8G21G12G26G29G05G15G25G02
    851049.34446    670607.03942  24757912.0004                   24757910.2034
 -16848606.53547 -13113966.48845  22626120.3754                   22626118.7074
 -12661253.31647  -9855179.00445  22135960.8754                   22135958.3484
 -16567678.36748 -12899955.37946  21359651.0394                   21359648.4964
 -23947016.33648 -18646812.69546  21046308.5084                   21046306.5234
  -6518981.36347  -5069002.44545  22918383.2344                   22918382.0664
 -16185371.03948 -12599426.75446  21934533.9774                   21934534.6054
 -23967954.10547 -18662981.64845  22187061.8444                   22187057.4534
 11  8 29  2 22  0.0000000  0  8G21G12G26G29G05G15G25G02
    784363.69546    618644.30543  24745222.2664                   24745220.3204
 -16771724.19147 -13054058.18445  22640750.3984                   22640748.7774
 -12747192.32047  -9922144.40645  22119606.1254                   22119605.1724
 -16647539.28948 -12962184.63346  21344453.8444                   21344451.2974
 -23894884.90648 -18606190.80946  21056229.1954                   21056226.7464
  -6623835.93747  -5150707.26645  22898430.2584                   22898428.7584
 -16151320.22348 -12572893.64846  21941013.7584                   21941014.8134
 -23934826.84447 -18637168.19945  22193365.5234                   22193361.9614
 11  8 29  2 22 30.0000000  0  8G21G12G26G29G05G15G25G02
    717672.57046    566677.27743  24732530.8364                   24732529.0984
 -16694643.40647 -12993995.23445  22655418.2424                   22655416.8164
 -12832736.62147  -9988802.26245  22103327.8594                   22103327.0084
 -16727131.34048 -13024204.38346  21329307.8364                   21329306.1524
 -23842412.22748 -18565303.00046  21066214.5554                   21066211.6804
  -6728556.09447  -5232307.34445  22878502.7584                   22878501.0234
 -16116809.23048 -12546001.95346  21947580.8524                   21947581.3524
 -23901590.46547 -18611269.73445  22199690.4454                   22199686.5904
 11  8 29  2 23  0.0000000  0  8G21G12G26G29G05G15G25G02
    650975.91446    514705.98443  24719839.1644                   24719837.4184
 -16617366.72347 -12933779.64545  22670123.6024                   22670122.3674
 -12917882.41047 -10055149.58245  22087125.2114                   22087123.7424
 -16806451.43448 -13086012.21146  21314213.7344                   21314211.5704
 -23789600.25448 -18524150.81646  21076264.1094                   21076261.4414
  -6833138.26647  -5313799.90245  22858600.8834                   22858599.0234
 -16081840.08648 -12518753.27046  21954235.2034                   21954235.5594
 -23868244.18047 -18585285.61745  22206035.8674                   22206032.0664
 11  8 29  2 23 30.0000000  0  8G21G12G26G29G05G15G25G02
    584272.10546    462729.09043  24707145.2814                   24707144.1684
 -16539898.57447 -12873414.85545  22684865.4224                   22684864.2154
 -13002627.11347 -10121184.36345  22070999.1724                   22070997.3164
 -16885498.84848 -13147607.57446  21299171.0944                   21299169.3094
 -23736452.40248 -18482736.91046  21086377.6094                   21086375.3204
  -6937580.35947  -5395183.30545  22838726.4774                   22838724.6294
 -16046416.37548 -12491150.37946  21960975.9454                   21960976.4384
 -23834788.74647 -18559216.45345  22212402.5474                   22212398.3554
 11  8 29  2 24  0.0000000  0  9G21G12G26G29G05G15G25G02G18
    517560.69547    410746.28543  24694450.9694                   24694449.6644
 -16462241.93447 -12812903.19945  22699642.5944                   22699641.4344
 -13086967.14847 -10186903.83245  22054949.4064                   22054948.0124
 -16964270.79748 -13208988.28146  21284181.4454                   21284179.2934
 -23682971.43048 -18441063.43446  21096554.5554                   21096552.5984
  -7041879.04747  -5476454.96545  22818879.2424                   22818877.3594
 -16010540.32848 -12463195.01646  21967803.4924                   21967804.0824
 -23801223.68447 -18533061.86745  22218789.5784                   22218785.5274
   3003315.85556   2350918.96153  24582541.0164                   24582541.5124
 11  8 29  2 24 30.0000000  0  9G21G12G26G29G05G15G25G02G18
    450837.94146    358754.65243  24681753.6024                   24681751.8794
 -16384403.03147 -12752249.51645  22714455.5394                   22714453.8984
 -13170902.36747 -10252307.85545  22038977.3134                   22038975.4614
 -17042768.07448 -13270154.96146  21269244.2424                   21269241.8484
 -23629162.80148 -18399134.63346  21106794.2034                   21106791.4844
  -7146034.75447  -5557615.19945  22799058.4454                   22799057.5434
 -15974217.62148 -12434891.60546  21974714.8444                   21974715.8794
 -23767551.84048 -18506824.06245  22225197.3834                   22225193.0744
   2904026.21946   2273550.58243  24563647.4224                   24563647.7304
 11  8 29  2 25  0.0000000  0  9G21G12G26G29G05G15G25G02G18
    384102.05146    306752.76643  24669053.8284                   24669052.5004
 -16306386.38347 -12691457.36345  22729301.6644                   22729299.9144
 -13254430.49247 -10317394.65245  22023082.3984                   22023080.9614
 -17120989.81648 -13331106.93746  21254358.5944                   21254357.0944
 -23575030.69948 -18356953.77746  21117094.9614                   21117092.6484
  -7250045.57447  -5638662.54745  22779265.7274                   22779264.9774
 -15937452.07048 -12406243.12146  21981711.3444                   21981712.1564
 -23733773.80148 -18480503.52345  22231624.8914                   22231620.7894
   2804913.63746   2196320.17643  24544786.8984                   24544786.5784
 11  8 29  2 25 30.0000000  0  9G21G12G26G29G05G15G25G02G18
    317351.97746    254739.83243  24656351.9774                   24656350.6994
 -16228195.44947 -12630529.38745  22744180.4844                   22744179.4144
 -13337548.43747 -10382161.84045  22007265.3364                   22007263.8364
 -17198933.72348 -13391842.42646  21239526.8364                   21239524.7344
 -23520577.18748 -18314522.47346  21127457.5004                   21127455.0274
  -7353908.86347  -5719594.93745  22759501.8364                   22759499.9734
 -15900246.46548 -12377251.73846  21988791.2504                   21988792.1374
 -23699890.02048 -18454100.58245  22238073.0784                   22238068.7664
   2705978.79746   2119228.20743  24525959.8444                   24525959.2194
 11  8 29  2 26  0.0000000  0  9G21G12G26G29G05G15G25G02G18
    250586.40646    202714.82443  24643646.5004                   24643645.5084
 -16149833.80547 -12569468.38745  22759092.5944                   22759090.9454
 -13420253.30947 -10446607.14145  21991526.9384                   21991525.5784
 -17276598.59448 -13452360.48846  21224747.6644                   21224745.4104
 -23465805.60248 -18271843.31646  21137880.3284                   21137877.7464
  -7457622.23447  -5800410.48045  22739765.9454                   22739763.9964
 -15862604.03948 -12347919.98446  21995954.3754                   21995955.0044
 -23665900.62947 -18427615.34045  22244540.4454                   22244536.7034
   2607222.51646   2042275.39843  24507167.6024                   24507166.6994
 11  8 29  2 26 30.0000000  0  9G21G12G26G29G05G15G25G02G18
    183806.22346    150678.43043  24630939.1484                   24630937.9774
 -16071303.35247 -12508275.85245  22774035.7344                   22774034.7274
 -13502540.46947 -10510726.95345  21975868.7034                   21975867.1994
 -17353980.52048 -13512658.07046  21210022.3204                   21210019.9964
 -23410717.59848 -18228917.60946  21148363.2034                   21148360.7934
  -7561181.09447  -5881105.62945  22720058.8914                   22720057.2304
 -15824525.99247 -12318248.78546  22003200.5084                   22003201.3364
 -23631804.06247 -18401046.59845  22251028.9614                   22251025.3134
   2508647.32446   1965463.68843  24488409.2734                   24488407.7624
 11  8 29  2 27  0.0000000  0  9G21G12G26G29G05G15G25G02G18
    117012.29346     98631.33643  24618228.2274                   24618227.5474
 -15992606.05947 -12446953.30145  22789011.3984                   22789010.5904
 -13584405.14847 -10574517.56645  21960290.0084                   21960288.3134
 -17431075.59848 -13572732.13746  21195351.4774                   21195349.0744
 -23355314.07848 -18185746.03546  21158906.1254                   21158903.2074
  -7664581.30547  -5961677.14845  22700382.4844                   22700380.6054
 -15786013.61348 -12288239.14546  22010529.0314                   22010529.6174
 -23597598.66847 -18374393.03145  22257538.3054                   22257534.1994
   2410255.86346   1888795.12943  24469685.9064                   24469684.0864
 11  8 29  2 27 30.0000000  0  9G21G12G26G29G05G15G25G02G18
     50205.02346     46573.85543  24605515.1564                   24605513.9964
 -15913743.74247 -12385502.18045  22804018.9774                   22804017.5904
 -13665842.84047 -10637975.45345  21944793.0474                   21944791.6914
 -17507880.58248 -13632580.15246  21180735.7034                   21180733.4144
 -23299596.40648 -18142329.66846  21169508.6724                   21169506.2974
  -7767818.79747  -6042121.87145  22680737.2894                   22680735.0744
 -15747068.27748 -12257892.14146  22017940.0234                   22017941.0784
 -23563282.66447 -18347653.30145  22264068.4844                   22264064.4574
   2312050.27346   1812271.41042  24450997.7584                   24450995.6954
 11  8 29  2 28  0.0000000  0  9G21G12G26G29G05G15G25G02G18
    -16616.25446     -5494.59843  24592800.0234                   24592799.0164
 -15834719.77047 -12323925.07045  22819056.6954                   22819054.8754
 -13746850.19147 -10701098.00845  21929377.6484                   21929376.3204
 -17584393.24248 -13692200.39146  21166176.1954                   21166173.9534
 -23243567.43748 -18098670.73846  21180170.5784                   21180167.9184
  -7870890.54347  -6122437.42245  22661122.5944                   22661121.3014
 -15707692.85948 -12227210.01646  22025433.0474                   22025433.7664
 -23528856.02747 -18320827.36745  22270619.1724                   22270615.9614
   2214031.37146   1735893.19142  24432345.6254                   24432343.3094
 11  8 29  2 28 30.0000000  0  9G21G12G26G29G05G15G25G02G18
    -83450.87546    -57573.39543  24580080.8984                   24580079.6134
 -15755536.29747 -12262223.68745  22834124.6804                   22834123.2234
 -13827422.73847 -10763881.75445  21914045.0314                   21914043.2384
 -17660610.12548 -13751590.14146  21151672.1414                   21151670.4844
 -23187228.75448 -18054770.45746  21190891.7974                   21190888.9344
  -7973792.36747  -6202620.58645  22641541.2344                   22641539.5864
 -15667888.79348 -12196193.88346  22033007.7584                   22033008.0274
 -23494317.43447 -18293914.19545  22277191.8754                   22277188.4184
   2116201.64146   1659662.38342  24413728.6414                   24413726.4774
 11  8 29  2 29  0.0000000  0  9G21G12G26G29G05G15G25G02G18
   -150300.14846   -109663.68043  24567360.3524                   24567358.7584
 -15676196.81647 -12200400.73845  22849223.1484                   22849221.6954
 -13907557.63747 -10826324.47745  21898795.8754                   21898794.5744
 -17736529.35548 -13810747.96546  21137225.7504                   21137223.4344
 -23130582.91048 -18010630.84046  21201670.8674                   21201667.9774
  -8076521.71547  -6282669.34845  22621992.3674                   22621990.6724
 -15627659.22748 -12164846.18446  22040663.0164                   22040663.7704
 -23459667.02047 -18266913.87945  22283785.6644                   22283781.4734
   2018561.89846   1583579.63342  24395148.3524                   24395146.0164
 11  8 29  2 29 30.0000000  0  9G21G12G26G29G05G15G25G02G18
   -217164.69546   -161765.83643  24554637.1094                   24554635.0784
 -15596704.97747 -12138459.06645  22864349.4694                   22864348.2704
 -13987251.89547 -10888423.84045  21883630.4454                   21883629.0394
 -17812149.07848 -13869672.39846  21122835.6884                   21122833.0004
 -23073633.28948 -17966254.50846  21212508.3284                   21212505.7774
  -8179075.93447  -6362581.62945  22602477.2194                   22602475.1334
 -15587007.16447 -12133169.28546  22048398.5234                   22048399.4144
 -23424904.63747 -18239826.31245  22290400.5944                   22290396.8164
   1921112.76246   1507645.41442  24376603.5314                   24376601.8404
 11  8 29  2 30  0.0000000  0  9G21G12G26G29G05G15G25G02G18
   -284044.48846   -213879.89543  24541909.2424                   24541907.8404
 -15517062.50447 -12076400.02045  22879505.1724                   22879503.5474
 -14066501.41847 -10950176.65645  21868549.5554                   21868548.6564
 -17887465.67248 -13928360.61746  21108503.3444                   21108500.4344
 -23016381.23848 -17921642.52346  21223402.8134                   21223400.1684
  -8281451.07047  -6442354.37545  22582995.7424                   22582993.8714
 -15545934.38748 -12101164.53946  22056214.5314                   22056215.0474
 -23390029.31647 -18212650.75045  22297037.2734                   22297033.7154
   1823856.17646   1431861.23443  24358096.4454                   24358095.4734
 11  8 29  2 30 30.0000000  0  9G21G12G26G29G05G15G25G02G18
   -350939.36346   -266005.72343  24529179.6414                   24529177.7934
 -15437272.64547 -12014226.13745  22894688.6174                   22894686.5984
 -14145302.30547 -11011579.89545  21853554.5164                   21853552.7894
 -17962476.98448 -13986810.96946  21094229.1724                   21094226.6414
 -22958828.88348 -17876796.53546  21234354.3754                   21234351.6764
  -8383643.61747  -6521984.84845  22563548.9224                   22563547.3524
 -15504443.12547 -12068833.71546  22064110.4694                   22064111.3204
 -23355040.00447 -18185386.37145  22303695.1644                   22303691.6454
   1726793.78146   1356228.43043  24339626.4534                   24339625.3284
 11  8 29  2 31  0.0000000  0  9G21G12G26G29G05G15G25G02G18
   -417851.14846   -318144.70743  24516446.8754                   24516444.7344
 -15357339.66447 -11951940.70745  22909899.1334                   22909897.5864
 -14223652.27747 -11072631.77345  21838645.0314                   21838642.9924
 -18037181.64148 -14045022.36746  21080013.2114                   21080011.1644
 -22900979.90248 -17831719.41046  21245362.7424                   21245360.4104
  -8485651.53547  -6601471.44945  22544137.3284                   22544136.2154
 -15462537.10248 -12036179.69546  22072084.5944                   22072085.2074
 -23319937.51247 -18158033.77745  22310375.5474                   22310371.3754
   1629925.68846   1280746.98443  24321192.7894                   24321191.3754
 11  8 29  2 31 30.0000000  0  9G21G12G26G29G05G15G25G02G18
   -484779.45746   -370296.57443  24503710.3674                   24503708.8984
 -15277265.52047 -11889545.28145  22925136.7734                   22925134.7934
 -14301547.34447 -11133329.18045  21823821.6414                   21823820.1134
 -18111576.36348 -14102992.26246  21065856.3984                   21065853.9494
 -22842835.95748 -17786412.43446  21256427.5084                   21256425.0274
  -8587471.30547  -6680811.45345  22524761.6884                   22524760.1914
 -15420218.25848 -12003203.99246  22080137.8754                   22080138.2894
 -23284720.73447 -18130592.14145  22317076.8054                   22317072.8134
   1533253.92646   1205418.52043  24302797.0554                   24302795.7384
 11  8 29  2 32  0.0000000  0  9G21G12G26G29G05G15G25G02G18
   -551725.22346   -422462.04743  24490971.3524                   24490969.2774
 -15197053.84047 -11827042.68445  22940400.7734                   22940399.2704
 -14378984.14147 -11193669.48845  21809086.6254                   21809084.7154
 -18185658.87148 -14160718.87146  21051758.6484                   21051756.7544
 -22784399.67648 -17740877.67646  21267547.7424                   21267544.6374
  -8689099.54747  -6760002.20745  22505422.4454                   22505420.9494
 -15377489.44948 -11969908.84846  22088268.7974                   22088269.9384
 -23249389.09847 -18103061.01645  22323800.1954                   22323796.3594
   1436779.72346   1130244.01643  24284438.3834                   24284437.4454
 11  8 29  2 32 30.0000000  0  9G21G12G26G29G05G15G25G02G18
   -618688.44546   -474641.12943  24478228.3054                   24478226.3984
 -15116706.94947 -11764434.70745  22955689.8834                   22955688.0164
 -14455959.30947 -11253650.10245  21794437.9924                   21794436.6094
 -18259426.35548 -14218199.99646  21037721.2814                   21037719.0864
 -22725673.34048 -17695116.89546  21278722.6884                   21278720.2504
  -8790533.06647  -6839041.23845  22486120.1954                   22486118.4414
 -15334353.10548 -11936296.13346  22096477.3754                   22096478.2664
 -23213942.18447 -18075440.06245  22330545.5004                   22330541.6994
   1340503.65646   1055223.87943  24266117.1724                   24266116.5314
 11  8 29  2 33  0.0000000  0  9G21G12G26G29G05G15G25G02G18
   -685670.41846   -526834.79343  24465482.2504                   24465480.9144
 -15036229.12147 -11701724.73045  22971004.2274                   22971003.5824
 -14532470.23447 -11313268.97345  21779878.5234                   21779877.0234
 -18332877.04748 -14275434.27746  21023743.9844                   21023741.8954
 -22666660.30548 -17649132.70746  21289952.6094                   21289949.7504
  -8891769.53947  -6917926.72745  22466855.5314                   22466853.9024
 -15290812.53148 -11902368.44546  22104762.9614                   22104763.8594
 -23178380.42247 -18047729.60245  22337312.8754                   22337308.6954
   1244426.71946    980358.89543  24247833.7974                   24247833.5434
 11  8 29  2 33 30.0000000  0  9G21G12G26G29G05G15G25G02G18
   -752670.59847   -579042.66443  24452732.3054                   24452730.3874
 -14955622.49647 -11638914.39145  22986343.1884                   22986342.0274
 -14608512.45347 -11372522.60545  21765408.5314                   21765406.4104
 -18406008.43448 -14332419.75046  21009827.2194                   21009825.5864
 -22607361.99648 -17602926.23446  21301236.6334                   21301234.2304
  -8992804.85247  -6996655.45745  22447629.0634                   22447627.5864
 -15246869.60548 -11868127.24246  22113124.9924                   22113125.7344
 -23142702.25847 -18019928.44945  22344102.3674                   22344098.3634
   1148550.78146    905650.51643  24229589.7034                   24229588.4064
 11  8 29  2 34  0.0000000  0  9G21G12G26G29G05G15G25G02G18
   -819689.58646   -631265.18443  24439979.3444                   24439977.3094
 -14874890.09847 -11576006.05945  23001705.9304                   23001705.1564
 -14684083.06247 -11431408.75845  21751027.7814                   21751026.3364
 -18478817.84047 -14389154.32046  20995972.3594                   20995970.4064
 -22547781.04348 -17556499.52046  21312574.4694                   21312572.0864
  -9093636.20747  -7075225.28145  22428441.0234                   22428438.9454
 -15202527.23848 -11833574.77746  22121563.3594                   22121564.0474
 -23106907.64547 -17992036.55545  22350913.8984                   22350909.7034
   1052876.90247    831099.61343  24211383.7814                   24211382.2664
 11  8 29  2 34 30.0000000  0  9G21G12G26G29G05G15G25G02G18
   -886727.75447   -683502.66843  24427222.2194                   24427220.9774
 -14794034.87947 -11513002.03545  23017092.1254                   23017091.3014
 -14759178.71147 -11489924.80945  21736737.5784                   21736735.7814
 -18551302.91847 -14445636.16446  20982179.1484                   20982176.5354
 -22487920.00848 -17509854.55946  21323965.6804                   21323963.2274
  -9194260.33647  -7153633.60945  22409293.2894                   22409291.2384
 -15157788.15248 -11798713.18046  22130076.9924                   22130077.8204
 -23070995.88347 -17964053.37545  22357747.3754                   22357743.3364
    957406.07446    756706.86743  24193215.3204                   24193214.4264
 11  8 29  2 35  0.0000000  0  9G21G12G26G29G05G15G25G02G18
   -953786.08647   -735755.84443  24414461.7734                   24414459.4694
 -14713060.43447 -11449905.09045  23032501.3594                   23032500.6884
 -14833796.03547 -11548068.14545  21722538.2274                   21722536.7544
 -18623461.46147 -14501863.58246  20968447.8364                   20968445.0904
 -22427781.28948 -17462993.22346  21335409.7424                   21335407.2704
  -9294674.52047  -7231878.35245  22390184.8594                   22390183.6484
 -15112655.11748 -11763544.60946  22138665.2664                   22138666.3204
 -23034966.51647 -17935978.54745  22364603.3134                   22364599.6724
    862139.16446    682473.08243  24175086.5554                   24175085.1914
 11  8 29  2 35 30.0000000  0  9G21G12G26G29G05G15G25G02G18
  -1020865.18447   -788025.21144  24401697.0944                   24401695.5204
 -14631969.89547 -11386717.71145  23047932.5394                   23047931.6724
 -14907932.46147 -11605836.75445  21708430.3284                   21708428.6564
 -18695291.19947 -14557834.78946  20954778.4844                   20954776.4654
 -22367367.71148 -17415917.71146  21346906.1644                   21346903.4774
  -9394875.61347  -7309957.04745  22371116.9534                   22371115.6994
 -15067131.26648 -11728071.51646  22147328.2974                   22147329.2274
 -22998819.68047 -17907812.19945  22371482.1174                   22371478.5164
    767077.28546    608399.07043  24156997.5394                   24156995.3484
 11  8 29  2 36  0.0000000  0  9G21G12G26G29G05G15G25G02G18
  -1087964.73446   -840310.53943  24388928.0394                   24388925.7344
 -14550765.83647 -11323441.84045  23063385.3444                   23063384.1914
 -14981584.20347 -11663227.68445  21694414.9304                   21694413.5204
 -18766789.39847 -14613547.64546  20941173.2814                   20941170.7464
 -22306681.41448 -17368629.69146  21358454.2424                   21358451.3444
  -9494860.14847  -7387867.00445  22352090.5864                   22352089.4884
 -15021218.83648 -11692295.62546  22156065.1094                   22156066.3914
 -22962554.60247 -17879553.71545  22378382.6884                   22378379.2194
    672222.09046    534486.03543  24138946.2814                   24138944.0044
 11  8 29  2 36 30.0000000  0  9G21G12G26G29G05G15G25G02G18
  -1155085.19147   -892612.12944  24376155.6644                   24376153.2344
 -14469451.10947 -11260079.74245  23078859.0234                   23078857.3324
 -15054747.64847 -11720238.12145  21680492.4144                   21680490.2584
 -18837953.69548 -14669000.32846  20927631.2194                   20927628.7034
 -22245724.78548 -17321131.03546  21370053.9064                   21370051.3834
  -9594624.99647  -7465605.77745  22333106.1334                   22333104.0204
 -14974920.56247 -11656219.06246  22164875.2814                   22164876.6564
 -22926170.75448 -17851202.68445  22385306.8054                   22385302.5124
    577574.41446    460734.69943  24120936.4384                   24120933.9264
 11  8 29  2 37  0.0000000  0  9G21G12G26G29G05G15G25G02G18
  -1222227.02346   -944930.39543  24363378.5004                   24363377.0084
 -14388029.15247 -11196634.07445  23094353.4224                   23094351.8284
 -15127419.79747 -11776865.75045  21666663.7734                   21666661.9964
 -18908781.60248 -14724190.87546  20914153.1484                   20914150.7074
 -22184500.22348 -17273423.58246  21381704.3444                   21381702.0274
  -9694167.70747  -7543171.44945  22314163.9144                   22314161.9574
 -14928239.19947 -11619844.00045  22173758.5784                   22173759.3364
 -22889667.65247 -17822758.71945  22392253.2814                   22392249.3484
    483135.34446    387145.93443  24102963.9384                   24102963.1804
 11  8 29  2 37 30.0000000  0  9G21G12G26G29G05G15G25G02G18
  -1289390.47746   -997265.49643  24350597.9304                   24350596.0314
 -14306502.32847 -11133106.69945  23109866.9614                   23109865.5704
 -15199597.10547 -11833107.78145  21652928.7974                   21652926.4224
 -18979270.62147 -14779117.36746  20900739.2584                   20900737.1414
 -22123009.96148 -17225509.10246  21393405.8594                   21393403.4344
  -9793483.69147  -7620560.46145  22295264.5164                   22295262.9734
 -14881177.24647 -11583172.35246  22182714.4224                   22182714.9414
 -22853044.21547 -17794220.99245  22399222.0784                   22399218.4804
    388906.43846    313720.94543  24085032.6954                   24085031.6334
 11  8 29  2 38  0.0000000  0  9G21G12G26G29G05G15G25G02G18
  -1356577.37146  -1049618.85543  24337812.2274                   24337811.1644
 -14224875.02747 -11069501.02744  23125400.4384                   23125398.6564
 -15271277.49647 -11888962.59845  21639288.1024                   21639286.2624
 -19049419.24647 -14833778.61746  20887390.4924                   20887388.1174
 -22061257.50048 -17177390.30946  21405156.7114                   21405154.3634
  -9892571.43047  -7697771.61745  22276408.5944                   22276407.4384
 -14833738.66847 -11546207.25446  22191741.5864                   22191742.4104
 -22816301.46147 -17765590.28545  22406214.1334                   22406210.1254
    294887.70747    240459.68043  24067141.8524                   24067140.1094
 11  8 29  2 38 30.0000000  0  9G21G12G26G29G05G15G25G02G18
  -1423788.19546  -1101990.82843  24325022.2734                   24325020.4964
 -14143150.38747 -11005819.50044  23140951.6724                   23140950.3594
 -15342458.25047 -11944428.09045  21625742.8444                   21625741.3984
 -19119225.52748 -14888173.10546  20874106.5394                   20874104.3834
 -21999245.41848 -17129069.20746  21416957.5004                   21416954.5554
  -9991428.25847  -7774802.85945  22257596.9064                   22257595.0944
 -14785926.59047 -11508951.09446  22200839.7734                   22200840.3834
 -22779438.82847 -17736866.16845  22413228.7664                   22413224.7304
    201079.65647    167362.62543  24049290.6804                   24049289.5044
 11  8 29  2 39  0.0000000  0  9G21G12G26G29G05G15G25G02G18
  -1491022.27746  -1154380.96143  24312227.7894                   24312226.5514
 -14061330.48046 -10942063.72744  23156521.6564                   23156520.1054
 -15413135.16047 -11999500.96945  21612293.5394                   21612291.7114
 -19188686.16048 -14942298.26246  20860889.0164                   20860886.4224
 -21936975.52748 -17080547.21946  21428806.8594                   21428804.6254
 -10090049.99647  -7851650.89545  22238829.8204                   22238827.9144
 -14737742.79747 -11471405.30146  22210008.9694                   22210009.2814
 -22742455.28547 -17708047.83645  22420266.6884                   22420263.0314
    107484.21147     94431.16443  24031479.9454                   24031477.8834
 11  8 29  2 39 30.0000000  0  9G21G12G26G29G05G15G25G02G18
  -1558280.02346  -1206789.52043  24299429.5164                   24299427.1524
 -13979418.24246 -10878236.00444  23172109.2584                   23172107.6454
 -15483304.76247 -12054178.53945  21598940.7344                   21598939.0314
 -19257798.66848 -14996152.15246  20847737.2894                   20847734.9614
 -21874450.03948 -17031826.07046  21440705.2584                   21440702.7234
 -10188433.53547  -7928313.34045  22220107.7734                   22220106.2664
 -14689189.95347 -11433571.92646  22219248.2504                   22219248.9064
 -22705350.09047 -17679134.72745  22427327.7584                   22427323.6954
     14102.87147     21666.55543  24013710.9144                   24013708.3794
 11  8 29  2 40  0.0000000  0  9G21G12G26G29G05G15G25G02G18
  -1625562.69146  -1259217.52744  24286625.7664                   24286624.1294
 -13897417.41846 -10814339.27044  23187713.0554                   23187711.6884
 -15552964.57447 -12108458.88345  21585684.8754                   21585683.1024
 -19326561.11348 -15049733.27046  20834652.2274                   20834649.5944
 -21811671.81248 -16982907.97346  21452651.7664                   21452649.0634
 -10286576.15247  -8004788.04745  22201432.1484                   22201430.0594
 -14640271.54747 -11395453.68745  22228556.9454                   22228558.0824
 -22668123.47747 -17650126.99245  22434411.5474                   22434407.8444
    -79063.91447    -50930.86343  23995981.5944                   23995979.6174
 11  8 29  2 40 30.0000000  0  9G21G12G26G29G05G15G25G02G18
  -1692869.61346  -1311664.39844  24273817.9064                   24273816.5274
 -13815330.06247 -10750375.09844  23203334.4614                   23203332.1174
 -15622111.00847 -12162339.19145  21572526.6804                   21572525.3984
 -19394970.62948 -15103039.37546  20821634.3204                   20821632.1334
 -21748642.83648 -16933794.49246  21464645.5634                   21464642.8364
 -10384474.27347  -8081072.24645  22182802.7274                   22182800.6724
 -14590989.77047 -11357052.30945  22237935.2894                   22237935.8874
 -22630774.04747 -17621023.55145  22441518.7664                   22441515.1334
   -172014.42247   -123359.75844  23978293.1174                   23978292.1884
 11  8 29  2 41  0.0000000  0  9G21G12G26G29G05G15G25G02G18
  -1760201.71546  -1364130.90244  24261005.3524                   24261003.0164
 -13733159.82447 -10686346.34844  23218970.8134                   23218969.0474
 -15690741.31647 -12215817.32045  21559466.7194                   21559464.9654
 -19463025.47748 -15156069.10946  20808683.5784                   20808681.7114
 -21685365.52748 -16884487.51246  21476686.9224                   21476684.3484
 -10482125.41847  -8157163.99245  22164219.8914                   22164218.2114
 -14541347.83247 -11318370.29346  22247381.7894                   22247382.6024
 -22593301.99647 -17591824.56245  22448649.7424                   22448645.7584
   -264748.62147   -195620.08644  23960646.2894                   23960645.1454
 11  8 29  2 41 30.0000000  0  9G21G12G26G29G05G15G25G02G18
  -1827559.62146  -1416617.50844  24248187.2814                   24248185.6054
 -13650910.20747 -10622255.73844  23234622.1644                   23234620.7974
 -15758852.69947 -12268891.09045  21546505.4304                   21546504.0084
 -19530723.28148 -15208820.63346  20795801.1804                   20795799.1174
 -21621843.11348 -16834989.53146  21488774.6884                   21488771.9654
 -10579526.22747  -8233060.67645  22145685.5004                   22145683.2074
 -14491348.94147 -11279410.12545  22256896.4614                   22256896.9024
 -22555707.04747 -17562529.80545  22455803.5234                   22455799.7894
   -357265.34046   -267710.92643  23943041.0314                   23943039.7234
 11  8 29  2 42  0.0000000  0  9G21G12G26G29G05G15G25G02G18
   -319521.85946   -241523.09444  24535157.2424                   24535155.3674
 -11993166.97747  -9330507.77345  23550080.6884                   23550078.7274
 -14251020.02047 -11093956.49645  21833436.6954                   21833434.3984
 -18022639.81648 -14033690.64846  21082780.0784                   21082777.6524
 -19982659.96548 -15557703.96946  21800701.2344                   21800698.1604
  -9101250.61347  -7081157.55145  22426991.6954                   22426989.7114
 -12865577.89547 -10012575.55145  22566269.9064                   22566270.9534
 -20942569.96947 -16305539.88745  22762773.4924                   22762769.5124
   1125859.55946    887970.89543  24225270.0864                   24225268.9454
 11  8 29  2 42 30.0000000  0  9G21G12G26G29G05G15G25G02G18
   -386933.90246   -294051.88344  24522328.7664                   24522328.2974
 -11910768.33247  -9266301.03945  23565760.4774                   23565758.7384
 -14318085.34047 -11146215.14845  21820674.9144                   21820672.6604
 -18089617.69148 -14085881.18446  21070034.3674                   21070031.9924
 -19918654.98448 -15507829.97746  21812880.4064                   21812878.3634
  -9198142.75047  -7156657.87145  22408553.9304                   22408551.3364
 -12814874.78547  -9973066.65245  22575918.6724                   22575919.6094
 -20904728.72347 -16276053.22745  22769974.3054                   22769970.6914
   1033779.77046    816220.50043  24207747.2424                   24207746.4924
 11  8 29  2 43  0.0000000  0  9G21G12G26G29G05G15G25G02G18
   -454373.50846   -346602.16344  24509495.9844                   24509493.7074
 -11828299.71547  -9202039.78945  23581453.6414                   23581452.3874
 -14384623.16847 -11198062.77345  21808012.8524                   21808010.5864
 -18156232.19948 -14137788.58246  21057357.9774                   21057355.9614
 -19854412.95748 -15457771.27346  21825105.4924                   21825102.8714
  -9294776.19947  -7231956.60945  22390164.8364                   22390162.5784
 -12763824.05947  -9933286.87146  22585633.3524                   22585634.2304
 -20866763.97347 -16246470.32045  22777199.1644                   22777195.1134
    941919.79746    744641.41443  24190266.9924                   24190265.5274
 11  8 29  2 43 30.0000000  0  9G21G12G26G29G05G15G25G02G18
   -521840.49246   -399173.73444  24496656.9774                   24496655.0354
 -11745763.03147  -9137725.50845  23597159.7344                   23597158.9844
 -14450629.59447 -11249496.32045  21795451.8054                   21795450.1954
 -18222479.94148 -14189410.18746  21044751.7974                   21044749.5274
 -19789934.85548 -15407528.60546  21837374.7034                   21837372.7704
  -9391146.77747  -7307050.52045  22371826.1174                   22371824.3364
 -12712427.55947  -9893237.66446  22595414.0634                   22595414.2384
 -20828673.94947 -16216789.79345  22784447.4924                   22784443.4734
    850281.37946    673234.93843  24172828.8054                   24172827.4734
 11  8 29  2 44  0.0000000  0  9G21G12G26G29G05G15G25G02G18
   -589334.28946   -451766.22743  24483813.2194                   24483811.3674
 -11663160.98446  -9073360.28945  23612877.8364                   23612876.9534
 -14516101.12947 -11300513.05946  21782993.2114                   21782991.9494
 -18288358.20748 -14240743.88746  21032215.2114                   21032212.5984
 -19725222.81648 -15357103.65646  21849689.4694                   21849686.9964
  -9487251.23047  -7381937.05945  22353537.9304                   22353535.8914
 -12660687.77347  -9852920.95345  22605259.5944                   22605260.2624
 -20790457.72347 -16187010.92645  22791719.7584                   22791716.2074
    758866.30946    602002.47343  24155433.1484                   24155431.6454
 11  8 29  2 44 30.0000000  0  9G21G12G26G29G05G15G25G02G18
   -656856.97746   -504381.20744  24470964.6564                   24470962.3874
 -11580497.89146  -9008947.53145  23628609.0234                   23628607.7894
 -14581036.25447 -11351111.81645  21770636.1334                   21770634.4574
 -18353866.18048 -14291789.03946  21019749.2814                   21019747.2584
 -19660280.40248 -15306499.18746  21862047.7424                   21862045.4734
  -9583087.51247  -7456614.63745  22335301.2504                   22335298.9494
 -12608609.10247  -9812340.19145  22615169.5474                   22615170.2664
 -20752116.37947 -16157134.56245  22799015.8134                   22799012.2504
    667673.70347    530943.38343  24138079.9304                   24138077.5044
 11  8 29  2 45  0.0000000  0  9G21G12G26G29G05G15G25G02G18
   -724407.64146   -557018.00443  24458109.7974                   24458107.6844
 -11497775.76646  -8944488.74644  23644349.9614                   23644348.8554
 -14645430.93048 -11401289.44545  21758382.1334                   21758380.4144
 -18419000.21148 -14342542.80946  21007355.0004                   21007352.6684
 -19595109.30148 -15255716.52346  21874449.4144                   21874447.0634
  -9678651.77747  -7531080.25045  22317115.9454                   22317113.7114
 -12556193.36347  -9771496.77345  22625144.2504                   22625145.2114
 -20713648.57047 -16127159.67245  22806336.1954                   22806332.0864
    576705.77347    460059.33643  24120769.0704                   24120766.8244
 11  8 29  2 45 30.0000000  0  9G21G12G26G29G05G15G25G02G18
   -791987.27046   -609677.38343  24445250.0234                   24445247.2814
 -11414997.85246  -8879986.49644  23660101.5554                   23660100.9304
 -14709282.50047 -11451043.88745  21746231.7584                   21746230.1804
 -18483758.64148 -14393003.90246  20995032.1954                   20995029.4804
 -19529712.12148 -15204757.70346  21886894.0394                   21886891.2544
  -9773941.07447  -7605331.60546  22298982.5704                   22298980.7424
 -12503443.85247  -9730393.27045  22635182.1484                   22635182.7814
 -20675053.80147 -16097085.82845  22813680.0314                   22813676.4224
    485962.97747    389350.71543  24103501.4304                   24103498.7894
 11  8 29  2 46  0.0000000  0  9G21G12G26G29G05G15G25G02G18
   -859597.03946   -662360.25443  24432384.3754                   24432381.2464
 -11332168.19947  -8815443.93744  23675863.6024                   23675863.1564
 -14772589.41047 -11500373.91045  21734185.1254                   21734183.2154
 -18548140.26248 -14443171.37546  20982780.2274                   20982778.1524
 -19464092.39848 -15153625.46546  21899381.1174                   21899378.7114
  -9868953.30147  -7679367.05945  22280902.6094                   22280900.6994
 -12450364.59447  -9689032.80945  22645282.5084                   22645283.5474
 -20636332.76247 -16066913.59845  22821048.8134                   22821045.2194
    395445.06647    318817.32843  24086276.5394                   24086274.0594
 11  8 29  2 46 30.0000000  0  9G21G12G26G29G05G15G25G02G18
   -927238.08647   -715067.51243  24419512.3444                   24419509.9024
 -11249290.57047  -8750863.98044  23691635.5554                   23691633.7854
 -14835349.02048 -11549277.45345  21722242.0704                   21722240.2234
 -18612142.98048 -14493043.59846  20970601.0784                   20970598.9734
 -19398252.88748 -15102321.96146  21911909.7114                   21911907.2034
  -9963686.05147  -7753184.74645  22262875.2504                   22262873.3634
 -12396959.07447  -9647418.12545  22655445.4844                   22655446.3244
 -20597485.55947 -16036643.05945  22828440.9064                   22828437.5434
    305152.73447    248459.72343  24069094.5164                   24069092.6524
 11  8 29  2 47  0.0000000  0  9G21G12G26G29G05G15G25G02G18
   -994909.99247   -767798.81243  24406634.8444                   24406632.0634
 -11166367.54347  -8686248.64544  23707414.7974                   23707413.3364
 -14897558.30148 -11597752.18745  21710404.2814                   21710402.1414
 -18675764.38348 -14542618.69946  20958494.3524                   20958491.6414
 -19332195.39148 -15050848.59046  21924480.1564                   21924477.2934
 -10058135.91447  -7826781.99245  22244901.8444                   22244899.9534
 -12343229.88347  -9605551.23445  22665669.5474                   22665670.3324
 -20558511.27347 -16006273.52045  22835857.2894                   22835853.8324
    215087.54347    178279.09043  24051955.3524                   24051953.4494
 11  8 29  2 47 30.0000000  0  9G21G12G26G29G05G15G25G02G18
  -1062613.13747   -820554.45343  24393751.1644                   24393748.2154
 -11083401.20346  -8621599.55944  23723202.3834                   23723201.4224
 -14959213.68048 -11645795.30145  21698671.5084                   21698669.5514
 -18739001.34048 -14591894.21947  20946460.8364                   20946458.3094
 -19265922.26248 -14999207.20746  21937091.5554                   21937089.3094
 -10152299.37547  -7900156.07445  22226983.4924                   22226981.2704
 -12289179.49647  -9563434.04745  22675955.1024                   22675956.2584
 -20519408.78947 -15975804.06645  22843298.9144                   22843294.7154
    125250.20347    108276.01243  24034860.0634                   24034858.3284
 11  8 29  2 48  0.0000000  0  9G21G12G26G29G05G15G25G02G18
  -1130348.27747   -873335.02044  24380861.7274                   24380859.4184
 -11000395.25847  -8556919.60944  23738998.5634                   23738996.8674
 -15020313.30148 -11693405.36346  21687044.2194                   21687042.6214
 -18801852.87148 -14640869.41046  20934500.2974                   20934497.8204
 -19199436.44148 -14947400.08646  21949743.5394                   21949741.1844
 -10246174.04347  -7973305.12545  22209119.3674                   22209117.3834
 -12234811.62547  -9521069.49245  22686301.4534                   22686301.9144
 -20480178.52347 -15945235.03545  22850763.8984                   22850759.8364
     35641.05546     38450.77043  24017807.4774                   24017806.1054
 11  8 29  2 48 30.0000000  0  9G21G12G26G29G05G15G25G02G18
  -1198114.78946   -926140.00843  24367966.0864                   24367963.5474
 -10917352.36747  -8492210.85244  23754801.2974                   23754799.2584
 -15080853.71948 -11740579.68046  21675524.3594                   21675522.1094
 -18864315.86748 -14689541.84846  20922614.4224                   20922611.7344
 -19132739.71148 -14895428.61746  21962435.3914                   21962433.2114
 -10339756.38347  -8046226.39146  22191311.1724                   22191309.7814
 -12180128.80547  -9478459.51246  22696706.7894                   22696707.4884
 -20440819.67647 -15914565.81645  22858253.9774                   22858249.9774
    -53738.63746    -31195.68043  24000799.0314                   24000797.9144
 11  8 29  2 49  0.0000000  0  9G21G12G26G29G05G15G25G02G18
  -1265913.21146   -978969.85544  24355063.7504                   24355062.0204
 -10834274.84847  -8427475.13344  23770610.0784                   23770608.7504
 -15140831.88348 -11787315.88746  21664110.5004                   21664108.3984
 -18926387.42648 -14737909.26646  20910802.4064                   20910799.8204
 -19065834.08648 -14843294.37146  21975167.1644                   21975164.5984
 -10433042.93447  -8118917.16045  22173559.5314                   22173557.7774
 -12125133.53147  -9435606.06245  22707171.9064                   22707173.1724
 -20401330.92647 -15883795.39145  22865767.9064                   22865764.6484
   -142887.46946   -100662.21944  23983834.7894                   23983833.4264
 11  8 29  2 49 30.0000000  0  9G21G12G26G29G05G15G25G02G18
  -1333744.30946  -1031825.14544  24342156.1954                   24342153.9574
 -10751166.37947  -8362715.30944  23786424.7424                   23786424.2734
 -15200245.51248 -11833612.19146  21652804.5554                   21652802.5044
 -18988065.96148 -14785970.43046  20899065.2424                   20899063.0044
 -18998722.60948 -14790999.71546  21987938.0314                   21987935.4414
 -10526031.37147  -8191375.63745  22155864.6644                   22155862.3794
 -12069829.45747  -9392512.00845  22717696.1484                   22717697.2274
 -20361712.72747 -15852924.08645  22873307.1024                   22873303.7384
   -231805.02746   -169948.55943  23966914.1644                   23966913.0554
 11  8 29  2 50  0.0000000  0  9G21G12G26G29G05G15G25G02G18
  -1401609.14846  -1084706.72743  24329241.3524                   24329239.9384
 -10668030.54747  -8297934.18444  23802245.3524                   23802244.1094
 -15259092.48048 -11879466.94145  21641606.2274                   21641604.4574
 -19049350.57848 -14833724.64846  20887403.2194                   20887401.0234
 -18931408.31248 -14738547.02346  22000747.6804                   22000744.8794
 -10618719.24647  -8263599.91446  22138226.4144                   22138224.1684
 -12014220.32447  -9349180.23845  22728278.2974                   22728279.2854
 -20321964.84847 -15821951.73845  22880871.2814                   22880867.2504
   -320491.07446   -239054.48843  23950038.0864                   23950036.6994
 11  8 29  2 50 30.0000000  0  9G21G12G26G29G05G15G25G02G18
  -1469507.10946  -1137614.11743  24316320.5394                   24316319.0204
 -10584869.44547  -8233133.35544  23818070.3054                   23818069.4224
 -15317369.35248 -11924877.46146  21630516.3204                   21630514.5594
 -19110237.62948 -14881169.08246  20875816.8204                   20875814.5124
 -18863892.95748 -14685937.66446  22013595.3364                   22013593.1294
 -10711102.62147  -8335586.90245  22120646.3054                   22120644.3284
 -11958308.22747  -9305612.36345  22738918.1024                   22738918.5044
 -20282086.53147 -15790877.75045  22888459.9064                   22888455.6914
   -408944.31246   -307979.03143  23933206.0944                   23933204.5004
 11  8 29  2 51  0.0000000  0  9G21G12G26G29G05G15G25G02G18
  -1537438.27346  -1190547.40643  24303393.8444                   24303392.0704
 -10501686.35547  -8168315.39144  23833899.3984                   23833898.3204
 -15375073.52048 -11969841.72745  21619535.6884                   21619533.5004
 -19170725.08648 -14928302.14147  20864306.4304                   20864303.9534
 -18796178.64848 -14633173.27046  22026480.8364                   22026478.6094
 -10803178.59447  -8407334.37946  22103124.7894                   22103122.8284
 -11902096.35547  -9261810.90645  22749614.6484                   22749615.4384
 -20242077.15647 -15759701.62945  22896073.1484                   22896069.1454
   -497163.84046   -376721.45344  23916418.0554                   23916416.6804
 11  8 29  2 51 30.0000000  0  9G21G12G26G29G05G15G25G02G18
  -1605403.66446  -1243507.36744  24290460.6644                   24290457.8134
 -10418483.57047  -8103482.07044  23849732.8134                   23849731.3914
 -15432202.36748 -12014357.67246  21608664.7664                   21608662.5474
 -19230810.62948 -14975122.02046  20852872.7274                   20852870.2304
 -18728267.87148 -14580255.78946  22039403.9224                   22039401.3094
 -10894944.22747  -8478840.01645  22085662.7894                   22085660.0594
 -11845587.87547  -9217778.30545  22760367.7344                   22760369.1454
 -20201936.42247 -15728423.16845  22903711.8674                   22903707.5594
   -585149.10547   -445281.32044  23899675.1954                   23899673.5904
 11  8 29  2 52  0.0000000  0  9G21G12G26G29G05G15G25G02G18
  -1673403.99247  -1296494.55144  24277520.9224                   24277517.9534
 -10335265.30947  -8038636.69144  23865569.1644                   23865567.5944
 -15488753.88348 -12058423.76246  21597903.1644                   21597901.1914
 -19290492.85248 -15021627.62546  20841515.1954                   20841513.1024
 -18660163.32848 -14527187.32446  22052363.7584                   22052361.1294
 -10986397.32047  -8550102.12946  22068259.5234                   22068257.4734
 -11788786.35547  -9173517.39845  22771176.9844                   22771177.3794
 -20161664.37547 -15697042.36744  22911374.9534                   22911371.2304
   -672899.48847   -513658.20344  23882977.0784                   23882975.2234
 11  8 29  2 52 30.0000000  0  9G21G12G26G29G05G15G25G02G18
  -1741439.31646  -1349508.99644  24264573.6954                   24264571.5204
 -10252034.27747  -7973781.36344  23881407.0864                   23881405.4844
 -15544725.21548 -12102037.75446  21587252.1884                   21587250.0354
 -19349769.05548 -15067816.84847  20830235.3364                   20830233.4064
 -18591867.39148 -14473969.71146  22065360.1024                   22065357.7304
 -11077534.67647  -8621118.22346  22050916.6804                   22050914.1294
 -11731694.60947  -9129030.34445  22782040.8834                   22782041.8984
 -20121260.07847 -15665558.52345  22919063.7114                   22919059.9964
   -760414.34047   -581851.56243  23866322.9844                   23866321.0944
 11  8 29  2 53  0.0000000  0  9G21G12G26G29G05G15G25G02G18
  -1809509.79746  -1402550.85944  24251620.3594                   24251618.5274
 -10168793.23447  -7908918.21944  23897247.2504                   23897246.0744
 -15600113.80948 -12145197.65646  21576712.2814                   21576710.0664
 -19408637.46148 -15113688.32047  20819033.1254                   20819030.5274
 -18523382.43048 -14420604.82446  22078392.4384                   22078390.0004
 -11168353.19947  -8691885.86746  22033634.3594                   22033631.8524
 -11674315.82847  -9084319.61745  22792959.7814                   22792960.8594
 -20080723.03147 -15633971.23844  22926777.9774                   22926774.2194
   -847693.25847   -649861.06243  23849714.2274                   23849712.7114
 11  8 29  2 53 30.0000000  0  9G21G12G26G29G05G15G25G02G18
  -1877616.12146  -1455620.64144  24238660.0314                   24238658.7424
 -10085545.28947  -7844049.69944  23913088.7894                   23913087.3364
 -15654917.23048 -12187901.59046  21566283.2664                   21566281.1454
 -19467095.84448 -15159240.28947  20807908.6884                   20807906.8834
 -18454711.18748 -14367094.77046  22091459.9384                   22091457.3714
 -11258849.99647  -8762402.81646  22016413.4384                   22016411.2704
 -11616653.29747  -9039387.80945  22803932.8134                   22803933.3954
 -20040053.34447 -15602280.61745  22934517.3054                   22934513.9264
   -934735.51247   -717686.14843  23833150.9534                   23833148.6914
 11  8 29  2 54  0.0000000  0  9G21G12G26G29G05G15G25G02G18
  -1945758.00446  -1508718.12944  24225693.0864                   24225691.2664
 -10002292.94947  -7779177.74244  23928930.8914                   23928929.7664
 -15709132.69948 -12230147.37545  21555966.2274                   21555963.9414
 -19525141.29748 -15204470.49647  20796862.8754                   20796860.8874
 -18385855.49248 -14313441.00046  22104562.8984                   22104560.2504
 -11349021.77047  -8832666.50846  21999254.1644                   21999252.2304
 -11558709.56248  -8994236.87145  22814959.2584                   22814959.7624
 -19999250.08647 -15570485.89545  22942282.2584                   22942278.1954
  -1021539.57846   -785325.68043  23816632.5084                   23816630.4264
 11  8 29  2 54 30.0000000  0  9G21G12G26G29G05G15G25G02G18
  -2013935.30946  -1561843.20744  24212719.3594                   24212717.1604
  -9919038.73847  -7714304.33244  23944774.0944                   23944772.3204
 -15762757.44148 -12271932.85246  21545762.0784                   21545759.5594
 -19582771.89548 -15249377.44147  20785896.2734                   20785894.0944
 -18316817.23848 -14259644.96946  22117700.2344                   22117698.2194
 -11438865.28147  -8902674.39846  21982157.2424                   21982155.7074
 -11500487.45747  -8948869.03545  22826038.2504                   22826039.3594
 -19958312.53547 -15538586.52745  22950072.2584                   22950067.8984
  -1108104.50446   -852778.82843  23800160.0864                   23800157.8134
 11  8 29  2 55  0.0000000  0  9G21G12G26G29G05G15G25G02G18
  -2082150.10547  -1614997.49644  24199738.4454                   24199736.6484
  -9835787.06647  -7649432.92644  23960616.7734                   23960614.7934
 -15815790.27748 -12313257.10945  21535669.8364                   21535667.9264
 -19639986.71148 -15293960.40247  20775008.7194                   20775006.5314
 -18247600.19548 -14205709.62946  22130871.9774                   22130869.3244
 -11528378.96547  -8972425.28946  21965123.3364                   21965121.5314
 -11441991.66447  -8903287.91445  22837169.6804                   22837170.5234
 -19917241.46947 -15506583.12544  22957887.6484                   22957883.6484
  -1194431.21146   -920046.34043  23783731.9844                   23783730.3634
 11  8 29  2 55 30.0000000  0  9G21G12G26G29G05G15G25G02G18
  -2150398.13347  -1668177.68044  24186751.7664                   24186749.7464
  -9752536.75847  -7584562.55944  23976458.2734                   23976456.4534
 -15868224.69548 -12354115.05146  21525692.2034                   21525689.9884
 -19696779.18448 -15338214.26647  20764201.1564                   20764199.0904
 -18178202.52347 -14151633.52346  22144077.9384                   22144075.6054
 -11617555.69147  -9041913.60246  21948153.7274                   21948151.7664
 -11383220.86347  -8857492.51245  22848353.2734                   22848354.3204
 -19876032.43747 -15474472.21144  22965729.0704                   22965725.5274
  -1280514.89846   -987124.44143  23767350.0314                   23767349.0514
 11  8 29  2 56  0.0000000  0  9G21G12G26G29G05G15G25G02G18
  -2218681.99247  -1721385.79344  24173757.3524                   24173755.0354
  -9669292.46147  -7519696.87944  23992298.8674                   23992297.5164
 -15920060.06647 -12394506.21546  21515828.0554                   21515826.3594
 -19753149.63348 -15382139.28147  20753474.3984                   20753472.1094
 -18108628.53147 -14097420.02746  22157317.3914                   22157314.9264
 -11706394.49647  -9111138.60546  21931248.3284                   21931245.8984
 -11324180.20747  -8811486.82845  22859588.4224                   22859589.7584
 -19834686.84047 -15442254.89544  22973597.4384                   22973593.0554
  -1366356.59446  -1054014.01243  23751015.6884                   23751013.8984
 11  8 29  2 56 30.0000000  0  9G21G12G26G29G05G15G25G02G18
  -2287002.21947  -1774622.25444  24160756.7034                   24160754.2854
  -9586057.27047  -7454838.31644  24008138.3364                   24008137.3524
 -15971294.53948 -12434429.14546  21506078.5004                   21506076.1374
 -19809096.62948 -15425734.32847  20742828.0554                   20742825.4844
 -18038881.17647 -14043071.46946  22170590.1414                   22170587.7424
 -11794893.10947  -9180098.52046  21914407.5394                   21914405.2774
 -11264873.34447  -8765273.71945  22870874.7504                   22870875.4574
 -19793204.55147 -15409931.03544  22981490.5164                   22981486.6024
  -1451956.14546  -1120714.88744  23734726.3754                   23734724.9384
 11  8 29  2 57  0.0000000  0  9G21G12G26G29G05G15G25G02G18
  -2355358.48047  -1827886.79744  24147748.8444                   24147746.1914
  -9502834.13347  -7389989.14844  24023975.1254                   24023973.7974
 -16021925.23448 -12473881.60246  21496443.1954                   21496441.9144
 -19864616.90648 -15468996.87147  20732263.0864                   20732260.7854
 -17968961.93747 -13988588.95746  22183895.3134                   22183892.9264
 -11883047.77748  -9248790.41846  21897632.3834                   21897629.9804
 -11205302.74247  -8718855.08645  22882209.7974                   22882211.1134
 -19751584.63347 -15377499.93744  22989410.6484                   22989406.7544
  -1537312.34446  -1187226.13344  23718484.1334                   23718482.5314
 11  8 29  2 57 30.0000000  0  9G21G12G26G29G05G15G25G02G18
  -2423752.57047  -1881180.80544  24134733.7894                   24134731.1644
  -9419626.78946  -7325152.27044  24039809.1724                   24039807.7934
 -16071950.87948 -12512862.59046  21486924.2734                   21486922.3444
 -19919709.61748 -15511926.24647  20721779.3284                   20721776.7734
 -17898874.35248 -13933975.26646  22197232.6334                   22197230.0984
 -11970856.87947  -9317213.05546  21880922.4384                   21880920.5084
 -11145472.75047  -8672234.32445  22893595.4844                   22893596.4654
 -19709827.80947 -15344962.17644  22997357.2424                   22997352.8794
  -1622425.73047  -1253548.18044  23702287.4844                   23702286.1094
 11  8 29  2 58  0.0000000  0  9G21G12G26G29G05G15G25G02G18
  -2492184.26647  -1934504.13344  24121711.1644                   24121708.6024
  -9336437.70346  -7260329.58244  24055639.2974                   24055638.3914
 -16121368.84048 -12551370.05546  21477519.9614                   21477518.0704
 -19974372.38748 -15554520.59847  20711376.8674                   20711374.9494
 -17828620.58247 -13879232.07846  22210601.0084                   22210598.5354
 -12058317.32048  -9385364.00046  21864279.3134                   21864277.0474
 -11085386.17647  -8625413.64145  22905029.7584                   22905030.6134
 -19667933.37147 -15312317.16845  23005329.5784                   23005325.7034
  -1707295.61347  -1319680.51244  23686137.2274                   23686135.6954
 11  8 29  2 58 30.0000000  0  9G21G12G26G29G05G15G25G02G18
  -2560654.05947  -1987857.17244  24108681.5314                   24108679.0274
  -9253270.35247  -7195523.85544  24071465.1644                   24071464.6724
 -16170177.16447 -12589402.48846  21468232.5314                   21468230.0434
 -20028603.37548 -15596778.50447  20701057.4614                   20701055.0664
 -17758203.07847 -13824361.31246  22224000.7894                   22223999.2114
 -12145426.44148  -9453241.19546  21847703.2814                   21847700.8524
 -11025046.40647  -8578395.67245  22916511.6484                   22916512.8284
 -19625900.96547 -15279564.66845  23013328.1724                   23013324.1954
  -1791921.22347  -1385622.48644  23670033.7734                   23670031.8954
 11  8 29  2 59  0.0000000  0  9G21G12G26G29G05G15G25G02G18
  -2629162.13346  -2041240.03543  24095645.4844                   24095641.9614
  -9170127.52046  -7130737.22344  24087286.8754                   24087285.6684
 -16218373.97748 -12626958.40246  21459060.9614                   21459058.9614
 -20082400.82448 -15638698.57847  20690819.8674                   20690817.4694
 -17687624.43047 -13769364.98046  22237432.2894                   22237429.3754
 -12232181.49648  -9520842.49246  21831194.0164                   21831192.4454
 -10964456.93047  -8531183.13745  22928041.8524                   22928042.6804
 -19583730.62147 -15246704.68445  23021352.8754                   23021348.6484
  -1876302.62147  -1451374.17244  23653976.3594                   23653974.4384
 11  8 29  2 59 30.0000000  0  9G21G12G26G29G05G15G25G02G18
  -2697708.61746  -2094652.82843  24082600.7504                   24082598.1094
  -9087011.78547  -7065971.71144  24103103.8524                   24103102.5744
 -16265956.41448 -12664035.59446  21450005.8674                   21450003.8404
 -20135762.28548 -15680278.92647  20680665.5474                   20680662.9734
 -17616886.23847 -13714244.31646  22250892.8674                   22250890.7274
 -12318579.33248  -9588165.44546  21814752.9844                   21814751.3284
 -10903620.46147  -8483778.14545  22939618.0634                   22939620.0124
 -19541421.49247 -15213736.56245  23029403.8364                   23029399.9224
  -1960438.05547  -1516934.20344  23637965.9694                   23637963.8524
 11  8 29  3  0  0.0000000  0  9G21G12G26G29G05G15G25G02G18
  -2766293.47746  -2148095.52743  24069549.0944                   24069546.5204
  -9003925.84447  -7001229.43744  24118914.3364                   24118913.2344
 -16312921.94148 -12700632.07446  21441068.8134                   21441066.9304
 -20188685.41448 -15721517.71947  20670594.7584                   20670592.3404
 -17545990.69147 -13659001.04746  22264383.5084                   22264381.5554
 -12404616.66848  -9655207.48446  21798380.8054                   21798378.4844
 -10842539.70347  -8436182.80145  22951242.1414                   22951243.0514
 -19498972.43447 -15180659.39544  23037481.3134                   23037477.7774
  -2044327.27047  -1582302.34844  23622002.2344                   23621999.4734
 11  8 29  3  0 30.0000000  0  9G21G12G26G29G05G15G25G02G18
  -2834916.14547  -2201567.65244  24056491.1254                   24056488.5164
  -8920871.57047  -6936511.84044  24134719.1094                   24134717.8674
 -16359267.87148 -12736745.76246  21432249.3834                   21432247.0904
 -20241167.70748 -15762412.98847  20660607.8204                   20660604.8714
 -17474939.57848 -13603636.54746  22277904.4844                   22277902.3094
 -12490290.14848  -9721966.00046  21782077.4534                   21782075.4804
 -10781217.28547  -8388399.13345  22962911.1174                   22962912.4614
 -19456382.84047 -15147472.73044  23045585.9844                   23045582.3134
  -2127968.87946  -1647477.59443  23606085.4064                   23606083.1094
 11  8 29  3  1  0.0000000  0  9G21G12G26G29G05G15G25G02G18
  -2903577.82046  -2255070.19944  24043425.3054                   24043423.2154
  -8837853.27047  -6871822.25044  24150516.8134                   24150515.4184
 -16404993.14848 -12772375.82046  21423548.1724                   21423546.0124
 -20293208.12948 -15802963.94947  20650704.5474                   20650702.2074
 -17403736.09848 -13548153.32446  22291454.4924                   22291451.7384
 -12575598.21548  -9788439.77346  21765843.9614                   21765842.0274
 -10719657.53547  -8340430.50445  22974625.5634                   22974626.5164
 -19413653.21547 -15114176.93744  23053717.4064                   23053713.1414
  -2211363.50047  -1712460.37944  23590215.6804                   23590213.4694
 11  8 29  3  1 30.0000000  0  9G21G12G26G29G05G15G25G02G18
  -2972277.84447  -2308602.62944  24030351.7734                   24030349.3444
  -8754872.30147  -6807161.73444  24166308.1334                   24166306.0664
 -16450094.45748 -12807519.66046  21414965.6094                   21414963.5554
 -20344803.30148 -15843167.96547  20640886.2344                   20640884.1804
 -17332381.43747 -13492552.30946  22305032.4694                   22305029.8164
 -12660536.50848  -9854625.40646  21749681.0164                   21749678.3524
 -10657862.28547  -8292278.37545  22986384.9534                   22986386.0514
 -19370781.96947 -15080770.80144  23061875.9064                   23061871.5234
  -2294509.43446  -1777249.35543  23574393.6174                   23574392.1054
 11  8 29  3  2  0.0000000  0  9G21G12G26G29G05G15G25G02G18
  -3041017.81247  -2362166.17644  24017271.0784                   24017268.7774
  -8671933.26647  -6742533.92244  24182090.3754                   24182089.3094
 -16494571.29348 -12842176.91046  21406501.7424                   21406499.5204
 -20395953.04748 -15883024.88747  20631152.9924                   20631150.5004
 -17260879.32447 -13436836.37945  22318638.8284                   22318636.1524
 -12745103.98848  -9920522.09446  21733587.7664                   21733586.1844
 -10595836.32447  -8243946.47345  22998187.8364                   22998189.0634
 -19327770.45747 -15047255.35944  23070060.5784                   23070056.0044
  -2377407.49246  -1841845.21943  23558618.3134                   23558616.1214
 11  8 29  3  2 30.0000000  0  9G21G12G26G29G05G15G25G02G18
  -3109796.92246  -2415760.23844  24004182.7424                   24004180.4344
  -8589037.44947  -6677939.74244  24197864.9694                   24197863.4384
 -16538420.11348 -12876344.79746  21398157.5394                   21398155.7154
 -20446654.00848 -15922532.10947  20621504.8984                   20621502.5274
 -17189230.49247 -13381006.13345  22332273.1334                   22332270.7304
 -12829296.19548  -9986126.36746  21717566.7584                   21717564.5784
 -10533581.52748  -8195436.25045  23010034.5864                   23010035.4064
 -19284616.59447 -15013629.00444  23078272.1024                   23078268.1564
  -2460055.97746  -1906246.58243  23542890.8134                   23542889.0164
 11  8 29  3  3  0.0000000  0  9G21G12G26G29G05G15G25G02G18
  -3178616.19947  -2469385.57044  23991087.1804                   23991084.2544
  -8506188.59446  -6613382.16044  24213630.7424                   24213629.0514
 -16581639.73848 -12910022.39846  21389933.4534                   21389931.3634
 -20496904.67248 -15961688.44947  20611942.1024                   20611939.5634
 -17117438.14547 -13325064.05545  22345934.4614                   22345932.2194
 -12913111.37548 -10051436.85546  21701617.1484                   21701614.9384
 -10471101.83648  -8146750.80145  23021924.2504                   23021924.8554
 -19241320.91447 -14979892.15244  23086511.4774                   23086507.9534
  -2542455.26647  -1970453.78143  23527210.8364                   23527209.1024
 11  8 29  3  3 30.0000000  0  9G21G12G26G29G05G15G25G02G18
  -3247474.65247  -2523041.47744  23977983.2814                   23977981.5904
  -8423388.64546  -6548862.73843  24229386.0084                   24229385.4734
 -16624227.27748 -12943207.46546  21381829.0004                   21381827.0164
 -20546702.62948 -16000492.03947  20602466.2274                   20602464.1134
 -17045503.82447 -13269011.34846  22359623.3984                   22359621.0004
 -12996545.79348 -10116450.65646  21685739.9614                   21685738.0904
 -10408399.55947  -8097891.89845  23033856.1334                   23033857.5704
 -19197881.87946 -14946043.60544  23094777.3364                   23094773.9344
  -2624603.41447  -2034465.28544  23511578.9304                   23511576.7424
 11  8 29  3  4  0.0000000  0  9G21G12G26G29G05G15G25G02G18
  -3316373.56247  -2576728.88744  23964872.8364                   23964869.9964
  -8340641.18047  -6484384.17243  24245133.2734                   24245131.3284
 -16666181.68748 -12975899.18446  21373845.4224                   21373842.9694
 -20596046.89148 -16038942.09847  20593076.3444                   20593074.1134
 -16973430.50447 -13212850.32845  22373338.7424                   22373336.3634
 -13079597.49648 -10181166.23846  21669935.8914                   21669933.3094
 -10345478.75447  -8048862.71545  23045829.3914                   23045830.3524
 -19154300.07847 -14912083.80944  23103071.1174                   23103067.4264
  -2706501.45347  -2098281.88344  23495994.0474                   23495991.9384
 11  8 29  3  4 30.0000000  0  9G21G12G26G29G05G15G25G02G18
  -3385313.47747  -2630448.26644  23951753.3594                   23951750.5904
  -8257949.50846  -6419949.06243  24260868.5554                   24260866.2074
 -16707501.62547 -13008096.51246  21365982.3054                   21365980.1844
 -20644935.77048 -16077037.32047  20583773.2424                   20583770.7344
 -16901220.57447 -13156582.86345  22387079.3754                   22387077.4964
 -13162264.68048 -10245582.18746  21654204.8204                   21654202.5784
 -10282343.12947  -7999666.12945  23057843.7974                   23057844.6604
 -19110575.66047 -14878012.88345  23111391.1724                   23111387.3244
  -2788149.09447  -2161903.40644  23480457.3364                   23480455.0744
 11  8 29  3  5  0.0000000  0  9G21G12G26G29G05G15G25G02G18
  -3454294.05547  -2684199.30544  23938627.1254                   23938624.1054
  -8175316.20746  -6355559.48843  24276593.3134                   24276591.7934
 -16748184.58247 -13039797.48046  21358240.7974                   21358238.4804
 -20693366.87948 -16114775.83247  20574556.9304                   20574554.4104
 -16828876.23047 -13100210.66046  22400846.3444                   22400844.1174
 -13244543.67648 -10309695.66046  21638547.8754                   21638545.4494
 -10218995.32047  -7950304.21945  23069898.4844                   23069899.6334
 -19066707.63347 -14843830.04745  23119739.7274                   23119735.4534
  -2869545.34847  -2225329.01644  23464967.4844                   23464966.2544
 11  8 29  3  5 30.0000000  0  9G21G12G26G29G05G15G25G02G18
  -3523314.78547  -2737981.66444  23925492.9694                   23925490.7304
  -8092742.92246  -6291216.66444  24292306.7194                   24292305.6054
 -16788227.69548 -13070999.87946  21350620.9774                   21350618.3554
 -20741337.50048 -16152155.53147  20565428.5864                   20565425.8984
 -16756399.11347 -13043734.98845  22414638.5554                   22414635.8554
 -13326430.85248 -10373503.81246  21622965.0164                   21622962.8324
 -10155437.79347  -7900778.87945  23081993.3674                   23081993.9694
 -19022694.63347 -14809534.23044  23128114.8364                   23128110.9654
  -2950688.91847  -2288557.73844  23449526.9614                   23449524.9964
 11  8 29  3  6  0.0000000  0  9G21G12G26G29G05G15G25G02G18
  -3592376.16447  -2791795.68744  23912351.0864                   23912348.2234
  -8010232.96146  -6226923.17244  24308007.2274                   24308006.5704
 -16827629.86348 -13101702.82446  21343122.7734                   21343120.6764
 -20788846.34448 -16189175.40647  20556387.5554                   20556385.3794
 -16683791.19547 -12987157.39545  22428455.3204                   22428452.9104
 -13407924.12948 -10437005.03946  21607457.3204                   21607454.9184
 -10091674.14548  -7851092.91045  23094127.1564                   23094127.9734
 -18978537.02047 -14775125.74645  23136517.6484                   23136513.9264
  -3031579.87547  -2351589.60544  23434133.2424                   23434131.6994
 11  8 29  3  6 30.0000000  0  9G21G12G26G29G05G15G25G02G18
  -3661478.50047  -2845641.60244  23899201.6174                   23899199.0164
  -7927789.18746  -6162681.28143  24323696.2664                   24323695.0944
 -16866389.05547 -13131904.75846  21335747.3674                   21335744.6764
 -20835891.57048 -16225834.01647  20547435.5554                   20547432.8204
 -16611055.25047 -12930480.04345  22442296.6724                   22442294.0354
 -13489021.17248 -10500197.50046  21592024.9774                   21592022.8714
 -10027707.74647  -7801248.96545  23106299.5004                   23106300.0354
 -18934234.25447 -14740604.13744  23144947.8134                   23144944.1914
  -3112217.87547  -2414424.37944  23418788.7034                   23418786.6524
 11  8 29  3  7  0.0000000  0  9G21G12G26G29G05G15G25G02G18
  -3730620.52347  -2899518.46544  23886044.2274                   23886041.5164
  -7845413.35946  -6098492.27744  24339372.5084                   24339370.6254
 -16904502.64548 -13161603.62946  21328494.3674                   21328492.1844
 -20882470.06248 -16262128.93447  20538571.6254                   20538569.8324
 -16538192.03947 -12873703.51645  22456161.9384                   22456159.2074
 -13569717.87148 -10563078.00846  21576668.9924                   21576666.8284
  -9963540.55547  -7751248.54745  23118510.0944                   23118511.0944
 -18889784.72347 -14705968.15244  23153406.6724                   23153402.7704
  -3192601.41847  -2477060.88744  23403492.1094                   23403489.6054
 11  8 29  3  7 30.0000000  0  9G21G12G26G29G05G15G25G02G18
  -3799803.82847  -2953427.48044  23872878.9774                   23872876.7734
  -7763109.24646  -6034359.20344  24355034.0164                   24355032.4694
 -16941969.51648 -13190798.56246  21321364.7274                   21321363.0004
 -20928581.06648 -16298059.57447  20529797.2734                   20529794.5204
 -16465204.68047 -12816830.26245  22470050.4224                   22470048.3014
 -13650012.19148 -10625644.98046  21561389.2274                   21561386.8674
  -9899176.77347  -7701094.95745  23130758.1024                   23130758.8914
 -18845189.03547 -14671218.30544  23161892.9384                   23161889.3874
  -3272730.87147  -2539499.38344  23388244.0474                   23388242.1684
 11  8 29  3  8  0.0000000  0  9G21G12G26G29G05G15G25G02G18
  -3869027.51247  -3007367.97744  23859705.8204                   23859704.2814
  -7680878.33646  -5970283.19944  24370681.3444                   24370680.5164
 -16978787.02748 -13219487.50046  21314358.5084                   21314356.3094
 -20974221.55548 -16333623.58247  20521112.4534                   20521109.8094
 -16392094.45347 -12759861.26245  22483963.3834                   22483960.9924
 -13729900.70348 -10687895.72346  21546187.0004                   21546184.7424
  -9834618.46147  -7650789.78945  23143043.1254                   23143043.6724
 -18800445.85547 -14636353.52344  23170406.9774                   23170403.5434
  -3352604.53947  -2601738.57844  23373044.5864                   23373042.9024
 11  8 29  3  8 30.0000000  0  9G21G12G26G29G05G15G25G02G18
  -3938290.76647  -3061339.29744  23846525.5234                   23846523.3794
  -7598722.98846  -5906266.07844  24386315.6804                   24386313.8874
 -17014953.10248 -13247668.82046  21307476.0554                   21307474.2424
 -21019389.40648 -16368819.29747  20512517.0704                   20512514.3984
 -16318863.00447 -12702797.80545  22497898.8754                   22497895.9264
 -13809380.30548 -10749827.83246  21531062.5314                   21531060.3984
  -9769868.65647  -7600335.40645  23155364.3444                   23155365.6644
 -18755554.35546 -14601373.18444  23178949.6484                   23178946.2074
  -3432222.27347  -2663778.33244  23357893.9694                   23357892.0004
 11  8 29  3  9  0.0000000  0  9G21G12G26G29G05G15G25G02G18
  -4007594.00046  -3115341.78944  23833337.2974                   23833335.1454
  -7516645.57047  -5842309.59044  24401934.7584                   24401932.6054
 -17050465.77748 -13275341.00446  21300718.1724                   21300716.0234
 -21064082.59048 -16403645.14547  20504012.0554                   20504009.5664
 -16245512.04347 -12645641.21545  22511856.9064                   22511854.2424
 -13888447.94148 -10811438.93446  21516016.4774                   21516014.1994
  -9704930.02347  -7549733.92645  23167721.9224                   23167723.5234
 -18710513.74246 -14566276.63344  23187520.2814                   23187517.6844
  -3511582.99647  -2725617.84044  23342791.8444                   23342790.0904
 11  8 29  3  9 30.0000000  0  9G21G12G26G29G05G15G25G02G18
  -4076937.84047  -3169375.90244  23820141.5944                   23820139.4344
  -7434649.87146  -5778416.81244  24417537.2814                   24417536.0274
 -17085324.14848 -13302503.33646  21294084.9304                   21294082.7894
 -21108300.28148 -16438100.48047  20495597.5634                   20495595.2584
 -16172045.20747 -12588394.33645  22525836.9924                   22525834.4574
 -13967101.91848 -10872727.70746  21501049.4304                   21501047.0634
  -9639806.79747  -7498988.63345  23180115.0554                   23180115.9024
 -18665324.46546 -14531064.22344  23196119.9614                   23196115.9184
  -3590687.39847  -2787257.59444  23327738.7734                   23327736.6374
 11  8 29  3 10  0.0000000  0  9G21G12G26G29G05G15G25G02G18
  -4146323.45747  -3223442.56644  23806937.8524                   23806935.9534
  -7352739.52346  -5714590.60544  24433123.7114                   24433123.8054
 -17119527.46548 -13329155.24646  21287576.7504                   21287574.0704
 -21152041.25848 -16472184.35247  20487274.1174                   20487271.3054
 -16098464.84447 -12531058.99245  22539839.0704                   22539836.7854
 -14045340.47748 -10933692.77046  21486160.7734                   21486158.4534
  -9574502.83647  -7448102.49245  23192541.9224                   23192543.1454
 -18619986.94147 -14495736.30144  23204747.5234                   23204744.1174
  -3669535.80147  -2848697.86744  23312734.7194                   23312732.9494
 11  8 29  3 10 30.0000000  0  9G21G12G26G29G05G15G25G02G18
  -4215751.12147  -3277542.02344  23793726.6564                   23793723.8324
  -7270916.76246  -5650832.67644  24448694.5944                   24448693.4844
 -17153074.10548 -13355295.45746  21281192.4224                   21281190.1024
 -21195303.60548 -16505895.26647  20479041.3444                   20479038.8054
 -16024773.30547 -12473637.02045  22553862.1174                   22553859.8134
 -14123160.84448 -10994331.96946  21471352.0084                   21471349.7304
  -9509021.30547  -7397077.96145  23205002.4064                   23205003.6214
 -18574500.78146 -14460292.55544  23213403.3524                   23213399.5664
  -3748127.88747  -2909938.42244  23297778.8914                   23297776.8554
 11  8 29  3 11  0.0000000  0  9G21G12G26G29G05G15G25G02G18
  -4285219.32447  -3331673.05544  23780507.0704                   23780503.7704
  -7189183.70346  -5587144.54344  24464248.5004                   24464246.0984
 -17185961.44548 -13380921.92646  21274934.3364                   21274931.9064
 -21238084.65248 -16539231.13747  20470900.4774                   20470897.8014
 -15950971.50447 -12416129.14145  22567906.2734                   22567903.7274
 -14200559.42248 -11054642.52046  21456623.2584                   21456621.4454
  -9443364.47347  -7345916.82045  23217496.5784                   23217498.1484
 -18528864.60547 -14424731.89544  23222087.2424                   23222084.0394
  -3826462.16047  -2970978.07444  23282872.3674                   23282870.5084
 11  8 29  3 11 30.0000000  0  9G21G12G26G29G05G15G25G02G18
  -4354728.81247  -3385836.29344  23767279.2504                   23767276.6094
  -7107542.79346  -5523528.21143  24479783.4304                   24479781.7384
 -17218188.15648 -13406033.62546  21268801.6414                   21268799.5434
 -21280382.90648 -16572190.80947  20462851.1644                   20462848.6884
 -15877061.90247 -12358537.25045  22581970.7664                   22581968.3554
 -14277533.79748 -11114622.52346  21441976.1644                   21441973.2304
  -9377535.60247  -7294621.63345  23230023.1484                   23230024.7814
 -18483078.11346 -14389054.12544  23230800.0634                   23230796.1454
  -3904538.25847  -3031816.55544  23268014.8674                   23268012.4654
 11  8 29  3 12  0.0000000  0  9G21G12G26G29G05G15G25G02G18
  -4424279.94946  -3440031.93444  23754043.9384                   23754041.7894
  -7025997.45746  -5459986.41843  24495301.0004                   24495299.0704
 -17249753.48848 -13430629.95746  21262795.2344                   21262792.9384
 -21322197.40248 -16604773.53147  20454894.1884                   20454891.7114
 -15803047.48447 -12300863.69545  22596055.3444                   22596052.5704
 -14354082.20348 -11174270.60246  21427409.1414                   21427406.8404
  -9311538.64847  -7243195.47745  23242582.1094                   23242583.5664
 -18437141.72746 -14353259.56644  23239542.2734                   23239538.1724
  -3982356.70347  -3092454.27744  23253206.4614                   23253204.5474
 11  8 29  3 12 30.0000000  0  9G21G12G26G29G05G15G25G02G18
  -4493872.53546  -3494259.86744  23740800.7894                   23740799.3204
  -6944550.10246  -5396520.98843  24510801.1804                   24510799.0864
 -17280655.37948 -13454709.33646  21256914.5234                   21256912.3164
 -21363525.87948 -16636977.53947  20447029.5704                   20447027.0784
 -15728929.28947 -12243109.27045  22610159.1804                   22610157.0204
 -14430201.64148 -11233584.41846  21412924.2734                   21412922.0044
  -9245376.27347  -7191640.39845  23255172.3524                   23255173.4694
 -18391054.42646 -14317347.37944  23248311.7344                   23248307.5164
  -4059916.64147  -3152890.55544  23238447.1804                   23238445.4774
 11  8 29  3 13  0.0000000  0  9G21G12G26G29G05G15G25G02G18
  -4563506.60946  -3548520.12544  23727551.0864                   23727548.1644
  -6863203.54746  -5333134.08244  24526280.6094                   24526279.3134
 -17310892.69548 -13478270.85946  21251160.6954                   21251158.0984
 -21404366.61348 -16668801.49247  20439258.2114                   20439255.2854
 -15654709.89547 -12185275.97745  22624282.6094                   22624280.6524
 -14505889.22747 -11292561.73046  21398521.6254                   21398518.7774
  -9179051.84447  -7139959.03145  23267793.5394                   23267794.4304
 -18344816.01646 -14281317.43744  23257110.8284                   23257106.7544
  -4137218.07447  -3213125.40244  23223737.1484                   23223735.2894
 11  8 29  3 13 30.0000000  0  9G21G12G26G29G05G15G25G02G18
  -4633182.16047  -3602812.71144  23714292.0234                   23714289.0864
  -6781960.32046  -5269827.66443  24541740.5394                   24541739.1254
 -17340463.64148 -13501313.13346  21245533.5234                   21245530.7274
 -21444717.96948 -16700244.10947  20431579.3284                   20431576.7154
 -15580391.02047 -12127365.18045  22638425.2664                   22638423.0204
 -14581142.29348 -11351200.46146  21384200.8984                   21384198.3014
  -9112568.26647  -7088153.65245  23280444.9304                   23280445.9574
 -18298425.78946 -14245169.24244  23265937.7114                   23265934.9844
  -4214260.18447  -3273158.19544  23209076.7274                   23209074.0554
 11  8 29  3 14  0.0000000  0  9G21G12G26G29G05G15G25G02G18
  -4702898.69947  -3657137.24644  23701025.5554                   23701022.2234
  -6700821.87946  -5206602.89142  24557180.6484                   24557178.8874
 -17369366.48848 -13523834.80946  21240033.4774                   21240030.9924
 -21484577.39148 -16731303.39847  20423994.3594                   20423992.0704
 -15505974.01247 -12069377.91845  22652586.0784                   22652583.7344
 -14655957.87947 -11409498.29346  21369963.8834                   21369961.3554
  -9045928.10247  -7036226.26644  23293125.9694                   23293127.1724
 -18251882.72346 -14208901.93744  23274795.1954                   23274791.2624
  -4291042.44147  -3332988.51244  23194465.6334                   23194463.0904
 11  8 29  3 14 30.0000000  0  9G21G12G26G29G05G15G25G02G18
  -4772656.40247  -3711493.88344  23687750.6954                   23687747.4574
  -6619791.53546  -5143462.36343  24572599.7974                   24572597.8954
 -17397599.85248 -13545834.81246  21234660.7974                   21234658.6804
 -21523943.56648 -16761978.33647  20416503.1954                   20416500.6684
 -15431461.20347 -12011316.00845  22666765.8834                   22666763.7384
 -14730333.93748 -11467453.64546  21355810.4224                   21355808.0234
  -8979134.86347  -6984179.58644  23305835.9144                   23305837.4224
 -18205186.78547 -14172515.53944  23283681.4224                   23283677.4734
  -4367564.39147  -3392615.96944  23179903.8444                   23179901.6134
 11  8 29  3 15  0.0000000  0  9G21G12G26G29G05G15G25G02G18
  -4842455.02047  -3765882.39144  23674468.4454                   23674464.4694
  -6538871.47346  -5080407.73444  24587998.9064                   24587997.1024
 -17425161.99648 -13567311.79746  21229415.9924                   21229413.5904
 -21562814.52748 -16792267.40247  20409106.7664                   20409103.9064
 -15356854.75847 -11953181.13345  22680962.8054                   22680960.7504
 -14804267.09048 -11525063.85946  21341741.6724                   21341739.2304
  -8912191.29747  -6932015.78144  23318574.8594                   23318575.9694
 -18158337.07447 -14136009.28944  23292596.8054                   23292593.3014
  -4443825.87147  -3452040.46544  23165391.3524                   23165389.4414
 11  8 29  3 15 30.0000000  0  9G21G12G26G29G05G15G25G02G18
  -4912296.09847  -3820303.97744  23661177.8524                   23661174.6604
  -6458065.93046  -5017442.39144  24603375.3054                   24603373.6644
 -17452053.41448 -13588266.13346  21224298.5784                   21224296.3164
 -21601190.32448 -16822170.61347  20401803.6094                   20401801.1954
 -15282157.65247 -11894975.63345  22695177.5084                   22695174.8554
 -14877756.68448 -11582328.44546  21327757.0704                   21327754.4734
  -8845102.28547  -6879738.64144  23331341.5634                   23331342.9654
 -18111334.98447 -14099384.29744  23301540.7734                   23301537.8244
  -4519827.91047  -3511262.79344  23150929.1254                   23150927.2624
 11  8 29  3 16  0.0000000  0  9G21G12G26G29G05G15G25G02G18
  -4982178.55947  -3874757.79744  23647879.8524                   23647876.5314
  -6377376.41846  -4954567.46943  24618729.6484                   24618728.3404
 -17478271.86748 -13608696.08246  21219309.4064                   21219307.1174
 -21639068.26248 -16851685.88347  20394595.8364                   20394593.1524
 -15207371.35547 -11836700.62145  22709408.5314                   22709406.8054
 -14950799.10948 -11639244.58646  21313857.4614                   21313854.8874
  -8777869.89547  -6827349.77344  23344136.2734                   23344136.9844
 -18064178.99246 -14062639.39144  23310514.8594                   23310510.7154
  -4595569.19547  -3570281.94144  23136516.2114                   23136513.6914
 11  8 29  3 16 30.0000000  0  9G21G12G26G29G05G15G25G02G18
  -5052102.14147  -3929243.62944  23634573.7664                   23634571.0044
  -6296804.91846  -4891784.48843  24634062.3444                   24634060.3324
 -17503815.44148 -13628600.14546  21214448.5084                   21214446.5904
 -21676445.96548 -16880811.35947  20387483.0784                   20387480.5824
 -15132497.18747 -11778357.14145  22723657.0004                   22723654.2734
 -15023391.42248 -11695809.98446  21300044.0944                   21300041.5394
  -8710496.75047  -6774851.20744  23356956.3444                   23356957.1524
 -18016868.10246 -14025773.77744  23319516.8444                   23319513.4734
  -4671049.11747  -3629097.42244  23122153.0784                   23122151.0164
 11  8 29  3 17  0.0000000  0  9G21G12G26G29G05G15G25G02G18
  -5122067.18747  -3983761.77044  23621260.4064                   23621256.9734
  -6216354.82847  -4829096.07844  24649371.5944                   24649369.7304
 -17528683.80948 -13647978.08246  21209716.2034                   21209713.6374
 -21713322.95348 -16909546.66447  20380465.5704                   20380463.3444
 -15057537.58647 -11719947.07845  22737920.9924                   22737918.8754
 -15095532.30548 -11752023.62946  21286315.5704                   21286312.7814
  -8642986.82047  -6722246.09044  23369803.4534                   23369804.1644
 -17969402.89546 -13988787.92244  23328549.6024                   23328546.0004
  -4746267.84847  -3687709.39144  23107839.2344                   23107837.1454
 11  8 29  3 17 30.0000000  0  9G21G12G26G29G05G15G25G02G18
  -5192072.89847  -4038311.62144  23607938.4144                   23607935.4694
  -6136028.15246  -4766503.85944  24664657.3054                   24664656.2854
 -17552875.10248 -13666828.42646  21205112.5784                   21205110.4734
 -21749696.93448 -16937890.01647  20373543.7424                   20373541.4064
 -14982494.12547 -11661471.68045  22752201.2894                   22752199.2974
 -15167218.06247 -11807882.61346  21272674.4064                   21272671.8164
  -8575342.69147  -6669536.39545  23382676.1724                   23382676.5984
 -17921782.32047 -13951680.99244  23337611.8134                   23337607.9774
  -4821224.97747  -3746117.50444  23093575.7504                   23093572.6564
 11  8 29  3 18  0.0000000  0  9G21G12G26G29G05G15G25G02G18
  -5262120.46547  -4092894.05144  23594608.8134                   23594605.7114
  -6055828.00446  -4704010.23044  24679918.7504                   24679917.9104
 -17576389.12148 -13685151.02046  21200638.0554                   21200636.2854
 -21785566.92648 -16965840.64547  20366717.7974                   20366715.3594
 -14907369.63347 -11602933.14545  22766497.4304                   22766494.7274
 -15238446.94547 -11863385.60246  21259120.0704                   21259117.2074
  -8507568.09047  -6616725.02345  23395572.6564                   23395574.1844
 -17874006.19947 -13914452.87144  23346703.4924                   23346699.9064
  -4895920.64847  -3804321.89544  23079360.6804                   23079358.6914
 11  8 29  3 18 30.0000000  0  9G21G12G26G29G05G15G25G02G18
  -5332209.60247  -4147508.88744  23581270.8134                   23581268.2464
  -5975756.91846  -4641617.21143  24695155.7034                   24695154.6954
 -17599224.25448 -13702944.61746  21196292.8444                   21196290.8834
 -21820931.10548 -16993397.13347  20359988.6094                   20359986.0864
 -14832166.33247 -11544333.18045  22780808.0784                   22780805.8914
 -15309216.77747 -11918530.88746  21245652.9774                   21245650.6174
  -8439666.15647  -6563814.44945  23408494.5944                   23408495.6724
 -17826074.46547 -13877103.48444  23355824.5314                   23355821.0944
  -4970354.66447  -3862322.38344  23065196.5704                   23065194.6804
 11  8 29  3 19  0.0000000  0  9G21G12G26G29G05G15G25G02G18
  -5402340.18747  -4202156.02744  23567925.8134                   23567922.3874
  -5895817.36346  -4579326.71943  24710367.8284                   24710366.2154
 -17621379.70348 -13720208.59046  21192076.9454                   21192074.2974
 -21855788.35248 -17020558.60547  20353355.4224                   20353352.8954
 -14756885.30547 -11485672.67245  22795133.5704                   22795131.3404
 -15379525.00848 -11973316.48446  21232273.8054                   21232271.6604
  -8371639.96147  -6510807.02745  23421438.9924                   23421440.4104
 -17777987.00047 -13839632.76644  23364974.6804                   23364971.8834
  -5044526.73047  -3920118.76244  23051082.1094                   23051079.7774
 11  8 29  3 19 30.0000000  0  9G21G12G26G29G05G15G25G02G18
  -5472511.52347  -4256834.94144  23554572.0944                   23554568.5514
  -5816011.30146  -4517140.18643  24725553.9454                   24725553.5084
 -17642853.66048 -13736941.52046  21187990.3284                   21187988.3204
 -21890136.57048 -17047323.43047  20346819.1954                   20346816.4144
 -14681528.02347 -11426952.73045  22809473.3204                   22809471.3714
 -15449368.84048 -12027740.21146  21218982.5944                   21218980.3054
  -8303492.21947  -6457704.93745  23434407.8284                   23434408.6024
 -17729742.49246 -13802039.69944  23374155.4144                   23374152.2814
  -5118436.10547  -3977710.43444  23037017.5704                   23037015.3094
 11  8 29  3 20  0.0000000  0  9G21G12G26G29G05G15G25G02G18
  -5542723.82447  -4311545.72744  23541210.6414                   23541207.7734
  -5736341.44146  -4455059.79743  24740715.6334                   24740714.2974
 -17663645.34848 -13753142.82046  21184033.8594                   21184031.5354
 -21923974.06248 -17073690.29747  20340380.0084                   20340377.4534
 -14606096.83247 -11368175.19145  22823827.6414                   22823825.2424
 -15518745.84848 -12081800.18446  21205780.6884                   21205778.2274
  -8235226.03547  -6404510.54745  23447397.9304                   23447399.2344
 -17681340.76246 -13764324.12544  23383365.6174                   23383362.9734
  -5192082.61747  -4035097.27744  23023002.2974                   23023000.7154
 11  8 29  3 20 30.0000000  0  8G21G26G29G05G15G25G02G18
  -5612977.59046  -4366288.85544  23527841.7274                   23527839.2704
 -17683754.41448 -13768812.20346  21180207.1724                   21180204.6214
 -21957300.13748 -17099658.65647  20334038.0004                   20334035.8134
 -14530594.21147 -11309342.00445  22838195.2344                   22838193.3444
 -15587654.36748 -12135495.10246  21192668.2664                   21192665.1374
  -8166845.24247  -6351226.83645  23460410.4304                   23460412.0234
 -17632782.03546 -13726486.19144  23392606.8594                   23392603.6604
  -5265466.94547  -4092279.82445  23009038.3364                   23009035.7304
 11  8 29  3 21  0.0000000  0  8G21G26G29G05G15G25G02G18
  -5683272.98446  -4421064.41844  23514465.1804                   23514462.4384
 -17703180.27748 -13783949.23046  21176510.3984                   21176508.5164
 -21990113.68048 -17125227.62947  20327793.9614                   20327791.5514
 -14455022.31647 -11250454.82445  22852576.2424                   22852573.6884
 -15656092.02348 -12188823.11346  21179644.4144                   21179641.7274
  -8098353.23847  -6297856.44145  23473443.3834                   23473445.3164
 -17584066.27747 -13688525.90644  23401876.8444                   23401873.3094
  -5338589.35547  -4149258.28544  22995123.3984                   22995121.6174
 11  8 29  3 21 30.0000000  0  8G21G26G29G05G15G25G02G18
  -5753607.58247  -4475870.52744  23501080.9844                   23501078.2774
 -17721919.62148 -13798551.30946  21172944.3754                   21172942.2274
 -22022410.75048 -17150394.17247  20321647.9694                   20321645.5474
 -14379380.56647 -11191513.20745  22866970.3914                   22866967.7974
 -15724054.15648 -12241780.59446  21166711.6644                   21166708.9694
  -8029750.70747  -6244399.95744  23486498.3834                   23486499.7034
 -17535190.73447 -13650441.09844  23411177.9774                   23411174.0664
  -5411446.82847  -4206030.30944  22981259.2274                   22981256.7774
 11  8 29  3 22  0.0000000  0  8G21G26G29G05G15G25G02G18
  -5823978.25447  -4530704.75844  23487689.7974                   23487687.6024
 -17739968.52348 -13812615.36346  21169510.0554                   21169507.9104
 -22054187.04748 -17175154.90647  20315601.3834                   20315598.5084
 -14303668.18747 -11132516.57445  22881378.2194                   22881375.5664
 -15791535.98848 -12294363.81646  21153870.4844                   21153867.8954
  -7961037.86747  -6190857.49244  23499573.6954                   23499575.6564
 -17486152.00047 -13612229.12144  23420509.5784                   23420506.2384
  -5484036.46147  -4262593.61344  22967445.6414                   22967443.8874
 11  8 29  3 22 30.0000000  0  8G21G26G29G05G15G25G02G18
  -5894383.96147  -4585566.29344  23474292.2584                   23474289.8874
 -17757325.42648 -13826140.20346  21166207.0784                   21166205.0824
 -22085440.23848 -17199508.03547  20309653.9454                   20309651.9534
 -14227886.38347 -11073465.81645  22895798.8444                   22895796.5824
 -15858534.24648 -12346570.21946  21141120.9694                   21141118.3284
  -7892217.23047  -6137231.03944  23512670.5314                   23512671.6954
 -17436948.85546 -13573889.06244  23429872.0394                   23429869.3794
  -5556357.30947  -4318947.46544  22953683.7344                   22953680.8594
 11  8 29  3 23  0.0000000  0  8G21G26G29G05G15G25G02G18
  -5964824.77047  -4640455.16444  23460887.5084                   23460884.9304
 -17773989.86748 -13839125.46146  21163035.8204                   21163033.8404
 -22116169.19948 -17223452.68047  20303806.5784                   20303804.0314
 -14152036.88347 -11014362.32845  22910232.5944                   22910229.9574
 -15925046.83248 -12398398.18046  21128464.2194                   21128461.3874
  -7823292.09047  -6083523.14844  23525785.8754                   23525787.4534
 -17387581.41846 -13535420.98444  23439267.2974                   23439263.7934
  -5628409.42647  -4375091.92244  22939972.0554                   22939970.7894
 11  8 29  3 23 30.0000000  0  8G21G26G29G05G15G25G02G18
  -6035301.43047  -4695371.99644  23447476.3834                   23447473.2854
 -17789961.75847 -13851571.08246  21159996.3984                   21159993.9924
 -22146373.50448 -17246988.48847  20298058.7734                   20298055.9144
 -14076122.07447 -10955207.93745  22924678.8054                   22924676.2974
 -15991071.94948 -12449846.30146  21115899.8674                   21115897.0744
  -7754266.18447  -6029736.72744  23538921.7344                   23538922.4344
 -17338050.07446 -13496825.19544  23448692.6884                   23448688.4064
  -5700193.38747  -4431027.42244  22926312.1644                   22926310.4614
 11  8 29  3 24  0.0000000  0  8G21G26G29G05G15G25G02G18
  -6105815.48847  -4750317.97344  23434057.7424                   23434054.9734
 -17805241.49248 -13863477.34446  21157088.7814                   21157086.4574
 -22176052.81648 -17270115.21547  20292410.9614                   20292408.6414
 -14000145.53547 -10896005.45345  22939136.4454                   22939134.2194
 -16056609.02748 -12500914.13346  21103428.3984                   21103425.6414
  -7685144.02347  -5975875.31644  23552075.2894                   23552076.0554
 -17288355.43746 -13458102.14544  23458149.0864                   23458145.3444
  -5771710.72747  -4486755.17644  22912703.0634                   22912700.7774
 11  8 29  3 24 30.0000000  0  8G21G26G29G05G15G25G02G18
  -6176366.57847  -4805292.80544  23420632.3754                   23420629.5944
 -17819828.75848 -13874844.03146  21154312.9694                   21154310.8244
 -22205206.43448 -17292832.30947  20286863.2194                   20286860.5594
 -13924109.38347 -10836756.52345  22953605.4534                   22953603.3324
 -16121655.91848 -12551600.00046  21091050.4384                   21091047.7584
  -7615929.00447  -5921941.53144  23565246.3204                   23565246.9774
 -17238497.58646 -13419251.91844  23467636.8524                   23467633.1524
  -5842961.01647  -4542274.83644  22899144.5004                   22899142.2114
 11  8 29  3 25  0.0000000  0  8G21G26G29G05G15G25G02G18
  -6246954.69547  -4860296.50844  23407200.6094                   23407196.8674
 -17833722.86348 -13885670.58646  21151669.0634                   21151666.9144
 -22233832.84848 -17315138.59847  20281415.7814                   20281413.4344
 -13848015.21947 -10777462.37945  22968085.7344                   22968083.6684
 -16186210.40248 -12601902.16846  21078766.0234                   21078763.7074
  -7546624.14147  -5867937.71144  23578434.2344                   23578435.2854
 -17188476.44146 -13380274.44544  23477155.2584                   23477151.6374
  -5913944.69147  -4597586.76644  22885637.2114                   22885634.6804
 11  8 29  3 25 30.0000000  0  8G21G26G29G05G15G25G02G18
  -6317580.09847  -4915329.25444  23393760.5394                   23393757.4534
 -17846923.55547 -13895956.82846  21149156.8134                   21149154.7774
 -22261930.89848 -17337033.17647  20276068.9304                   20276066.2814
 -13771865.34047 -10718124.83645  22982576.6644                   22982574.1684
 -16250270.49648 -12651819.09046  21066575.9144                   21066573.5084
  -7477232.94147  -5813866.62944  23591639.0164                   23591639.7854
 -17138291.72746 -13341169.51644  23486705.2344                   23486701.5744
  -5984661.87147  -4652691.02044  22872179.5554                   22872177.1644
 11  8 29  3 26  0.0000000  0  8G21G26G29G05G15G25G02G18
  -6388242.98447  -4970391.20345  23380313.7114                   23380310.8874
 -17859430.80147 -13905702.71546  21146777.1024                   21146775.2424
 -22289500.12148 -17358515.67647  20270822.6804                   20270820.3054
 -13695662.44947 -10658745.96145  22997077.3984                   22997075.1724
 -16313834.66848 -12701349.59846  21054479.8834                   21054477.4144
  -7407759.06247  -5759731.14144  23604860.0394                   23604860.0944
 -17087943.52346 -13301937.19944  23496286.2664                   23496282.9654
  -6055112.93047  -4707587.89544  22858773.1884                   22858771.2234
 11  8 29  3 26 30.0000000  0  8G21G26G29G05G15G25G02G18
  -6458943.96147  -5025482.86744  23366859.7814                   23366857.0594
 -17871244.47747 -13914908.15646  21144528.8674                   21144526.1374
 -22316539.52048 -17379585.34047  20265677.3524                   20265674.6214
 -13619408.18047 -10599327.06245  23011587.9924                   23011586.1294
 -16376901.51648 -12750492.57046  21042478.5164                   21042475.7664
  -7338206.24247  -5705534.14144  23618095.0394                   23618095.8324
 -17037432.23046 -13262577.80944  23505898.6564                   23505894.8714
  -6125298.55947  -4762277.94944  22845417.6414                   22845414.7504
 11  8 29  3 27  0.0000000  0  8G21G26G29G05G15G25G02G18
  -6529681.26247  -5080602.80144  23353398.4384                   23353396.1094
 -17882363.01648 -13923571.93746  21142413.2504                   21142410.7504
 -22343047.28548 -17400240.73447  20260632.7974                   20260630.1684
 -13543103.56647 -10539868.93045  23026108.5234                   23026106.8674
 -16439467.78948 -12799245.48446  21030572.8134                   21030570.1484
  -7268576.33647  -5651277.07044  23631345.2114                   23631346.7854
 -16986756.35546 -13223090.16044  23515541.5634                   23515538.2854
  -6195217.60547  -4816760.27344  22832112.1644                   22832109.8054
 11  8 29  3 27 30.0000000  0  8G21G26G29G05G15G25G02G18
  -6600455.64547  -5135751.62544  23339930.9224                   23339928.0434
 -17892786.42248 -13931694.05146  21140429.7974                   21140427.6644
 -22369022.62948 -17420481.26247  20255689.9384                   20255687.5164
 -13466750.82847 -10480373.29345  23040638.3834                   23040635.8284
 -16501531.70348 -12847606.95746  21018762.5314                   21018760.1374
  -7198873.03547  -5596962.83645  23644609.5944                   23644610.7034
 -16935916.15646 -13183474.44544  23525216.9454                   23525212.9224
  -6264870.34847  -4871035.07044  22818857.5394                   22818855.3914
 11  8 29  3 28  0.0000000  0  8G21G26G29G05G15G25G02G18
  -6671267.78947  -5190929.89544  23326455.2894                   23326452.9064
 -17902515.17648 -13939274.87946  21138578.2814                   21138575.9384
 -22394464.98848 -17440306.47747  20250848.2584                   20250845.7664
 -13390352.56247 -10420842.17645  23055176.4064                   23055174.3284
 -16563092.21948 -12895576.16046  21007047.4694                   21007044.9344
  -7129100.31247  -5542594.50844  23657886.8134                   23657887.9304
 -16884912.11346 -13143731.05143  23534922.7114                   23534918.1254
  -6334257.36747  -4925102.82045  22805653.5554                   22805651.6484
 11  8 29  3 28 30.0000000  0  8G21G26G29G05G15G25G02G18
  -6742117.53147  -5246137.47745  23312973.6094                   23312970.3554
 -17911549.47348 -13946314.57446  21136858.8204                   21136857.0864
 -22419373.75448 -17459715.90247  20246108.6334                   20246105.9614
 -13313911.21547 -10361277.48845  23069722.9454                   23069720.0704
 -16624147.55148 -12943151.71146  20995429.2974                   20995426.8714
  -7059261.80147  -5488174.94544  23671176.1804                   23671177.5514
 -16833744.81246 -13103860.43443  23544658.8984                   23544654.8444
  -6403379.84047  -4978964.42644  22792499.9694                   22792497.5984
 11  8 29  3 29  0.0000000  0  8G21G26G29G05G15G25G02G18
  -6813003.94147  -5301373.62945  23299484.6094                   23299481.2814
 -17919887.58648 -13952811.78146  21135271.9534                   21135269.8954
 -22443746.45348 -17478707.62147  20241470.6564                   20241468.0554
 -13237427.54347 -10301679.82445  23084276.9454                   23084274.0664
 -16684694.69548 -12990331.28146  20983907.3674                   20983905.4654
  -6989359.41047  -5433705.60244  23684478.0164                   23684479.4694
 -16782412.53146 -13063861.28143  23554426.4224                   23554423.4414
  -6472236.35947  -5032618.79344  22779396.9694                   22779394.4224
 11  8 29  3 29 30.0000000  0  8G21G26G29G05G15G25G02G18
  -6883927.89547  -5356639.03144  23285987.7194                   23285984.4184
 -17927529.77348 -13958766.71546  21133817.9844                   21133815.6994
 -22467582.83248 -17497281.42247  20236934.5474                   20236932.3364
 -13160903.71547 -10242050.84845  23098839.0554                   23098836.2894
 -16744732.20748 -13037113.72746  20972482.7814                   20972480.3524
  -6919396.84447  -5379189.35244  23697792.1414                   23697792.8794
 -16730915.44146 -13023733.70744  23564226.8834                   23564222.9454
  -6540827.44147  -5086066.32444  22766344.5164                   22766342.6994
 11  8 29  3 30  0.0000000  0  8G21G26G29G05G15G25G02G18
  -6954888.04347  -5411932.64545  23272484.8914                   23272481.2194
 -17934475.39148 -13964178.87546  21132496.3204                   21132494.1564
 -22490881.28948 -17515436.06647  20232501.0554                   20232498.6524
 -13084340.97747 -10182391.57445  23113408.0944                   23113405.4384
 -16804257.45348 -13083497.00046  20961155.2584                   20961152.8134
  -6849376.68447  -5324628.24244  23711116.4304                   23711118.0944
 -16679252.87946 -12983477.22744  23574057.9694                   23574054.2114
  -6609152.53947  -5139306.60544  22753342.5864                   22753340.8874
 11  8 29  3 30 30.0000000  0  8G21G26G29G05G15G25G02G18
  -7025884.97347  -5467254.88745  23258974.2034                   23258971.7344
 -17940724.99648 -13969048.67646  21131307.2114                   21131304.7424
 -22513641.45348 -17533171.26647  20228169.8914                   20228167.4414
 -13007742.10947 -10122704.13745  23127984.2584                   23127981.9694
 -16863269.48048 -13129480.36346  20949925.8984                   20949923.6094
  -6779302.89847  -5270025.32044  23724450.9534                   23724452.1804
 -16627425.52047 -12943092.30544  23583920.2974                   23583916.4104
  -6677212.99647  -5192340.66444  22740391.0554                   22740388.2934
 11  8 29  3 31  0.0000000  0  8G21G26G29G05G15G25G02G18
  -7096917.64147  -5522604.97344  23245457.0004                   23245455.1024
 -17946277.46548 -13973375.26246  21130250.3984                   21130247.6914
 -22535861.78548 -17550485.81247  20223941.3984                   20223939.4574
 -12931108.04747 -10062989.27745  23142567.4144                   23142564.6414
 -16921765.47348 -13175061.62946  20938794.4844                   20938791.5554
  -6709177.86347  -5215382.48444  23737795.4614                   23737796.6644
 -16575432.32447 -12902578.14144  23593814.8674                   23593811.2464
  -6745007.90647  -5245167.82045  22727489.8914                   22727487.5784
 11  8 29  3 31 30.0000000  0  8G21G26G29G05G15G25G02G18
  -7167987.42647  -5577983.97745  23231933.1484                   23231929.8794
 -17951134.15248 -13977159.69146  21129326.1174                   21129323.8524
 -22557542.38348 -17567379.78147  20219816.0864                   20219813.4844
 -12854441.55547 -10003249.15245  23157156.2424                   23157154.1724
 -16979745.04348 -13220240.48446  20927761.3284                   20927758.7154
  -6639005.93447  -5160703.09444  23751148.7424                   23751149.7344
 -16523274.26647 -12861935.52044  23603739.9384                   23603736.8834
  -6812538.53947  -5297789.02745  22714639.2424                   22714637.4734
 11  8 29  3 32  0.0000000  0  8G21G26G29G05G15G25G02G18
  -7239092.79347  -5633390.70745  23218402.1884                   23218398.9654
 -17955293.82048 -13980400.97346  21128534.5394                   21128532.3834
 -22578681.28948 -17583851.66847  20215793.6724                   20215790.5864
 -12777743.44947  -9943484.39145  23171751.2974                   23171749.2814
 -17037204.90648 -13265014.36346  20916826.4844                   20916824.5784
  -6568789.07447  -5105988.65644  23764510.5394                   23764511.2894
 -16470949.92247 -12821163.34444  23613697.1954                   23613693.4574
  -6879803.68447  -5350203.37545  22701839.1724                   22701836.3484
 11  8 29  3 32 30.0000000  0  8G21G26G29G05G15G25G02G18
  -7310233.25447  -5688824.79345  23204863.9614                   23204861.1024
 -17958755.91848 -13983098.70746  21127875.9694                   21127873.5514
 -22599277.05148 -17599900.32047  20211874.0474                   20211871.2234
 -12701015.17647  -9883696.13345  23186352.2734                   23186350.0864
 -17094142.77048 -13309381.49646  20905992.0474                   20905989.4614
  -6498529.95747  -5051241.31244  23777880.9064                   23777881.3674
 -16418458.72347 -12780261.12144  23623685.7034                   23623682.7734
  -6946803.66447  -5402411.07445  22689089.4534                   22689087.0944
 11  8 29  3 33  0.0000000  0  8G21G26G29G05G15G25G02G18
  -7381408.18447  -5744285.72745  23191320.4614                   23191316.9924
 -17961520.04348 -13985252.56246  21127349.8134                   21127347.5394
 -22619328.61748 -17615524.91047  20208058.2504                   20208055.9184
 -12624257.96147  -9823885.30945  23200958.8204                   23200956.9064
 -17150556.75048 -13353340.40646  20895256.5704                   20895254.0164
  -6428231.64847  -4996463.41044  23791258.4064                   23791258.6564
 -16365800.38746 -12739228.62944  23633705.9774                   23633702.3874
  -7013537.99647  -5454411.77345  22676390.3984                   22676387.9104
 11  8 29  3 33 30.0000000  0  8G21G26G29G05G15G25G02G18
  -7452617.64547  -5799773.56644  23177769.6414                   23177766.6914
 -17963586.26648 -13986862.60246  21126956.6094                   21126953.7424
 -22638834.90248 -17630724.61747  20204346.4304                   20204344.0004
 -12547473.86347  -9764053.55145  23215570.2034                   23215568.4304
 -17206445.16848 -13396889.79746  20884621.3754                   20884618.8094
  -6357897.11347  -4941657.27744  23804642.0704                   23804642.0354
 -16312974.70746 -12698065.78943  23643758.0004                   23643753.9694
  -7080006.67247  -5506205.48045  22663741.3914                   22663739.8444
 11  8 29  3 34  0.0000000  0  8G21G26G29G05G15G25G02G18
  -7523861.95747  -5855288.55945  23164212.2194                   23164208.9454
 -17964955.16848 -13987929.25846  21126696.2734                   21126694.0164
 -22657795.27048 -17645498.94147  20200738.5164                   20200736.0434
 -12470665.07847  -9704202.54745  23230187.1484                   23230184.6094
 -17261806.61748 -13440028.54746  20874086.6484                   20874084.0594
  -6287530.00847  -4886825.78544  23818032.2664                   23818033.4614
 -16259981.82046 -12656772.64143  23653842.7734                   23653838.7114
  -7146210.59447  -5557792.87145  22651144.0084                   22651141.0274
